<?xml version="1.0" encoding="UTF-8" standalone="no" ?>
<gpx xmlns="http://www.topografix.com/GPX/1/1" xmlns:xsi="http://www.w3.org/2001/XMLSchema-instance" xsi:schemaLocation="http://www.topografix.com/GPX/1/1 http://www.topografix.com/GPX/1/1/gpx.xsd" version="1.1" creator="VisuGPX - https://www.visugpx.com">
  <metadata>
    <name>lundi 2016 08 08</name>
    <desc><![CDATA[rando du lundi en groupe d'amis]]></desc>
  </metadata>
  <trk>
    <name><![CDATA[lundi 2016 08 08]]></name>
    <trkseg>
      <trkpt lat="48.8574" lon="2.347">
        <ele>39.799999237061</ele>
        <time>2016-08-08T18:20:29.000Z</time>
      </trkpt>
      <trkpt lat="48.85738" lon="2.34696">
        <ele>39.799999237061</ele>
        <time>2016-08-08T18:20:30.000Z</time>
      </trkpt>
      <trkpt lat="48.85737" lon="2.34688">
        <ele>39.599998474121</ele>
        <time>2016-08-08T18:20:34.000Z</time>
      </trkpt>
      <trkpt lat="48.85722" lon="2.34698">
        <ele>40.599998474121</ele>
        <time>2016-08-08T18:20:41.000Z</time>
      </trkpt>
      <trkpt lat="48.85721" lon="2.34712">
        <ele>40.599998474121</ele>
        <time>2016-08-08T18:21:08.000Z</time>
      </trkpt>
      <trkpt lat="48.85713" lon="2.34741">
        <ele>40.799999237061</ele>
        <time>2016-08-08T18:21:17.000Z</time>
      </trkpt>
      <trkpt lat="48.85709" lon="2.34772">
        <ele>40.799999237061</ele>
        <time>2016-08-08T18:21:24.000Z</time>
      </trkpt>
      <trkpt lat="48.85703" lon="2.34802">
        <ele>44</ele>
        <time>2016-08-08T18:21:29.000Z</time>
      </trkpt>
      <trkpt lat="48.85692" lon="2.3483">
        <ele>47.599998474121</ele>
        <time>2016-08-08T18:21:34.000Z</time>
      </trkpt>
      <trkpt lat="48.85686" lon="2.34861">
        <ele>46.799999237061</ele>
        <time>2016-08-08T18:21:39.000Z</time>
      </trkpt>
      <trkpt lat="48.85676" lon="2.34887">
        <ele>44.599998474121</ele>
        <time>2016-08-08T18:21:44.000Z</time>
      </trkpt>
      <trkpt lat="48.8567" lon="2.34915">
        <ele>45.599998474121</ele>
        <time>2016-08-08T18:21:49.000Z</time>
      </trkpt>
      <trkpt lat="48.85661" lon="2.34942">
        <ele>44</ele>
        <time>2016-08-08T18:21:54.000Z</time>
      </trkpt>
      <trkpt lat="48.85647" lon="2.34969">
        <ele>41.400001525879</ele>
        <time>2016-08-08T18:21:59.000Z</time>
      </trkpt>
      <trkpt lat="48.85634" lon="2.34994">
        <ele>37.400001525879</ele>
        <time>2016-08-08T18:22:04.000Z</time>
      </trkpt>
      <trkpt lat="48.85622" lon="2.35018">
        <ele>35</ele>
        <time>2016-08-08T18:22:09.000Z</time>
      </trkpt>
      <trkpt lat="48.85612" lon="2.35045">
        <ele>32.599998474121</ele>
        <time>2016-08-08T18:22:16.000Z</time>
      </trkpt>
      <trkpt lat="48.85604" lon="2.35071">
        <ele>30.799999237061</ele>
        <time>2016-08-08T18:22:20.000Z</time>
      </trkpt>
      <trkpt lat="48.85596" lon="2.35103">
        <ele>31</ele>
        <time>2016-08-08T18:22:23.000Z</time>
      </trkpt>
      <trkpt lat="48.85585" lon="2.35131">
        <ele>32.200000762939</ele>
        <time>2016-08-08T18:22:27.000Z</time>
      </trkpt>
      <trkpt lat="48.85572" lon="2.35158">
        <ele>31.39999961853</ele>
        <time>2016-08-08T18:22:31.000Z</time>
      </trkpt>
      <trkpt lat="48.85565" lon="2.35181">
        <ele>32.799999237061</ele>
        <time>2016-08-08T18:22:34.000Z</time>
      </trkpt>
      <trkpt lat="48.85557" lon="2.35206">
        <ele>34.400001525879</ele>
        <time>2016-08-08T18:22:37.000Z</time>
      </trkpt>
      <trkpt lat="48.85546" lon="2.35235">
        <ele>32</ele>
        <time>2016-08-08T18:22:41.000Z</time>
      </trkpt>
      <trkpt lat="48.85536" lon="2.35262">
        <ele>30.799999237061</ele>
        <time>2016-08-08T18:22:45.000Z</time>
      </trkpt>
      <trkpt lat="48.85523" lon="2.3529">
        <ele>32.599998474121</ele>
        <time>2016-08-08T18:22:49.000Z</time>
      </trkpt>
      <trkpt lat="48.8551" lon="2.35316">
        <ele>34.799999237061</ele>
        <time>2016-08-08T18:22:53.000Z</time>
      </trkpt>
      <trkpt lat="48.855" lon="2.35343">
        <ele>34.400001525879</ele>
        <time>2016-08-08T18:22:57.000Z</time>
      </trkpt>
      <trkpt lat="48.85493" lon="2.35369">
        <ele>35</ele>
        <time>2016-08-08T18:23:01.000Z</time>
      </trkpt>
      <trkpt lat="48.85488" lon="2.35389">
        <ele>35.599998474121</ele>
        <time>2016-08-08T18:23:04.000Z</time>
      </trkpt>
      <trkpt lat="48.85482" lon="2.35417">
        <ele>36.400001525879</ele>
        <time>2016-08-08T18:23:08.000Z</time>
      </trkpt>
      <trkpt lat="48.85478" lon="2.35431">
        <ele>35.400001525879</ele>
        <time>2016-08-08T18:23:10.000Z</time>
      </trkpt>
      <trkpt lat="48.85464" lon="2.35457">
        <ele>34.200000762939</ele>
        <time>2016-08-08T18:23:15.000Z</time>
      </trkpt>
      <trkpt lat="48.85454" lon="2.35475">
        <ele>34.599998474121</ele>
        <time>2016-08-08T18:23:19.000Z</time>
      </trkpt>
      <trkpt lat="48.85448" lon="2.35488">
        <ele>35</ele>
        <time>2016-08-08T18:23:22.000Z</time>
      </trkpt>
      <trkpt lat="48.85437" lon="2.35513">
        <ele>35.799999237061</ele>
        <time>2016-08-08T18:23:27.000Z</time>
      </trkpt>
      <trkpt lat="48.85429" lon="2.35538">
        <ele>37.400001525879</ele>
        <time>2016-08-08T18:23:31.000Z</time>
      </trkpt>
      <trkpt lat="48.85419" lon="2.35564">
        <ele>39</ele>
        <time>2016-08-08T18:23:36.000Z</time>
      </trkpt>
      <trkpt lat="48.8541" lon="2.35594">
        <ele>38</ele>
        <time>2016-08-08T18:23:41.000Z</time>
      </trkpt>
      <trkpt lat="48.85402" lon="2.35619">
        <ele>38.400001525879</ele>
        <time>2016-08-08T18:23:45.000Z</time>
      </trkpt>
      <trkpt lat="48.85389" lon="2.35648">
        <ele>39</ele>
        <time>2016-08-08T18:23:50.000Z</time>
      </trkpt>
      <trkpt lat="48.85382" lon="2.35676">
        <ele>39.400001525879</ele>
        <time>2016-08-08T18:23:54.000Z</time>
      </trkpt>
      <trkpt lat="48.8538" lon="2.35689">
        <ele>39.200000762939</ele>
        <time>2016-08-08T18:23:56.000Z</time>
      </trkpt>
      <trkpt lat="48.85375" lon="2.35707">
        <ele>39</ele>
        <time>2016-08-08T18:23:59.000Z</time>
      </trkpt>
      <trkpt lat="48.85365" lon="2.35734">
        <ele>38.400001525879</ele>
        <time>2016-08-08T18:24:04.000Z</time>
      </trkpt>
      <trkpt lat="48.85349" lon="2.3576">
        <ele>37.799999237061</ele>
        <time>2016-08-08T18:24:08.000Z</time>
      </trkpt>
      <trkpt lat="48.85345" lon="2.35769">
        <ele>37.799999237061</ele>
        <time>2016-08-08T18:24:10.000Z</time>
      </trkpt>
      <trkpt lat="48.85332" lon="2.3579">
        <ele>37.400001525879</ele>
        <time>2016-08-08T18:24:15.000Z</time>
      </trkpt>
      <trkpt lat="48.85323" lon="2.35819">
        <ele>36.799999237061</ele>
        <time>2016-08-08T18:24:20.000Z</time>
      </trkpt>
      <trkpt lat="48.85313" lon="2.35848">
        <ele>36.400001525879</ele>
        <time>2016-08-08T18:24:24.000Z</time>
      </trkpt>
      <trkpt lat="48.85306" lon="2.35871">
        <ele>36.400001525879</ele>
        <time>2016-08-08T18:24:27.000Z</time>
      </trkpt>
      <trkpt lat="48.85295" lon="2.359">
        <ele>36.799999237061</ele>
        <time>2016-08-08T18:24:31.000Z</time>
      </trkpt>
      <trkpt lat="48.85286" lon="2.35924">
        <ele>37.200000762939</ele>
        <time>2016-08-08T18:24:34.000Z</time>
      </trkpt>
      <trkpt lat="48.85273" lon="2.35954">
        <ele>38</ele>
        <time>2016-08-08T18:24:38.000Z</time>
      </trkpt>
      <trkpt lat="48.85269" lon="2.3597">
        <ele>38.599998474121</ele>
        <time>2016-08-08T18:24:40.000Z</time>
      </trkpt>
      <trkpt lat="48.85259" lon="2.36001">
        <ele>38.599998474121</ele>
        <time>2016-08-08T18:24:44.000Z</time>
      </trkpt>
      <trkpt lat="48.85255" lon="2.36007">
        <ele>38.599998474121</ele>
        <time>2016-08-08T18:24:45.000Z</time>
      </trkpt>
      <trkpt lat="48.85247" lon="2.36036">
        <ele>39</ele>
        <time>2016-08-08T18:24:49.000Z</time>
      </trkpt>
      <trkpt lat="48.85243" lon="2.3605">
        <ele>39.200000762939</ele>
        <time>2016-08-08T18:24:51.000Z</time>
      </trkpt>
      <trkpt lat="48.85234" lon="2.36078">
        <ele>40.400001525879</ele>
        <time>2016-08-08T18:24:55.000Z</time>
      </trkpt>
      <trkpt lat="48.85228" lon="2.36089">
        <ele>40.799999237061</ele>
        <time>2016-08-08T18:24:57.000Z</time>
      </trkpt>
      <trkpt lat="48.85213" lon="2.36112">
        <ele>41.400001525879</ele>
        <time>2016-08-08T18:25:01.000Z</time>
      </trkpt>
      <trkpt lat="48.85197" lon="2.36129">
        <ele>41.799999237061</ele>
        <time>2016-08-08T18:25:05.000Z</time>
      </trkpt>
      <trkpt lat="48.85177" lon="2.36138">
        <ele>41.599998474121</ele>
        <time>2016-08-08T18:25:09.000Z</time>
      </trkpt>
      <trkpt lat="48.85172" lon="2.36139">
        <ele>41.400001525879</ele>
        <time>2016-08-08T18:25:10.000Z</time>
      </trkpt>
      <trkpt lat="48.85155" lon="2.3614">
        <ele>40.200000762939</ele>
        <time>2016-08-08T18:25:13.000Z</time>
      </trkpt>
      <trkpt lat="48.85136" lon="2.36143">
        <ele>38.400001525879</ele>
        <time>2016-08-08T18:25:17.000Z</time>
      </trkpt>
      <trkpt lat="48.85123" lon="2.36142">
        <ele>37.200000762939</ele>
        <time>2016-08-08T18:25:20.000Z</time>
      </trkpt>
      <trkpt lat="48.85104" lon="2.36141">
        <ele>35.599998474121</ele>
        <time>2016-08-08T18:25:23.000Z</time>
      </trkpt>
      <trkpt lat="48.85101" lon="2.3614">
        <ele>35.599998474121</ele>
        <time>2016-08-08T18:25:24.000Z</time>
      </trkpt>
      <trkpt lat="48.85091" lon="2.36135">
        <ele>35.599998474121</ele>
        <time>2016-08-08T18:25:27.000Z</time>
      </trkpt>
      <trkpt lat="48.85079" lon="2.36138">
        <ele>35.599998474121</ele>
        <time>2016-08-08T18:25:31.000Z</time>
      </trkpt>
      <trkpt lat="48.85075" lon="2.36139">
        <ele>35.799999237061</ele>
        <time>2016-08-08T18:25:32.000Z</time>
      </trkpt>
      <trkpt lat="48.85053" lon="2.36142">
        <ele>36.599998474121</ele>
        <time>2016-08-08T18:25:37.000Z</time>
      </trkpt>
      <trkpt lat="48.85043" lon="2.36143">
        <ele>37</ele>
        <time>2016-08-08T18:25:39.000Z</time>
      </trkpt>
      <trkpt lat="48.85023" lon="2.36147">
        <ele>37.799999237061</ele>
        <time>2016-08-08T18:25:43.000Z</time>
      </trkpt>
      <trkpt lat="48.8501" lon="2.36147">
        <ele>37.400001525879</ele>
        <time>2016-08-08T18:25:46.000Z</time>
      </trkpt>
      <trkpt lat="48.84989" lon="2.36153">
        <ele>38.599998474121</ele>
        <time>2016-08-08T18:25:50.000Z</time>
      </trkpt>
      <trkpt lat="48.84985" lon="2.36155">
        <ele>39</ele>
        <time>2016-08-08T18:25:51.000Z</time>
      </trkpt>
      <trkpt lat="48.84982" lon="2.36158">
        <ele>39.400001525879</ele>
        <time>2016-08-08T18:25:52.000Z</time>
      </trkpt>
      <trkpt lat="48.84992" lon="2.36184">
        <ele>39</ele>
        <time>2016-08-08T18:25:57.000Z</time>
      </trkpt>
      <trkpt lat="48.85006" lon="2.36211">
        <ele>37.599998474121</ele>
        <time>2016-08-08T18:26:02.000Z</time>
      </trkpt>
      <trkpt lat="48.85018" lon="2.36236">
        <ele>36.599998474121</ele>
        <time>2016-08-08T18:26:06.000Z</time>
      </trkpt>
      <trkpt lat="48.85027" lon="2.36252">
        <ele>36.200000762939</ele>
        <time>2016-08-08T18:26:09.000Z</time>
      </trkpt>
      <trkpt lat="48.85036" lon="2.36266">
        <ele>36.400001525879</ele>
        <time>2016-08-08T18:26:12.000Z</time>
      </trkpt>
      <trkpt lat="48.85039" lon="2.36274">
        <ele>36.400001525879</ele>
        <time>2016-08-08T18:26:14.000Z</time>
      </trkpt>
      <trkpt lat="48.85044" lon="2.36282">
        <ele>36.599998474121</ele>
        <time>2016-08-08T18:26:17.000Z</time>
      </trkpt>
      <trkpt lat="48.85036" lon="2.36306">
        <ele>36</ele>
        <time>2016-08-08T18:26:23.000Z</time>
      </trkpt>
      <trkpt lat="48.8502" lon="2.3633">
        <ele>35.200000762939</ele>
        <time>2016-08-08T18:26:29.000Z</time>
      </trkpt>
      <trkpt lat="48.85003" lon="2.36345">
        <ele>36.799999237061</ele>
        <time>2016-08-08T18:26:33.000Z</time>
      </trkpt>
      <trkpt lat="48.84984" lon="2.36355">
        <ele>38.400001525879</ele>
        <time>2016-08-08T18:26:37.000Z</time>
      </trkpt>
      <trkpt lat="48.84968" lon="2.36377">
        <ele>39.599998474121</ele>
        <time>2016-08-08T18:26:42.000Z</time>
      </trkpt>
      <trkpt lat="48.84967" lon="2.36408">
        <ele>39.599998474121</ele>
        <time>2016-08-08T18:26:47.000Z</time>
      </trkpt>
      <trkpt lat="48.8497" lon="2.36421">
        <ele>39.799999237061</ele>
        <time>2016-08-08T18:26:49.000Z</time>
      </trkpt>
      <trkpt lat="48.84975" lon="2.36449">
        <ele>40.799999237061</ele>
        <time>2016-08-08T18:26:54.000Z</time>
      </trkpt>
      <trkpt lat="48.84973" lon="2.36477">
        <ele>41.799999237061</ele>
        <time>2016-08-08T18:26:58.000Z</time>
      </trkpt>
      <trkpt lat="48.8497" lon="2.36492">
        <ele>42.400001525879</ele>
        <time>2016-08-08T18:27:00.000Z</time>
      </trkpt>
      <trkpt lat="48.84967" lon="2.36521">
        <ele>43</ele>
        <time>2016-08-08T18:27:04.000Z</time>
      </trkpt>
      <trkpt lat="48.84965" lon="2.36549">
        <ele>44.200000762939</ele>
        <time>2016-08-08T18:27:08.000Z</time>
      </trkpt>
      <trkpt lat="48.84958" lon="2.36582">
        <ele>46.200000762939</ele>
        <time>2016-08-08T18:27:13.000Z</time>
      </trkpt>
      <trkpt lat="48.84953" lon="2.36614">
        <ele>44.799999237061</ele>
        <time>2016-08-08T18:27:17.000Z</time>
      </trkpt>
      <trkpt lat="48.84949" lon="2.36644">
        <ele>41.200000762939</ele>
        <time>2016-08-08T18:27:21.000Z</time>
      </trkpt>
      <trkpt lat="48.84944" lon="2.36655">
        <ele>39.400001525879</ele>
        <time>2016-08-08T18:27:23.000Z</time>
      </trkpt>
      <trkpt lat="48.84934" lon="2.36659">
        <ele>38.400001525879</ele>
        <time>2016-08-08T18:27:49.000Z</time>
      </trkpt>
      <trkpt lat="48.84932" lon="2.36664">
        <ele>38</ele>
        <time>2016-08-08T18:27:51.000Z</time>
      </trkpt>
      <trkpt lat="48.84929" lon="2.36683">
        <ele>37.200000762939</ele>
        <time>2016-08-08T18:27:56.000Z</time>
      </trkpt>
      <trkpt lat="48.84925" lon="2.36712">
        <ele>36.200000762939</ele>
        <time>2016-08-08T18:28:03.000Z</time>
      </trkpt>
      <trkpt lat="48.84919" lon="2.36741">
        <ele>35.799999237061</ele>
        <time>2016-08-08T18:28:10.000Z</time>
      </trkpt>
      <trkpt lat="48.84914" lon="2.36767">
        <ele>38.200000762939</ele>
        <time>2016-08-08T18:28:18.000Z</time>
      </trkpt>
      <trkpt lat="48.84913" lon="2.36776">
        <ele>39</ele>
        <time>2016-08-08T18:28:21.000Z</time>
      </trkpt>
      <trkpt lat="48.84908" lon="2.36788">
        <ele>40.400001525879</ele>
        <time>2016-08-08T18:28:28.000Z</time>
      </trkpt>
      <trkpt lat="48.84893" lon="2.36803">
        <ele>40.599998474121</ele>
        <time>2016-08-08T18:28:52.000Z</time>
      </trkpt>
      <trkpt lat="48.84875" lon="2.36796">
        <ele>39.599998474121</ele>
        <time>2016-08-08T18:28:57.000Z</time>
      </trkpt>
      <trkpt lat="48.84856" lon="2.36787">
        <ele>38.599998474121</ele>
        <time>2016-08-08T18:29:02.000Z</time>
      </trkpt>
      <trkpt lat="48.84837" lon="2.36778">
        <ele>37.599998474121</ele>
        <time>2016-08-08T18:29:06.000Z</time>
      </trkpt>
      <trkpt lat="48.84816" lon="2.36782">
        <ele>36.200000762939</ele>
        <time>2016-08-08T18:29:11.000Z</time>
      </trkpt>
      <trkpt lat="48.84802" lon="2.36802">
        <ele>37.200000762939</ele>
        <time>2016-08-08T18:29:15.000Z</time>
      </trkpt>
      <trkpt lat="48.84786" lon="2.36826">
        <ele>39.200000762939</ele>
        <time>2016-08-08T18:29:19.000Z</time>
      </trkpt>
      <trkpt lat="48.84771" lon="2.36842">
        <ele>40.200000762939</ele>
        <time>2016-08-08T18:29:22.000Z</time>
      </trkpt>
      <trkpt lat="48.84755" lon="2.36856">
        <ele>40.799999237061</ele>
        <time>2016-08-08T18:29:25.000Z</time>
      </trkpt>
      <trkpt lat="48.84735" lon="2.36875">
        <ele>41.599998474121</ele>
        <time>2016-08-08T18:29:29.000Z</time>
      </trkpt>
      <trkpt lat="48.84717" lon="2.36898">
        <ele>42.200000762939</ele>
        <time>2016-08-08T18:29:33.000Z</time>
      </trkpt>
      <trkpt lat="48.84713" lon="2.36904">
        <ele>42.400001525879</ele>
        <time>2016-08-08T18:29:34.000Z</time>
      </trkpt>
      <trkpt lat="48.84697" lon="2.36927">
        <ele>43</ele>
        <time>2016-08-08T18:29:38.000Z</time>
      </trkpt>
      <trkpt lat="48.8469" lon="2.36939">
        <ele>43</ele>
        <time>2016-08-08T18:29:40.000Z</time>
      </trkpt>
      <trkpt lat="48.84677" lon="2.36958">
        <ele>43</ele>
        <time>2016-08-08T18:29:44.000Z</time>
      </trkpt>
      <trkpt lat="48.84664" lon="2.36978">
        <ele>43</ele>
        <time>2016-08-08T18:29:48.000Z</time>
      </trkpt>
      <trkpt lat="48.84654" lon="2.36992">
        <ele>42.599998474121</ele>
        <time>2016-08-08T18:29:51.000Z</time>
      </trkpt>
      <trkpt lat="48.84638" lon="2.37012">
        <ele>42.200000762939</ele>
        <time>2016-08-08T18:29:55.000Z</time>
      </trkpt>
      <trkpt lat="48.84633" lon="2.37017">
        <ele>42.200000762939</ele>
        <time>2016-08-08T18:29:56.000Z</time>
      </trkpt>
      <trkpt lat="48.84617" lon="2.37034">
        <ele>42.400001525879</ele>
        <time>2016-08-08T18:30:00.000Z</time>
      </trkpt>
      <trkpt lat="48.84601" lon="2.37051">
        <ele>42.400001525879</ele>
        <time>2016-08-08T18:30:04.000Z</time>
      </trkpt>
      <trkpt lat="48.8459" lon="2.37067">
        <ele>42</ele>
        <time>2016-08-08T18:30:08.000Z</time>
      </trkpt>
      <trkpt lat="48.84582" lon="2.37084">
        <ele>41.799999237061</ele>
        <time>2016-08-08T18:30:12.000Z</time>
      </trkpt>
      <trkpt lat="48.84566" lon="2.37095">
        <ele>40.799999237061</ele>
        <time>2016-08-08T18:30:17.000Z</time>
      </trkpt>
      <trkpt lat="48.84557" lon="2.37102">
        <ele>40.200000762939</ele>
        <time>2016-08-08T18:30:20.000Z</time>
      </trkpt>
      <trkpt lat="48.8455" lon="2.37106">
        <ele>39.799999237061</ele>
        <time>2016-08-08T18:30:23.000Z</time>
      </trkpt>
      <trkpt lat="48.84546" lon="2.37127">
        <ele>40.400001525879</ele>
        <time>2016-08-08T18:30:33.000Z</time>
      </trkpt>
      <trkpt lat="48.8455" lon="2.37146">
        <ele>41</ele>
        <time>2016-08-08T18:30:36.000Z</time>
      </trkpt>
      <trkpt lat="48.84554" lon="2.37174">
        <ele>41.799999237061</ele>
        <time>2016-08-08T18:30:40.000Z</time>
      </trkpt>
      <trkpt lat="48.84561" lon="2.37201">
        <ele>42.400001525879</ele>
        <time>2016-08-08T18:30:44.000Z</time>
      </trkpt>
      <trkpt lat="48.84565" lon="2.37232">
        <ele>42.599998474121</ele>
        <time>2016-08-08T18:30:49.000Z</time>
      </trkpt>
      <trkpt lat="48.84569" lon="2.37263">
        <ele>42.400001525879</ele>
        <time>2016-08-08T18:30:55.000Z</time>
      </trkpt>
      <trkpt lat="48.84576" lon="2.3729">
        <ele>42.200000762939</ele>
        <time>2016-08-08T18:31:00.000Z</time>
      </trkpt>
      <trkpt lat="48.84581" lon="2.37319">
        <ele>42.400001525879</ele>
        <time>2016-08-08T18:31:05.000Z</time>
      </trkpt>
      <trkpt lat="48.84586" lon="2.37352">
        <ele>41.599998474121</ele>
        <time>2016-08-08T18:31:10.000Z</time>
      </trkpt>
      <trkpt lat="48.84588" lon="2.37382">
        <ele>40</ele>
        <time>2016-08-08T18:31:15.000Z</time>
      </trkpt>
      <trkpt lat="48.84589" lon="2.37404">
        <ele>39.400001525879</ele>
        <time>2016-08-08T18:31:23.000Z</time>
      </trkpt>
      <trkpt lat="48.84589" lon="2.37419">
        <ele>39.799999237061</ele>
        <time>2016-08-08T18:31:42.000Z</time>
      </trkpt>
      <trkpt lat="48.84593" lon="2.37447">
        <ele>40</ele>
        <time>2016-08-08T18:31:49.000Z</time>
      </trkpt>
      <trkpt lat="48.84597" lon="2.37476">
        <ele>40.200000762939</ele>
        <time>2016-08-08T18:31:55.000Z</time>
      </trkpt>
      <trkpt lat="48.84601" lon="2.37509">
        <ele>40.599998474121</ele>
        <time>2016-08-08T18:32:01.000Z</time>
      </trkpt>
      <trkpt lat="48.84606" lon="2.3754">
        <ele>41</ele>
        <time>2016-08-08T18:32:06.000Z</time>
      </trkpt>
      <trkpt lat="48.84611" lon="2.37574">
        <ele>41.799999237061</ele>
        <time>2016-08-08T18:32:11.000Z</time>
      </trkpt>
      <trkpt lat="48.8462" lon="2.37603">
        <ele>42</ele>
        <time>2016-08-08T18:32:15.000Z</time>
      </trkpt>
      <trkpt lat="48.84623" lon="2.3763">
        <ele>41.599998474121</ele>
        <time>2016-08-08T18:32:19.000Z</time>
      </trkpt>
      <trkpt lat="48.84627" lon="2.3766">
        <ele>41.400001525879</ele>
        <time>2016-08-08T18:32:23.000Z</time>
      </trkpt>
      <trkpt lat="48.84631" lon="2.37688">
        <ele>41.599998474121</ele>
        <time>2016-08-08T18:32:27.000Z</time>
      </trkpt>
      <trkpt lat="48.84634" lon="2.37706">
        <ele>41.599998474121</ele>
        <time>2016-08-08T18:32:30.000Z</time>
      </trkpt>
      <trkpt lat="48.84637" lon="2.37731">
        <ele>41.799999237061</ele>
        <time>2016-08-08T18:32:35.000Z</time>
      </trkpt>
      <trkpt lat="48.84638" lon="2.37752">
        <ele>41.799999237061</ele>
        <time>2016-08-08T18:32:40.000Z</time>
      </trkpt>
      <trkpt lat="48.8463" lon="2.37773">
        <ele>41.599998474121</ele>
        <time>2016-08-08T18:32:45.000Z</time>
      </trkpt>
      <trkpt lat="48.84615" lon="2.37794">
        <ele>40.400001525879</ele>
        <time>2016-08-08T18:32:50.000Z</time>
      </trkpt>
      <trkpt lat="48.84601" lon="2.37818">
        <ele>39.200000762939</ele>
        <time>2016-08-08T18:32:54.000Z</time>
      </trkpt>
      <trkpt lat="48.84588" lon="2.3784">
        <ele>38.400001525879</ele>
        <time>2016-08-08T18:32:58.000Z</time>
      </trkpt>
      <trkpt lat="48.84573" lon="2.37863">
        <ele>37.400001525879</ele>
        <time>2016-08-08T18:33:02.000Z</time>
      </trkpt>
      <trkpt lat="48.84557" lon="2.37889">
        <ele>37.200000762939</ele>
        <time>2016-08-08T18:33:06.000Z</time>
      </trkpt>
      <trkpt lat="48.84545" lon="2.3791">
        <ele>37.400001525879</ele>
        <time>2016-08-08T18:33:09.000Z</time>
      </trkpt>
      <trkpt lat="48.84534" lon="2.37935">
        <ele>38.200000762939</ele>
        <time>2016-08-08T18:33:12.000Z</time>
      </trkpt>
      <trkpt lat="48.84526" lon="2.37962">
        <ele>38.599998474121</ele>
        <time>2016-08-08T18:33:15.000Z</time>
      </trkpt>
      <trkpt lat="48.84518" lon="2.3799">
        <ele>38.799999237061</ele>
        <time>2016-08-08T18:33:18.000Z</time>
      </trkpt>
      <trkpt lat="48.84509" lon="2.38016">
        <ele>39.200000762939</ele>
        <time>2016-08-08T18:33:21.000Z</time>
      </trkpt>
      <trkpt lat="48.84495" lon="2.38036">
        <ele>39.200000762939</ele>
        <time>2016-08-08T18:33:24.000Z</time>
      </trkpt>
      <trkpt lat="48.84478" lon="2.38061">
        <ele>38.799999237061</ele>
        <time>2016-08-08T18:33:28.000Z</time>
      </trkpt>
      <trkpt lat="48.84464" lon="2.38083">
        <ele>38.200000762939</ele>
        <time>2016-08-08T18:33:31.000Z</time>
      </trkpt>
      <trkpt lat="48.84453" lon="2.38107">
        <ele>38.400001525879</ele>
        <time>2016-08-08T18:33:35.000Z</time>
      </trkpt>
      <trkpt lat="48.8444" lon="2.38129">
        <ele>37.599998474121</ele>
        <time>2016-08-08T18:33:40.000Z</time>
      </trkpt>
      <trkpt lat="48.84436" lon="2.38136">
        <ele>38</ele>
        <time>2016-08-08T18:33:42.000Z</time>
      </trkpt>
      <trkpt lat="48.84431" lon="2.38144">
        <ele>38.400001525879</ele>
        <time>2016-08-08T18:33:44.000Z</time>
      </trkpt>
      <trkpt lat="48.84423" lon="2.38164">
        <ele>39.200000762939</ele>
        <time>2016-08-08T18:33:49.000Z</time>
      </trkpt>
      <trkpt lat="48.84411" lon="2.38188">
        <ele>40.599998474121</ele>
        <time>2016-08-08T18:33:55.000Z</time>
      </trkpt>
      <trkpt lat="48.84397" lon="2.38213">
        <ele>42</ele>
        <time>2016-08-08T18:33:59.000Z</time>
      </trkpt>
      <trkpt lat="48.84382" lon="2.3824">
        <ele>42.799999237061</ele>
        <time>2016-08-08T18:34:03.000Z</time>
      </trkpt>
      <trkpt lat="48.84367" lon="2.38266">
        <ele>43.400001525879</ele>
        <time>2016-08-08T18:34:07.000Z</time>
      </trkpt>
      <trkpt lat="48.84355" lon="2.38289">
        <ele>42</ele>
        <time>2016-08-08T18:34:10.000Z</time>
      </trkpt>
      <trkpt lat="48.84341" lon="2.38316">
        <ele>40.599998474121</ele>
        <time>2016-08-08T18:34:13.000Z</time>
      </trkpt>
      <trkpt lat="48.84329" lon="2.3835">
        <ele>39</ele>
        <time>2016-08-08T18:34:16.000Z</time>
      </trkpt>
      <trkpt lat="48.84319" lon="2.38372">
        <ele>38.200000762939</ele>
        <time>2016-08-08T18:34:18.000Z</time>
      </trkpt>
      <trkpt lat="48.84305" lon="2.38405">
        <ele>39</ele>
        <time>2016-08-08T18:34:21.000Z</time>
      </trkpt>
      <trkpt lat="48.8429" lon="2.38438">
        <ele>39.799999237061</ele>
        <time>2016-08-08T18:34:24.000Z</time>
      </trkpt>
      <trkpt lat="48.84274" lon="2.3847">
        <ele>40</ele>
        <time>2016-08-08T18:34:27.000Z</time>
      </trkpt>
      <trkpt lat="48.84258" lon="2.38502">
        <ele>40</ele>
        <time>2016-08-08T18:34:30.000Z</time>
      </trkpt>
      <trkpt lat="48.84251" lon="2.38509">
        <ele>40.200000762939</ele>
        <time>2016-08-08T18:34:31.000Z</time>
      </trkpt>
      <trkpt lat="48.84235" lon="2.38541">
        <ele>40.599998474121</ele>
        <time>2016-08-08T18:34:34.000Z</time>
      </trkpt>
      <trkpt lat="48.84222" lon="2.38575">
        <ele>42.599998474121</ele>
        <time>2016-08-08T18:34:37.000Z</time>
      </trkpt>
      <trkpt lat="48.84206" lon="2.38608">
        <ele>44.599998474121</ele>
        <time>2016-08-08T18:34:40.000Z</time>
      </trkpt>
      <trkpt lat="48.84192" lon="2.38641">
        <ele>44.799999237061</ele>
        <time>2016-08-08T18:34:43.000Z</time>
      </trkpt>
      <trkpt lat="48.84178" lon="2.38671">
        <ele>45</ele>
        <time>2016-08-08T18:34:46.000Z</time>
      </trkpt>
      <trkpt lat="48.84166" lon="2.38697">
        <ele>44.799999237061</ele>
        <time>2016-08-08T18:34:49.000Z</time>
      </trkpt>
      <trkpt lat="48.84158" lon="2.38718">
        <ele>44.400001525879</ele>
        <time>2016-08-08T18:34:52.000Z</time>
      </trkpt>
      <trkpt lat="48.84154" lon="2.38723">
        <ele>44.599998474121</ele>
        <time>2016-08-08T18:34:54.000Z</time>
      </trkpt>
      <trkpt lat="48.84152" lon="2.38727">
        <ele>44.599998474121</ele>
        <time>2016-08-08T18:34:57.000Z</time>
      </trkpt>
      <trkpt lat="48.84146" lon="2.38727">
        <ele>44.799999237061</ele>
        <time>2016-08-08T18:35:04.000Z</time>
      </trkpt>
      <trkpt lat="48.84135" lon="2.3875">
        <ele>45</ele>
        <time>2016-08-08T18:35:11.000Z</time>
      </trkpt>
      <trkpt lat="48.84129" lon="2.38775">
        <ele>45</ele>
        <time>2016-08-08T18:35:18.000Z</time>
      </trkpt>
      <trkpt lat="48.84122" lon="2.38784">
        <ele>45.400001525879</ele>
        <time>2016-08-08T18:35:23.000Z</time>
      </trkpt>
      <trkpt lat="48.84106" lon="2.38781">
        <ele>46.400001525879</ele>
        <time>2016-08-08T18:35:49.000Z</time>
      </trkpt>
      <trkpt lat="48.84102" lon="2.38779">
        <ele>46.200000762939</ele>
        <time>2016-08-08T18:36:05.000Z</time>
      </trkpt>
      <trkpt lat="48.84097" lon="2.38773">
        <ele>45.799999237061</ele>
        <time>2016-08-08T18:36:11.000Z</time>
      </trkpt>
      <trkpt lat="48.84083" lon="2.38753">
        <ele>45</ele>
        <time>2016-08-08T18:36:28.000Z</time>
      </trkpt>
      <trkpt lat="48.84079" lon="2.38751">
        <ele>44.799999237061</ele>
        <time>2016-08-08T18:36:31.000Z</time>
      </trkpt>
      <trkpt lat="48.84077" lon="2.38756">
        <ele>44.799999237061</ele>
        <time>2016-08-08T18:36:36.000Z</time>
      </trkpt>
      <trkpt lat="48.84071" lon="2.38761">
        <ele>44.400001525879</ele>
        <time>2016-08-08T18:36:40.000Z</time>
      </trkpt>
      <trkpt lat="48.84057" lon="2.38771">
        <ele>44</ele>
        <time>2016-08-08T18:36:44.000Z</time>
      </trkpt>
      <trkpt lat="48.84037" lon="2.38778">
        <ele>43.400001525879</ele>
        <time>2016-08-08T18:36:49.000Z</time>
      </trkpt>
      <trkpt lat="48.84033" lon="2.38785">
        <ele>43.599998474121</ele>
        <time>2016-08-08T18:36:50.000Z</time>
      </trkpt>
      <trkpt lat="48.84018" lon="2.38812">
        <ele>44.400001525879</ele>
        <time>2016-08-08T18:36:54.000Z</time>
      </trkpt>
      <trkpt lat="48.84002" lon="2.38833">
        <ele>45.400001525879</ele>
        <time>2016-08-08T18:36:57.000Z</time>
      </trkpt>
      <trkpt lat="48.83982" lon="2.38853">
        <ele>46.799999237061</ele>
        <time>2016-08-08T18:37:00.000Z</time>
      </trkpt>
      <trkpt lat="48.83962" lon="2.3887">
        <ele>48</ele>
        <time>2016-08-08T18:37:03.000Z</time>
      </trkpt>
      <trkpt lat="48.83941" lon="2.38877">
        <ele>48.599998474121</ele>
        <time>2016-08-08T18:37:06.000Z</time>
      </trkpt>
      <trkpt lat="48.83922" lon="2.38888">
        <ele>48.599998474121</ele>
        <time>2016-08-08T18:37:09.000Z</time>
      </trkpt>
      <trkpt lat="48.83919" lon="2.38892">
        <ele>48.599998474121</ele>
        <time>2016-08-08T18:37:10.000Z</time>
      </trkpt>
      <trkpt lat="48.83904" lon="2.38899">
        <ele>48</ele>
        <time>2016-08-08T18:37:15.000Z</time>
      </trkpt>
      <trkpt lat="48.83905" lon="2.38903">
        <ele>48.200000762939</ele>
        <time>2016-08-08T18:37:16.000Z</time>
      </trkpt>
      <trkpt lat="48.83905" lon="2.38904">
        <ele>48.200000762939</ele>
        <time>2016-08-08T18:37:18.000Z</time>
      </trkpt>
      <trkpt lat="48.83895" lon="2.38922">
        <ele>47.599998474121</ele>
        <time>2016-08-08T18:37:35.000Z</time>
      </trkpt>
      <trkpt lat="48.8388" lon="2.38943">
        <ele>46.200000762939</ele>
        <time>2016-08-08T18:37:41.000Z</time>
      </trkpt>
      <trkpt lat="48.83864" lon="2.38965">
        <ele>45.799999237061</ele>
        <time>2016-08-08T18:37:46.000Z</time>
      </trkpt>
      <trkpt lat="48.83846" lon="2.38985">
        <ele>45.200000762939</ele>
        <time>2016-08-08T18:37:50.000Z</time>
      </trkpt>
      <trkpt lat="48.8384" lon="2.38988">
        <ele>44.799999237061</ele>
        <time>2016-08-08T18:37:51.000Z</time>
      </trkpt>
      <trkpt lat="48.83819" lon="2.38999">
        <ele>43.400001525879</ele>
        <time>2016-08-08T18:37:54.000Z</time>
      </trkpt>
      <trkpt lat="48.83799" lon="2.39016">
        <ele>41.400001525879</ele>
        <time>2016-08-08T18:37:57.000Z</time>
      </trkpt>
      <trkpt lat="48.83793" lon="2.39026">
        <ele>41.200000762939</ele>
        <time>2016-08-08T18:37:58.000Z</time>
      </trkpt>
      <trkpt lat="48.83777" lon="2.39055">
        <ele>41.400001525879</ele>
        <time>2016-08-08T18:38:00.000Z</time>
      </trkpt>
      <trkpt lat="48.8376" lon="2.39079">
        <ele>42</ele>
        <time>2016-08-08T18:38:03.000Z</time>
      </trkpt>
      <trkpt lat="48.83746" lon="2.39099">
        <ele>42.400001525879</ele>
        <time>2016-08-08T18:38:06.000Z</time>
      </trkpt>
      <trkpt lat="48.83736" lon="2.39111">
        <ele>42.799999237061</ele>
        <time>2016-08-08T18:38:10.000Z</time>
      </trkpt>
      <trkpt lat="48.83727" lon="2.39086">
        <ele>42.200000762939</ele>
        <time>2016-08-08T18:38:15.000Z</time>
      </trkpt>
      <trkpt lat="48.83721" lon="2.39058">
        <ele>41.400001525879</ele>
        <time>2016-08-08T18:38:20.000Z</time>
      </trkpt>
      <trkpt lat="48.83716" lon="2.39043">
        <ele>41</ele>
        <time>2016-08-08T18:38:23.000Z</time>
      </trkpt>
      <trkpt lat="48.83714" lon="2.39021">
        <ele>40.599998474121</ele>
        <time>2016-08-08T18:38:28.000Z</time>
      </trkpt>
      <trkpt lat="48.83712" lon="2.39012">
        <ele>40.400001525879</ele>
        <time>2016-08-08T18:38:31.000Z</time>
      </trkpt>
      <trkpt lat="48.83719" lon="2.38999">
        <ele>40</ele>
        <time>2016-08-08T18:38:47.000Z</time>
      </trkpt>
      <trkpt lat="48.83718" lon="2.38994">
        <ele>39.799999237061</ele>
        <time>2016-08-08T18:38:52.000Z</time>
      </trkpt>
      <trkpt lat="48.83714" lon="2.38982">
        <ele>39.200000762939</ele>
        <time>2016-08-08T18:38:56.000Z</time>
      </trkpt>
      <trkpt lat="48.83689" lon="2.38899">
        <ele>36</ele>
        <time>2016-08-08T18:39:11.000Z</time>
      </trkpt>
      <trkpt lat="48.83695" lon="2.3887">
        <ele>36.200000762939</ele>
        <time>2016-08-08T18:39:17.000Z</time>
      </trkpt>
      <trkpt lat="48.83688" lon="2.38832">
        <ele>36</ele>
        <time>2016-08-08T18:39:22.000Z</time>
      </trkpt>
      <trkpt lat="48.83684" lon="2.38821">
        <ele>36</ele>
        <time>2016-08-08T18:39:23.000Z</time>
      </trkpt>
      <trkpt lat="48.83687" lon="2.38814">
        <ele>35.799999237061</ele>
        <time>2016-08-08T18:39:24.000Z</time>
      </trkpt>
      <trkpt lat="48.8369" lon="2.38798">
        <ele>35.599998474121</ele>
        <time>2016-08-08T18:39:27.000Z</time>
      </trkpt>
      <trkpt lat="48.8369" lon="2.38769">
        <ele>35.200000762939</ele>
        <time>2016-08-08T18:39:34.000Z</time>
      </trkpt>
      <trkpt lat="48.83689" lon="2.38765">
        <ele>35.200000762939</ele>
        <time>2016-08-08T18:39:35.000Z</time>
      </trkpt>
      <trkpt lat="48.83678" lon="2.38744">
        <ele>35.200000762939</ele>
        <time>2016-08-08T18:39:40.000Z</time>
      </trkpt>
      <trkpt lat="48.83656" lon="2.38717">
        <ele>35.799999237061</ele>
        <time>2016-08-08T18:39:43.000Z</time>
      </trkpt>
      <trkpt lat="48.8364" lon="2.38693">
        <ele>36.200000762939</ele>
        <time>2016-08-08T18:39:46.000Z</time>
      </trkpt>
      <trkpt lat="48.83626" lon="2.38679">
        <ele>36.599998474121</ele>
        <time>2016-08-08T18:39:49.000Z</time>
      </trkpt>
      <trkpt lat="48.83614" lon="2.3867">
        <ele>36.799999237061</ele>
        <time>2016-08-08T18:39:52.000Z</time>
      </trkpt>
      <trkpt lat="48.83608" lon="2.38662">
        <ele>37</ele>
        <time>2016-08-08T18:39:54.000Z</time>
      </trkpt>
      <trkpt lat="48.83593" lon="2.38641">
        <ele>37.799999237061</ele>
        <time>2016-08-08T18:39:58.000Z</time>
      </trkpt>
      <trkpt lat="48.83578" lon="2.38619">
        <ele>38.799999237061</ele>
        <time>2016-08-08T18:40:02.000Z</time>
      </trkpt>
      <trkpt lat="48.83564" lon="2.38595">
        <ele>39.599998474121</ele>
        <time>2016-08-08T18:40:06.000Z</time>
      </trkpt>
      <trkpt lat="48.83547" lon="2.38569">
        <ele>40.599998474121</ele>
        <time>2016-08-08T18:40:10.000Z</time>
      </trkpt>
      <trkpt lat="48.83533" lon="2.38542">
        <ele>41.200000762939</ele>
        <time>2016-08-08T18:40:14.000Z</time>
      </trkpt>
      <trkpt lat="48.8352" lon="2.38521">
        <ele>41.599998474121</ele>
        <time>2016-08-08T18:40:17.000Z</time>
      </trkpt>
      <trkpt lat="48.83506" lon="2.38496">
        <ele>41.200000762939</ele>
        <time>2016-08-08T18:40:20.000Z</time>
      </trkpt>
      <trkpt lat="48.83492" lon="2.38468">
        <ele>39.200000762939</ele>
        <time>2016-08-08T18:40:23.000Z</time>
      </trkpt>
      <trkpt lat="48.83479" lon="2.38446">
        <ele>37.599998474121</ele>
        <time>2016-08-08T18:40:26.000Z</time>
      </trkpt>
      <trkpt lat="48.83464" lon="2.38421">
        <ele>36</ele>
        <time>2016-08-08T18:40:29.000Z</time>
      </trkpt>
      <trkpt lat="48.83449" lon="2.38393">
        <ele>35.799999237061</ele>
        <time>2016-08-08T18:40:32.000Z</time>
      </trkpt>
      <trkpt lat="48.83434" lon="2.38364">
        <ele>36</ele>
        <time>2016-08-08T18:40:35.000Z</time>
      </trkpt>
      <trkpt lat="48.8342" lon="2.38335">
        <ele>36.599998474121</ele>
        <time>2016-08-08T18:40:38.000Z</time>
      </trkpt>
      <trkpt lat="48.83408" lon="2.38307">
        <ele>35.400001525879</ele>
        <time>2016-08-08T18:40:41.000Z</time>
      </trkpt>
      <trkpt lat="48.83395" lon="2.38282">
        <ele>34.400001525879</ele>
        <time>2016-08-08T18:40:44.000Z</time>
      </trkpt>
      <trkpt lat="48.83388" lon="2.38267">
        <ele>33.599998474121</ele>
        <time>2016-08-08T18:40:46.000Z</time>
      </trkpt>
      <trkpt lat="48.83381" lon="2.38251">
        <ele>33.200000762939</ele>
        <time>2016-08-08T18:40:49.000Z</time>
      </trkpt>
      <trkpt lat="48.8338" lon="2.38239">
        <ele>32.799999237061</ele>
        <time>2016-08-08T18:40:52.000Z</time>
      </trkpt>
      <trkpt lat="48.8338" lon="2.3824">
        <ele>32.799999237061</ele>
        <time>2016-08-08T18:40:58.000Z</time>
      </trkpt>
      <trkpt lat="48.83379" lon="2.38239">
        <ele>32.599998474121</ele>
        <time>2016-08-08T18:40:59.000Z</time>
      </trkpt>
      <trkpt lat="48.83367" lon="2.38216">
        <ele>30.799999237061</ele>
        <time>2016-08-08T18:41:12.000Z</time>
      </trkpt>
      <trkpt lat="48.83353" lon="2.38197">
        <ele>29.39999961853</ele>
        <time>2016-08-08T18:41:19.000Z</time>
      </trkpt>
      <trkpt lat="48.8334" lon="2.38176">
        <ele>30.39999961853</ele>
        <time>2016-08-08T18:41:24.000Z</time>
      </trkpt>
      <trkpt lat="48.83327" lon="2.38152">
        <ele>30.39999961853</ele>
        <time>2016-08-08T18:41:29.000Z</time>
      </trkpt>
      <trkpt lat="48.83314" lon="2.38129">
        <ele>30</ele>
        <time>2016-08-08T18:41:34.000Z</time>
      </trkpt>
      <trkpt lat="48.83302" lon="2.38107">
        <ele>30</ele>
        <time>2016-08-08T18:41:39.000Z</time>
      </trkpt>
      <trkpt lat="48.83289" lon="2.38082">
        <ele>30.39999961853</ele>
        <time>2016-08-08T18:41:44.000Z</time>
      </trkpt>
      <trkpt lat="48.83274" lon="2.38056">
        <ele>34.200000762939</ele>
        <time>2016-08-08T18:41:49.000Z</time>
      </trkpt>
      <trkpt lat="48.83262" lon="2.38032">
        <ele>37.599998474121</ele>
        <time>2016-08-08T18:41:53.000Z</time>
      </trkpt>
      <trkpt lat="48.83249" lon="2.38008">
        <ele>41</ele>
        <time>2016-08-08T18:41:57.000Z</time>
      </trkpt>
      <trkpt lat="48.83237" lon="2.37986">
        <ele>43</ele>
        <time>2016-08-08T18:42:01.000Z</time>
      </trkpt>
      <trkpt lat="48.83231" lon="2.37971">
        <ele>43.799999237061</ele>
        <time>2016-08-08T18:42:48.000Z</time>
      </trkpt>
      <trkpt lat="48.83216" lon="2.37954">
        <ele>44.799999237061</ele>
        <time>2016-08-08T18:42:54.000Z</time>
      </trkpt>
      <trkpt lat="48.83204" lon="2.37933">
        <ele>46</ele>
        <time>2016-08-08T18:42:59.000Z</time>
      </trkpt>
      <trkpt lat="48.83191" lon="2.37911">
        <ele>46.799999237061</ele>
        <time>2016-08-08T18:43:04.000Z</time>
      </trkpt>
      <trkpt lat="48.83175" lon="2.37887">
        <ele>45.400001525879</ele>
        <time>2016-08-08T18:43:10.000Z</time>
      </trkpt>
      <trkpt lat="48.83162" lon="2.37858">
        <ele>43.599998474121</ele>
        <time>2016-08-08T18:43:14.000Z</time>
      </trkpt>
      <trkpt lat="48.83146" lon="2.37835">
        <ele>42</ele>
        <time>2016-08-08T18:43:18.000Z</time>
      </trkpt>
      <trkpt lat="48.83132" lon="2.37813">
        <ele>40.799999237061</ele>
        <time>2016-08-08T18:43:22.000Z</time>
      </trkpt>
      <trkpt lat="48.83125" lon="2.37801">
        <ele>40.200000762939</ele>
        <time>2016-08-08T18:43:25.000Z</time>
      </trkpt>
      <trkpt lat="48.83111" lon="2.37782">
        <ele>39</ele>
        <time>2016-08-08T18:43:30.000Z</time>
      </trkpt>
      <trkpt lat="48.83108" lon="2.37776">
        <ele>38.799999237061</ele>
        <time>2016-08-08T18:43:31.000Z</time>
      </trkpt>
      <trkpt lat="48.83096" lon="2.37753">
        <ele>38</ele>
        <time>2016-08-08T18:43:36.000Z</time>
      </trkpt>
      <trkpt lat="48.83083" lon="2.37736">
        <ele>38</ele>
        <time>2016-08-08T18:43:41.000Z</time>
      </trkpt>
      <trkpt lat="48.83069" lon="2.37716">
        <ele>38.400001525879</ele>
        <time>2016-08-08T18:43:50.000Z</time>
      </trkpt>
      <trkpt lat="48.83061" lon="2.37692">
        <ele>38.799999237061</ele>
        <time>2016-08-08T18:44:02.000Z</time>
      </trkpt>
      <trkpt lat="48.83052" lon="2.37667">
        <ele>39.400001525879</ele>
        <time>2016-08-08T18:44:13.000Z</time>
      </trkpt>
      <trkpt lat="48.83041" lon="2.37644">
        <ele>39</ele>
        <time>2016-08-08T18:44:20.000Z</time>
      </trkpt>
      <trkpt lat="48.83027" lon="2.37619">
        <ele>38.599998474121</ele>
        <time>2016-08-08T18:44:25.000Z</time>
      </trkpt>
      <trkpt lat="48.83016" lon="2.37594">
        <ele>38.400001525879</ele>
        <time>2016-08-08T18:44:29.000Z</time>
      </trkpt>
      <trkpt lat="48.83012" lon="2.37587">
        <ele>38.599998474121</ele>
        <time>2016-08-08T18:44:30.000Z</time>
      </trkpt>
      <trkpt lat="48.82995" lon="2.37562">
        <ele>40.400001525879</ele>
        <time>2016-08-08T18:44:34.000Z</time>
      </trkpt>
      <trkpt lat="48.82979" lon="2.37541">
        <ele>42.599998474121</ele>
        <time>2016-08-08T18:44:37.000Z</time>
      </trkpt>
      <trkpt lat="48.82962" lon="2.3752">
        <ele>44.599998474121</ele>
        <time>2016-08-08T18:44:40.000Z</time>
      </trkpt>
      <trkpt lat="48.82947" lon="2.37497">
        <ele>46.599998474121</ele>
        <time>2016-08-08T18:44:43.000Z</time>
      </trkpt>
      <trkpt lat="48.82933" lon="2.37474">
        <ele>49</ele>
        <time>2016-08-08T18:44:46.000Z</time>
      </trkpt>
      <trkpt lat="48.82923" lon="2.37454">
        <ele>50.599998474121</ele>
        <time>2016-08-08T18:44:48.000Z</time>
      </trkpt>
      <trkpt lat="48.82912" lon="2.37429">
        <ele>52.599998474121</ele>
        <time>2016-08-08T18:44:51.000Z</time>
      </trkpt>
      <trkpt lat="48.829" lon="2.37403">
        <ele>54</ele>
        <time>2016-08-08T18:44:54.000Z</time>
      </trkpt>
      <trkpt lat="48.82896" lon="2.37398">
        <ele>54</ele>
        <time>2016-08-08T18:44:55.000Z</time>
      </trkpt>
      <trkpt lat="48.82883" lon="2.37373">
        <ele>54.400001525879</ele>
        <time>2016-08-08T18:44:58.000Z</time>
      </trkpt>
      <trkpt lat="48.8287" lon="2.37352">
        <ele>54.799999237061</ele>
        <time>2016-08-08T18:45:01.000Z</time>
      </trkpt>
      <trkpt lat="48.82857" lon="2.37327">
        <ele>55</ele>
        <time>2016-08-08T18:45:04.000Z</time>
      </trkpt>
      <trkpt lat="48.82844" lon="2.37299">
        <ele>55</ele>
        <time>2016-08-08T18:45:08.000Z</time>
      </trkpt>
      <trkpt lat="48.8283" lon="2.37274">
        <ele>55.200000762939</ele>
        <time>2016-08-08T18:45:12.000Z</time>
      </trkpt>
      <trkpt lat="48.82817" lon="2.37246">
        <ele>55.400001525879</ele>
        <time>2016-08-08T18:45:16.000Z</time>
      </trkpt>
      <trkpt lat="48.82805" lon="2.37222">
        <ele>55.799999237061</ele>
        <time>2016-08-08T18:45:20.000Z</time>
      </trkpt>
      <trkpt lat="48.828" lon="2.37212">
        <ele>56</ele>
        <time>2016-08-08T18:45:22.000Z</time>
      </trkpt>
      <trkpt lat="48.82785" lon="2.37187">
        <ele>56.599998474121</ele>
        <time>2016-08-08T18:45:27.000Z</time>
      </trkpt>
      <trkpt lat="48.82772" lon="2.37165">
        <ele>57</ele>
        <time>2016-08-08T18:45:32.000Z</time>
      </trkpt>
      <trkpt lat="48.82772" lon="2.37161">
        <ele>57</ele>
        <time>2016-08-08T18:45:33.000Z</time>
      </trkpt>
      <trkpt lat="48.82777" lon="2.37131">
        <ele>56.799999237061</ele>
        <time>2016-08-08T18:45:52.000Z</time>
      </trkpt>
      <trkpt lat="48.82777" lon="2.37129">
        <ele>56.799999237061</ele>
        <time>2016-08-08T18:46:29.000Z</time>
      </trkpt>
      <trkpt lat="48.82774" lon="2.37123">
        <ele>57</ele>
        <time>2016-08-08T18:47:47.000Z</time>
      </trkpt>
      <trkpt lat="48.82779" lon="2.37119">
        <ele>56.599998474121</ele>
        <time>2016-08-08T18:48:32.000Z</time>
      </trkpt>
      <trkpt lat="48.82778" lon="2.37117">
        <ele>56.599998474121</ele>
        <time>2016-08-08T18:48:33.000Z</time>
      </trkpt>
      <trkpt lat="48.82776" lon="2.37087">
        <ele>56.799999237061</ele>
        <time>2016-08-08T18:48:42.000Z</time>
      </trkpt>
      <trkpt lat="48.8278" lon="2.37058">
        <ele>57.200000762939</ele>
        <time>2016-08-08T18:48:48.000Z</time>
      </trkpt>
      <trkpt lat="48.82786" lon="2.37025">
        <ele>57.599998474121</ele>
        <time>2016-08-08T18:48:53.000Z</time>
      </trkpt>
      <trkpt lat="48.82793" lon="2.36995">
        <ele>57.200000762939</ele>
        <time>2016-08-08T18:48:57.000Z</time>
      </trkpt>
      <trkpt lat="48.82798" lon="2.36965">
        <ele>57</ele>
        <time>2016-08-08T18:49:01.000Z</time>
      </trkpt>
      <trkpt lat="48.82796" lon="2.36933">
        <ele>57</ele>
        <time>2016-08-08T18:49:06.000Z</time>
      </trkpt>
      <trkpt lat="48.82802" lon="2.36924">
        <ele>56.599998474121</ele>
        <time>2016-08-08T18:49:08.000Z</time>
      </trkpt>
      <trkpt lat="48.82809" lon="2.36898">
        <ele>55.599998474121</ele>
        <time>2016-08-08T18:49:12.000Z</time>
      </trkpt>
      <trkpt lat="48.82812" lon="2.3687">
        <ele>54.599998474121</ele>
        <time>2016-08-08T18:49:16.000Z</time>
      </trkpt>
      <trkpt lat="48.82816" lon="2.36843">
        <ele>55.200000762939</ele>
        <time>2016-08-08T18:49:20.000Z</time>
      </trkpt>
      <trkpt lat="48.82825" lon="2.36812">
        <ele>54.599998474121</ele>
        <time>2016-08-08T18:49:25.000Z</time>
      </trkpt>
      <trkpt lat="48.82827" lon="2.36806">
        <ele>54.200000762939</ele>
        <time>2016-08-08T18:49:26.000Z</time>
      </trkpt>
      <trkpt lat="48.82829" lon="2.36792">
        <ele>53.400001525879</ele>
        <time>2016-08-08T18:49:28.000Z</time>
      </trkpt>
      <trkpt lat="48.82835" lon="2.36766">
        <ele>52.400001525879</ele>
        <time>2016-08-08T18:49:32.000Z</time>
      </trkpt>
      <trkpt lat="48.82833" lon="2.36753">
        <ele>51.599998474121</ele>
        <time>2016-08-08T18:49:34.000Z</time>
      </trkpt>
      <trkpt lat="48.82835" lon="2.36729">
        <ele>52</ele>
        <time>2016-08-08T18:49:38.000Z</time>
      </trkpt>
      <trkpt lat="48.82838" lon="2.36721">
        <ele>52.400001525879</ele>
        <time>2016-08-08T18:49:40.000Z</time>
      </trkpt>
      <trkpt lat="48.82843" lon="2.36704">
        <ele>53.200000762939</ele>
        <time>2016-08-08T18:50:07.000Z</time>
      </trkpt>
      <trkpt lat="48.82855" lon="2.36683">
        <ele>54.400001525879</ele>
        <time>2016-08-08T18:50:12.000Z</time>
      </trkpt>
      <trkpt lat="48.82866" lon="2.36653">
        <ele>54.200000762939</ele>
        <time>2016-08-08T18:50:17.000Z</time>
      </trkpt>
      <trkpt lat="48.82868" lon="2.36618">
        <ele>52.799999237061</ele>
        <time>2016-08-08T18:50:21.000Z</time>
      </trkpt>
      <trkpt lat="48.82879" lon="2.36594">
        <ele>52.200000762939</ele>
        <time>2016-08-08T18:50:24.000Z</time>
      </trkpt>
      <trkpt lat="48.8289" lon="2.36567">
        <ele>52</ele>
        <time>2016-08-08T18:50:28.000Z</time>
      </trkpt>
      <trkpt lat="48.82891" lon="2.36562">
        <ele>52</ele>
        <time>2016-08-08T18:50:29.000Z</time>
      </trkpt>
      <trkpt lat="48.82898" lon="2.36546">
        <ele>51.599998474121</ele>
        <time>2016-08-08T18:50:34.000Z</time>
      </trkpt>
      <trkpt lat="48.82916" lon="2.36534">
        <ele>52.400001525879</ele>
        <time>2016-08-08T18:50:38.000Z</time>
      </trkpt>
      <trkpt lat="48.82918" lon="2.36529">
        <ele>52.599998474121</ele>
        <time>2016-08-08T18:50:39.000Z</time>
      </trkpt>
      <trkpt lat="48.8292" lon="2.36523">
        <ele>52.799999237061</ele>
        <time>2016-08-08T18:50:40.000Z</time>
      </trkpt>
      <trkpt lat="48.82926" lon="2.36508">
        <ele>53.200000762939</ele>
        <time>2016-08-08T18:50:43.000Z</time>
      </trkpt>
      <trkpt lat="48.82934" lon="2.36481">
        <ele>54.200000762939</ele>
        <time>2016-08-08T18:50:47.000Z</time>
      </trkpt>
      <trkpt lat="48.82936" lon="2.36464">
        <ele>54.799999237061</ele>
        <time>2016-08-08T18:50:49.000Z</time>
      </trkpt>
      <trkpt lat="48.82943" lon="2.36444">
        <ele>55.200000762939</ele>
        <time>2016-08-08T18:50:52.000Z</time>
      </trkpt>
      <trkpt lat="48.82953" lon="2.36422">
        <ele>55.400001525879</ele>
        <time>2016-08-08T18:50:56.000Z</time>
      </trkpt>
      <trkpt lat="48.82962" lon="2.36394">
        <ele>54.599998474121</ele>
        <time>2016-08-08T18:51:00.000Z</time>
      </trkpt>
      <trkpt lat="48.8297" lon="2.36367">
        <ele>54</ele>
        <time>2016-08-08T18:51:04.000Z</time>
      </trkpt>
      <trkpt lat="48.82973" lon="2.36362">
        <ele>53.799999237061</ele>
        <time>2016-08-08T18:51:05.000Z</time>
      </trkpt>
      <trkpt lat="48.82987" lon="2.36338">
        <ele>54.799999237061</ele>
        <time>2016-08-08T18:51:09.000Z</time>
      </trkpt>
      <trkpt lat="48.82992" lon="2.36324">
        <ele>55</ele>
        <time>2016-08-08T18:51:11.000Z</time>
      </trkpt>
      <trkpt lat="48.83005" lon="2.36295">
        <ele>54.200000762939</ele>
        <time>2016-08-08T18:51:15.000Z</time>
      </trkpt>
      <trkpt lat="48.83017" lon="2.36269">
        <ele>52.799999237061</ele>
        <time>2016-08-08T18:51:19.000Z</time>
      </trkpt>
      <trkpt lat="48.83021" lon="2.36256">
        <ele>52.400001525879</ele>
        <time>2016-08-08T18:51:21.000Z</time>
      </trkpt>
      <trkpt lat="48.83032" lon="2.36231">
        <ele>51.799999237061</ele>
        <time>2016-08-08T18:51:25.000Z</time>
      </trkpt>
      <trkpt lat="48.83033" lon="2.36225">
        <ele>51.799999237061</ele>
        <time>2016-08-08T18:51:26.000Z</time>
      </trkpt>
      <trkpt lat="48.83036" lon="2.36207">
        <ele>51.799999237061</ele>
        <time>2016-08-08T18:51:29.000Z</time>
      </trkpt>
      <trkpt lat="48.83048" lon="2.36184">
        <ele>51.599998474121</ele>
        <time>2016-08-08T18:51:34.000Z</time>
      </trkpt>
      <trkpt lat="48.8306" lon="2.36159">
        <ele>50.799999237061</ele>
        <time>2016-08-08T18:51:38.000Z</time>
      </trkpt>
      <trkpt lat="48.83072" lon="2.36142">
        <ele>51</ele>
        <time>2016-08-08T18:51:41.000Z</time>
      </trkpt>
      <trkpt lat="48.83089" lon="2.3612">
        <ele>50.799999237061</ele>
        <time>2016-08-08T18:51:45.000Z</time>
      </trkpt>
      <trkpt lat="48.83105" lon="2.36099">
        <ele>50.599998474121</ele>
        <time>2016-08-08T18:51:49.000Z</time>
      </trkpt>
      <trkpt lat="48.83124" lon="2.36083">
        <ele>51.200000762939</ele>
        <time>2016-08-08T18:51:53.000Z</time>
      </trkpt>
      <trkpt lat="48.83139" lon="2.36064">
        <ele>53.200000762939</ele>
        <time>2016-08-08T18:51:57.000Z</time>
      </trkpt>
      <trkpt lat="48.83156" lon="2.36046">
        <ele>55.200000762939</ele>
        <time>2016-08-08T18:52:02.000Z</time>
      </trkpt>
      <trkpt lat="48.83169" lon="2.36025">
        <ele>54.799999237061</ele>
        <time>2016-08-08T18:52:06.000Z</time>
      </trkpt>
      <trkpt lat="48.83185" lon="2.36003">
        <ele>54.200000762939</ele>
        <time>2016-08-08T18:52:11.000Z</time>
      </trkpt>
      <trkpt lat="48.8319" lon="2.35994">
        <ele>54.200000762939</ele>
        <time>2016-08-08T18:52:14.000Z</time>
      </trkpt>
      <trkpt lat="48.83182" lon="2.35973">
        <ele>55.799999237061</ele>
        <time>2016-08-08T18:52:21.000Z</time>
      </trkpt>
      <trkpt lat="48.83179" lon="2.35965">
        <ele>56.400001525879</ele>
        <time>2016-08-08T18:52:23.000Z</time>
      </trkpt>
      <trkpt lat="48.83172" lon="2.3594">
        <ele>58.400001525879</ele>
        <time>2016-08-08T18:52:32.000Z</time>
      </trkpt>
      <trkpt lat="48.83163" lon="2.35911">
        <ele>60.400001525879</ele>
        <time>2016-08-08T18:52:40.000Z</time>
      </trkpt>
      <trkpt lat="48.83155" lon="2.35887">
        <ele>60.599998474121</ele>
        <time>2016-08-08T18:52:45.000Z</time>
      </trkpt>
      <trkpt lat="48.83145" lon="2.35859">
        <ele>61.599998474121</ele>
        <time>2016-08-08T18:52:50.000Z</time>
      </trkpt>
      <trkpt lat="48.83135" lon="2.35834">
        <ele>63.200000762939</ele>
        <time>2016-08-08T18:52:55.000Z</time>
      </trkpt>
      <trkpt lat="48.83127" lon="2.35809">
        <ele>64.199996948242</ele>
        <time>2016-08-08T18:52:59.000Z</time>
      </trkpt>
      <trkpt lat="48.83119" lon="2.35784">
        <ele>65.400001525879</ele>
        <time>2016-08-08T18:53:03.000Z</time>
      </trkpt>
      <trkpt lat="48.8311" lon="2.35757">
        <ele>66.599998474121</ele>
        <time>2016-08-08T18:53:07.000Z</time>
      </trkpt>
      <trkpt lat="48.83108" lon="2.35752">
        <ele>66.800003051758</ele>
        <time>2016-08-08T18:53:08.000Z</time>
      </trkpt>
      <trkpt lat="48.831" lon="2.3573">
        <ele>66.800003051758</ele>
        <time>2016-08-08T18:53:13.000Z</time>
      </trkpt>
      <trkpt lat="48.83091" lon="2.35702">
        <ele>66.400001525879</ele>
        <time>2016-08-08T18:53:19.000Z</time>
      </trkpt>
      <trkpt lat="48.83086" lon="2.35673">
        <ele>65.800003051758</ele>
        <time>2016-08-08T18:53:25.000Z</time>
      </trkpt>
      <trkpt lat="48.83087" lon="2.35667">
        <ele>65.400001525879</ele>
        <time>2016-08-08T18:53:27.000Z</time>
      </trkpt>
      <trkpt lat="48.83105" lon="2.35658">
        <ele>64</ele>
        <time>2016-08-08T18:53:35.000Z</time>
      </trkpt>
      <trkpt lat="48.83117" lon="2.35654">
        <ele>63.799999237061</ele>
        <time>2016-08-08T18:53:39.000Z</time>
      </trkpt>
      <trkpt lat="48.83121" lon="2.35658">
        <ele>63.799999237061</ele>
        <time>2016-08-08T18:53:43.000Z</time>
      </trkpt>
      <trkpt lat="48.83124" lon="2.35661">
        <ele>63.799999237061</ele>
        <time>2016-08-08T18:53:45.000Z</time>
      </trkpt>
      <trkpt lat="48.83132" lon="2.35652">
        <ele>63.599998474121</ele>
        <time>2016-08-08T18:54:17.000Z</time>
      </trkpt>
      <trkpt lat="48.8315" lon="2.3565">
        <ele>63.200000762939</ele>
        <time>2016-08-08T18:54:33.000Z</time>
      </trkpt>
      <trkpt lat="48.8317" lon="2.35643">
        <ele>62.799999237061</ele>
        <time>2016-08-08T18:54:40.000Z</time>
      </trkpt>
      <trkpt lat="48.83185" lon="2.35627">
        <ele>61.799999237061</ele>
        <time>2016-08-08T18:54:46.000Z</time>
      </trkpt>
      <trkpt lat="48.83196" lon="2.35617">
        <ele>61.200000762939</ele>
        <time>2016-08-08T18:54:52.000Z</time>
      </trkpt>
      <trkpt lat="48.83209" lon="2.35618">
        <ele>61.400001525879</ele>
        <time>2016-08-08T18:54:59.000Z</time>
      </trkpt>
      <trkpt lat="48.83212" lon="2.35606">
        <ele>61</ele>
        <time>2016-08-08T18:55:05.000Z</time>
      </trkpt>
      <trkpt lat="48.83217" lon="2.35582">
        <ele>61</ele>
        <time>2016-08-08T18:55:13.000Z</time>
      </trkpt>
      <trkpt lat="48.83224" lon="2.35567">
        <ele>61.400001525879</ele>
        <time>2016-08-08T18:56:01.000Z</time>
      </trkpt>
      <trkpt lat="48.83222" lon="2.3554">
        <ele>61.599998474121</ele>
        <time>2016-08-08T18:56:07.000Z</time>
      </trkpt>
      <trkpt lat="48.8322" lon="2.35512">
        <ele>61.799999237061</ele>
        <time>2016-08-08T18:56:14.000Z</time>
      </trkpt>
      <trkpt lat="48.8321" lon="2.35486">
        <ele>62</ele>
        <time>2016-08-08T18:56:19.000Z</time>
      </trkpt>
      <trkpt lat="48.83195" lon="2.35463">
        <ele>62.400001525879</ele>
        <time>2016-08-08T18:56:24.000Z</time>
      </trkpt>
      <trkpt lat="48.83181" lon="2.35442">
        <ele>63.200000762939</ele>
        <time>2016-08-08T18:56:29.000Z</time>
      </trkpt>
      <trkpt lat="48.83162" lon="2.35429">
        <ele>63.799999237061</ele>
        <time>2016-08-08T18:56:35.000Z</time>
      </trkpt>
      <trkpt lat="48.83142" lon="2.35428">
        <ele>64</ele>
        <time>2016-08-08T18:56:41.000Z</time>
      </trkpt>
      <trkpt lat="48.83136" lon="2.35429">
        <ele>64.199996948242</ele>
        <time>2016-08-08T18:56:44.000Z</time>
      </trkpt>
      <trkpt lat="48.8312" lon="2.35421">
        <ele>64.599998474121</ele>
        <time>2016-08-08T18:57:12.000Z</time>
      </trkpt>
      <trkpt lat="48.8311" lon="2.35398">
        <ele>64.599998474121</ele>
        <time>2016-08-08T18:57:17.000Z</time>
      </trkpt>
      <trkpt lat="48.831" lon="2.35371">
        <ele>64.199996948242</ele>
        <time>2016-08-08T18:57:22.000Z</time>
      </trkpt>
      <trkpt lat="48.83093" lon="2.35344">
        <ele>63.799999237061</ele>
        <time>2016-08-08T18:57:26.000Z</time>
      </trkpt>
      <trkpt lat="48.83083" lon="2.35317">
        <ele>63.599998474121</ele>
        <time>2016-08-08T18:57:31.000Z</time>
      </trkpt>
      <trkpt lat="48.83074" lon="2.35292">
        <ele>63.200000762939</ele>
        <time>2016-08-08T18:57:36.000Z</time>
      </trkpt>
      <trkpt lat="48.83064" lon="2.35267">
        <ele>62.599998474121</ele>
        <time>2016-08-08T18:57:40.000Z</time>
      </trkpt>
      <trkpt lat="48.83053" lon="2.35239">
        <ele>62.200000762939</ele>
        <time>2016-08-08T18:57:44.000Z</time>
      </trkpt>
      <trkpt lat="48.83045" lon="2.35213">
        <ele>61.200000762939</ele>
        <time>2016-08-08T18:57:47.000Z</time>
      </trkpt>
      <trkpt lat="48.83035" lon="2.35182">
        <ele>60.200000762939</ele>
        <time>2016-08-08T18:57:50.000Z</time>
      </trkpt>
      <trkpt lat="48.83024" lon="2.3515">
        <ele>60</ele>
        <time>2016-08-08T18:57:53.000Z</time>
      </trkpt>
      <trkpt lat="48.83012" lon="2.35117">
        <ele>60.599998474121</ele>
        <time>2016-08-08T18:57:56.000Z</time>
      </trkpt>
      <trkpt lat="48.83001" lon="2.3508">
        <ele>61.200000762939</ele>
        <time>2016-08-08T18:57:59.000Z</time>
      </trkpt>
      <trkpt lat="48.82991" lon="2.35045">
        <ele>60.599998474121</ele>
        <time>2016-08-08T18:58:02.000Z</time>
      </trkpt>
      <trkpt lat="48.82982" lon="2.35011">
        <ele>60</ele>
        <time>2016-08-08T18:58:05.000Z</time>
      </trkpt>
      <trkpt lat="48.82973" lon="2.34975">
        <ele>58.400001525879</ele>
        <time>2016-08-08T18:58:08.000Z</time>
      </trkpt>
      <trkpt lat="48.82969" lon="2.34936">
        <ele>55.799999237061</ele>
        <time>2016-08-08T18:58:11.000Z</time>
      </trkpt>
      <trkpt lat="48.82969" lon="2.3491">
        <ele>54.200000762939</ele>
        <time>2016-08-08T18:58:13.000Z</time>
      </trkpt>
      <trkpt lat="48.82977" lon="2.34872">
        <ele>53.200000762939</ele>
        <time>2016-08-08T18:58:16.000Z</time>
      </trkpt>
      <trkpt lat="48.82987" lon="2.34847">
        <ele>52</ele>
        <time>2016-08-08T18:58:18.000Z</time>
      </trkpt>
      <trkpt lat="48.82996" lon="2.34821">
        <ele>50.799999237061</ele>
        <time>2016-08-08T18:58:20.000Z</time>
      </trkpt>
      <trkpt lat="48.83003" lon="2.34793">
        <ele>50.400001525879</ele>
        <time>2016-08-08T18:58:22.000Z</time>
      </trkpt>
      <trkpt lat="48.8301" lon="2.34766">
        <ele>49.799999237061</ele>
        <time>2016-08-08T18:58:24.000Z</time>
      </trkpt>
      <trkpt lat="48.83016" lon="2.34739">
        <ele>49.400001525879</ele>
        <time>2016-08-08T18:58:26.000Z</time>
      </trkpt>
      <trkpt lat="48.83026" lon="2.34703">
        <ele>50</ele>
        <time>2016-08-08T18:58:29.000Z</time>
      </trkpt>
      <trkpt lat="48.83035" lon="2.34669">
        <ele>50.400001525879</ele>
        <time>2016-08-08T18:58:32.000Z</time>
      </trkpt>
      <trkpt lat="48.83044" lon="2.34635">
        <ele>49.200000762939</ele>
        <time>2016-08-08T18:58:35.000Z</time>
      </trkpt>
      <trkpt lat="48.83054" lon="2.34605">
        <ele>47.799999237061</ele>
        <time>2016-08-08T18:58:38.000Z</time>
      </trkpt>
      <trkpt lat="48.83064" lon="2.34577">
        <ele>46.400001525879</ele>
        <time>2016-08-08T18:58:42.000Z</time>
      </trkpt>
      <trkpt lat="48.83073" lon="2.3455">
        <ele>44.599998474121</ele>
        <time>2016-08-08T18:58:46.000Z</time>
      </trkpt>
      <trkpt lat="48.83084" lon="2.34519">
        <ele>45.599998474121</ele>
        <time>2016-08-08T18:58:50.000Z</time>
      </trkpt>
      <trkpt lat="48.83094" lon="2.34494">
        <ele>46.599998474121</ele>
        <time>2016-08-08T18:58:53.000Z</time>
      </trkpt>
      <trkpt lat="48.83103" lon="2.34467">
        <ele>47.599998474121</ele>
        <time>2016-08-08T18:58:56.000Z</time>
      </trkpt>
      <trkpt lat="48.83112" lon="2.34437">
        <ele>48.599998474121</ele>
        <time>2016-08-08T18:58:59.000Z</time>
      </trkpt>
      <trkpt lat="48.8312" lon="2.34409">
        <ele>49</ele>
        <time>2016-08-08T18:59:02.000Z</time>
      </trkpt>
      <trkpt lat="48.83125" lon="2.3439">
        <ele>48.799999237061</ele>
        <time>2016-08-08T18:59:04.000Z</time>
      </trkpt>
      <trkpt lat="48.83133" lon="2.34362">
        <ele>48.400001525879</ele>
        <time>2016-08-08T18:59:07.000Z</time>
      </trkpt>
      <trkpt lat="48.83141" lon="2.34333">
        <ele>48.400001525879</ele>
        <time>2016-08-08T18:59:10.000Z</time>
      </trkpt>
      <trkpt lat="48.8315" lon="2.34305">
        <ele>48.799999237061</ele>
        <time>2016-08-08T18:59:13.000Z</time>
      </trkpt>
      <trkpt lat="48.83155" lon="2.34285">
        <ele>49.200000762939</ele>
        <time>2016-08-08T18:59:15.000Z</time>
      </trkpt>
      <trkpt lat="48.83164" lon="2.34257">
        <ele>49.599998474121</ele>
        <time>2016-08-08T18:59:18.000Z</time>
      </trkpt>
      <trkpt lat="48.83174" lon="2.34229">
        <ele>50.400001525879</ele>
        <time>2016-08-08T18:59:21.000Z</time>
      </trkpt>
      <trkpt lat="48.8318" lon="2.342">
        <ele>50.200000762939</ele>
        <time>2016-08-08T18:59:24.000Z</time>
      </trkpt>
      <trkpt lat="48.83187" lon="2.3417">
        <ele>50</ele>
        <time>2016-08-08T18:59:27.000Z</time>
      </trkpt>
      <trkpt lat="48.83189" lon="2.34161">
        <ele>50.200000762939</ele>
        <time>2016-08-08T18:59:28.000Z</time>
      </trkpt>
      <trkpt lat="48.83197" lon="2.3413">
        <ele>51</ele>
        <time>2016-08-08T18:59:31.000Z</time>
      </trkpt>
      <trkpt lat="48.83205" lon="2.34103">
        <ele>51.799999237061</ele>
        <time>2016-08-08T18:59:34.000Z</time>
      </trkpt>
      <trkpt lat="48.83212" lon="2.34075">
        <ele>52.799999237061</ele>
        <time>2016-08-08T18:59:37.000Z</time>
      </trkpt>
      <trkpt lat="48.8322" lon="2.34047">
        <ele>54.599998474121</ele>
        <time>2016-08-08T18:59:40.000Z</time>
      </trkpt>
      <trkpt lat="48.83227" lon="2.3402">
        <ele>56</ele>
        <time>2016-08-08T18:59:43.000Z</time>
      </trkpt>
      <trkpt lat="48.83234" lon="2.33992">
        <ele>57</ele>
        <time>2016-08-08T18:59:46.000Z</time>
      </trkpt>
      <trkpt lat="48.83236" lon="2.33983">
        <ele>57.200000762939</ele>
        <time>2016-08-08T18:59:47.000Z</time>
      </trkpt>
      <trkpt lat="48.83243" lon="2.33957">
        <ele>57.400001525879</ele>
        <time>2016-08-08T18:59:50.000Z</time>
      </trkpt>
      <trkpt lat="48.83251" lon="2.33931">
        <ele>56.799999237061</ele>
        <time>2016-08-08T18:59:53.000Z</time>
      </trkpt>
      <trkpt lat="48.83262" lon="2.33899">
        <ele>55.599998474121</ele>
        <time>2016-08-08T18:59:57.000Z</time>
      </trkpt>
      <trkpt lat="48.83264" lon="2.3389">
        <ele>55.799999237061</ele>
        <time>2016-08-08T18:59:58.000Z</time>
      </trkpt>
      <trkpt lat="48.8327" lon="2.33863">
        <ele>56.200000762939</ele>
        <time>2016-08-08T19:00:01.000Z</time>
      </trkpt>
      <trkpt lat="48.83275" lon="2.33847">
        <ele>56.599998474121</ele>
        <time>2016-08-08T19:00:03.000Z</time>
      </trkpt>
      <trkpt lat="48.83285" lon="2.33824">
        <ele>57.400001525879</ele>
        <time>2016-08-08T19:00:06.000Z</time>
      </trkpt>
      <trkpt lat="48.83289" lon="2.33809">
        <ele>57.799999237061</ele>
        <time>2016-08-08T19:00:08.000Z</time>
      </trkpt>
      <trkpt lat="48.833" lon="2.3378">
        <ele>58.599998474121</ele>
        <time>2016-08-08T19:00:12.000Z</time>
      </trkpt>
      <trkpt lat="48.83301" lon="2.33772">
        <ele>58.799999237061</ele>
        <time>2016-08-08T19:00:13.000Z</time>
      </trkpt>
      <trkpt lat="48.83304" lon="2.33748">
        <ele>59.799999237061</ele>
        <time>2016-08-08T19:00:16.000Z</time>
      </trkpt>
      <trkpt lat="48.83307" lon="2.33718">
        <ele>61.200000762939</ele>
        <time>2016-08-08T19:00:20.000Z</time>
      </trkpt>
      <trkpt lat="48.83307" lon="2.33709">
        <ele>61.599998474121</ele>
        <time>2016-08-08T19:00:21.000Z</time>
      </trkpt>
      <trkpt lat="48.83312" lon="2.33689">
        <ele>62.400001525879</ele>
        <time>2016-08-08T19:00:24.000Z</time>
      </trkpt>
      <trkpt lat="48.83317" lon="2.33665">
        <ele>63</ele>
        <time>2016-08-08T19:00:28.000Z</time>
      </trkpt>
      <trkpt lat="48.83322" lon="2.33634">
        <ele>64</ele>
        <time>2016-08-08T19:00:34.000Z</time>
      </trkpt>
      <trkpt lat="48.8333" lon="2.33609">
        <ele>63.599998474121</ele>
        <time>2016-08-08T19:00:41.000Z</time>
      </trkpt>
      <trkpt lat="48.83334" lon="2.33603">
        <ele>63.200000762939</ele>
        <time>2016-08-08T19:00:46.000Z</time>
      </trkpt>
      <trkpt lat="48.83339" lon="2.33605">
        <ele>63</ele>
        <time>2016-08-08T19:02:11.000Z</time>
      </trkpt>
      <trkpt lat="48.83344" lon="2.33581">
        <ele>62.599998474121</ele>
        <time>2016-08-08T19:02:25.000Z</time>
      </trkpt>
      <trkpt lat="48.8335" lon="2.33554">
        <ele>62.200000762939</ele>
        <time>2016-08-08T19:02:30.000Z</time>
      </trkpt>
      <trkpt lat="48.83357" lon="2.33526">
        <ele>62</ele>
        <time>2016-08-08T19:02:35.000Z</time>
      </trkpt>
      <trkpt lat="48.83366" lon="2.33497">
        <ele>62.400001525879</ele>
        <time>2016-08-08T19:02:40.000Z</time>
      </trkpt>
      <trkpt lat="48.83375" lon="2.3347">
        <ele>63</ele>
        <time>2016-08-08T19:02:45.000Z</time>
      </trkpt>
      <trkpt lat="48.83382" lon="2.33439">
        <ele>63.599998474121</ele>
        <time>2016-08-08T19:02:51.000Z</time>
      </trkpt>
      <trkpt lat="48.83388" lon="2.3341">
        <ele>64.400001525879</ele>
        <time>2016-08-08T19:02:57.000Z</time>
      </trkpt>
      <trkpt lat="48.83397" lon="2.33385">
        <ele>64.599998474121</ele>
        <time>2016-08-08T19:03:02.000Z</time>
      </trkpt>
      <trkpt lat="48.83406" lon="2.33361">
        <ele>65.199996948242</ele>
        <time>2016-08-08T19:03:08.000Z</time>
      </trkpt>
      <trkpt lat="48.83412" lon="2.33342">
        <ele>66</ele>
        <time>2016-08-08T19:03:17.000Z</time>
      </trkpt>
      <trkpt lat="48.83423" lon="2.3332">
        <ele>67.199996948242</ele>
        <time>2016-08-08T19:03:26.000Z</time>
      </trkpt>
      <trkpt lat="48.8343" lon="2.33309">
        <ele>67.400001525879</ele>
        <time>2016-08-08T19:03:31.000Z</time>
      </trkpt>
      <trkpt lat="48.83432" lon="2.33308">
        <ele>67.400001525879</ele>
        <time>2016-08-08T19:03:32.000Z</time>
      </trkpt>
      <trkpt lat="48.83424" lon="2.33282">
        <ele>66.800003051758</ele>
        <time>2016-08-08T19:03:39.000Z</time>
      </trkpt>
      <trkpt lat="48.83419" lon="2.33267">
        <ele>66.599998474121</ele>
        <time>2016-08-08T19:03:45.000Z</time>
      </trkpt>
      <trkpt lat="48.83404" lon="2.33246">
        <ele>65.800003051758</ele>
        <time>2016-08-08T19:03:56.000Z</time>
      </trkpt>
      <trkpt lat="48.83389" lon="2.33232">
        <ele>66.400001525879</ele>
        <time>2016-08-08T19:04:03.000Z</time>
      </trkpt>
      <trkpt lat="48.83377" lon="2.33221">
        <ele>66.599998474121</ele>
        <time>2016-08-08T19:04:08.000Z</time>
      </trkpt>
      <trkpt lat="48.83361" lon="2.33217">
        <ele>66.400001525879</ele>
        <time>2016-08-08T19:04:16.000Z</time>
      </trkpt>
      <trkpt lat="48.83361" lon="2.33219">
        <ele>66.199996948242</ele>
        <time>2016-08-08T19:04:17.000Z</time>
      </trkpt>
      <trkpt lat="48.83358" lon="2.33209">
        <ele>66.800003051758</ele>
        <time>2016-08-08T19:05:20.000Z</time>
      </trkpt>
      <trkpt lat="48.83359" lon="2.33209">
        <ele>66.800003051758</ele>
        <time>2016-08-08T19:05:21.000Z</time>
      </trkpt>
      <trkpt lat="48.8335" lon="2.33185">
        <ele>68.400001525879</ele>
        <time>2016-08-08T19:05:39.000Z</time>
      </trkpt>
      <trkpt lat="48.83346" lon="2.33167">
        <ele>69.599998474121</ele>
        <time>2016-08-08T19:05:46.000Z</time>
      </trkpt>
      <trkpt lat="48.83331" lon="2.33146">
        <ele>70.199996948242</ele>
        <time>2016-08-08T19:05:53.000Z</time>
      </trkpt>
      <trkpt lat="48.83327" lon="2.33144">
        <ele>70.199996948242</ele>
        <time>2016-08-08T19:05:54.000Z</time>
      </trkpt>
      <trkpt lat="48.8331" lon="2.33131">
        <ele>70.199996948242</ele>
        <time>2016-08-08T19:06:00.000Z</time>
      </trkpt>
      <trkpt lat="48.83292" lon="2.33114">
        <ele>70.400001525879</ele>
        <time>2016-08-08T19:06:07.000Z</time>
      </trkpt>
      <trkpt lat="48.83273" lon="2.33101">
        <ele>70.599998474121</ele>
        <time>2016-08-08T19:06:13.000Z</time>
      </trkpt>
      <trkpt lat="48.83257" lon="2.33088">
        <ele>70</ele>
        <time>2016-08-08T19:06:18.000Z</time>
      </trkpt>
      <trkpt lat="48.83238" lon="2.33074">
        <ele>69.800003051758</ele>
        <time>2016-08-08T19:06:24.000Z</time>
      </trkpt>
      <trkpt lat="48.83235" lon="2.33048">
        <ele>71.199996948242</ele>
        <time>2016-08-08T19:06:30.000Z</time>
      </trkpt>
      <trkpt lat="48.83245" lon="2.33023">
        <ele>72.800003051758</ele>
        <time>2016-08-08T19:06:36.000Z</time>
      </trkpt>
      <trkpt lat="48.83249" lon="2.32996">
        <ele>74.199996948242</ele>
        <time>2016-08-08T19:06:42.000Z</time>
      </trkpt>
      <trkpt lat="48.8326" lon="2.32971">
        <ele>74.599998474121</ele>
        <time>2016-08-08T19:06:48.000Z</time>
      </trkpt>
      <trkpt lat="48.83273" lon="2.32946">
        <ele>74.400001525879</ele>
        <time>2016-08-08T19:06:54.000Z</time>
      </trkpt>
      <trkpt lat="48.83283" lon="2.32918">
        <ele>73.400001525879</ele>
        <time>2016-08-08T19:07:00.000Z</time>
      </trkpt>
      <trkpt lat="48.83291" lon="2.32888">
        <ele>71.800003051758</ele>
        <time>2016-08-08T19:07:06.000Z</time>
      </trkpt>
      <trkpt lat="48.83296" lon="2.32859">
        <ele>70.199996948242</ele>
        <time>2016-08-08T19:07:12.000Z</time>
      </trkpt>
      <trkpt lat="48.83296" lon="2.32829">
        <ele>69.800003051758</ele>
        <time>2016-08-08T19:07:18.000Z</time>
      </trkpt>
      <trkpt lat="48.83296" lon="2.32824">
        <ele>69.800003051758</ele>
        <time>2016-08-08T19:07:19.000Z</time>
      </trkpt>
      <trkpt lat="48.83303" lon="2.32794">
        <ele>69.599998474121</ele>
        <time>2016-08-08T19:07:25.000Z</time>
      </trkpt>
      <trkpt lat="48.83305" lon="2.32777">
        <ele>69.800003051758</ele>
        <time>2016-08-08T19:07:29.000Z</time>
      </trkpt>
      <trkpt lat="48.833" lon="2.32767">
        <ele>70</ele>
        <time>2016-08-08T19:07:33.000Z</time>
      </trkpt>
      <trkpt lat="48.83288" lon="2.32749">
        <ele>70.400001525879</ele>
        <time>2016-08-08T19:07:39.000Z</time>
      </trkpt>
      <trkpt lat="48.83288" lon="2.3272">
        <ele>69.400001525879</ele>
        <time>2016-08-08T19:07:46.000Z</time>
      </trkpt>
      <trkpt lat="48.83282" lon="2.32689">
        <ele>68.199996948242</ele>
        <time>2016-08-08T19:07:54.000Z</time>
      </trkpt>
      <trkpt lat="48.83282" lon="2.32688">
        <ele>68</ele>
        <time>2016-08-08T19:07:56.000Z</time>
      </trkpt>
      <trkpt lat="48.83289" lon="2.32688">
        <ele>68.199996948242</ele>
        <time>2016-08-08T19:08:46.000Z</time>
      </trkpt>
      <trkpt lat="48.83297" lon="2.32678">
        <ele>68.199996948242</ele>
        <time>2016-08-08T19:09:31.000Z</time>
      </trkpt>
      <trkpt lat="48.83297" lon="2.32673">
        <ele>68.199996948242</ele>
        <time>2016-08-08T19:09:33.000Z</time>
      </trkpt>
      <trkpt lat="48.83301" lon="2.32645">
        <ele>67.400001525879</ele>
        <time>2016-08-08T19:09:42.000Z</time>
      </trkpt>
      <trkpt lat="48.83294" lon="2.3262">
        <ele>66.199996948242</ele>
        <time>2016-08-08T19:09:51.000Z</time>
      </trkpt>
      <trkpt lat="48.83279" lon="2.32604">
        <ele>65</ele>
        <time>2016-08-08T19:09:58.000Z</time>
      </trkpt>
      <trkpt lat="48.83261" lon="2.32592">
        <ele>65.199996948242</ele>
        <time>2016-08-08T19:10:05.000Z</time>
      </trkpt>
      <trkpt lat="48.83256" lon="2.32567">
        <ele>65.199996948242</ele>
        <time>2016-08-08T19:10:12.000Z</time>
      </trkpt>
      <trkpt lat="48.83262" lon="2.3254">
        <ele>67</ele>
        <time>2016-08-08T19:10:18.000Z</time>
      </trkpt>
      <trkpt lat="48.8327" lon="2.32512">
        <ele>69</ele>
        <time>2016-08-08T19:10:25.000Z</time>
      </trkpt>
      <trkpt lat="48.8328" lon="2.32486">
        <ele>70.400001525879</ele>
        <time>2016-08-08T19:10:32.000Z</time>
      </trkpt>
      <trkpt lat="48.83285" lon="2.32458">
        <ele>71</ele>
        <time>2016-08-08T19:10:37.000Z</time>
      </trkpt>
      <trkpt lat="48.83296" lon="2.32431">
        <ele>71.800003051758</ele>
        <time>2016-08-08T19:10:42.000Z</time>
      </trkpt>
      <trkpt lat="48.83308" lon="2.32406">
        <ele>71.599998474121</ele>
        <time>2016-08-08T19:10:46.000Z</time>
      </trkpt>
      <trkpt lat="48.83318" lon="2.32379">
        <ele>71.400001525879</ele>
        <time>2016-08-08T19:10:50.000Z</time>
      </trkpt>
      <trkpt lat="48.8333" lon="2.32352">
        <ele>71.800003051758</ele>
        <time>2016-08-08T19:10:54.000Z</time>
      </trkpt>
      <trkpt lat="48.83337" lon="2.32319">
        <ele>72.199996948242</ele>
        <time>2016-08-08T19:10:58.000Z</time>
      </trkpt>
      <trkpt lat="48.83347" lon="2.32286">
        <ele>71.599998474121</ele>
        <time>2016-08-08T19:11:02.000Z</time>
      </trkpt>
      <trkpt lat="48.83357" lon="2.32258">
        <ele>71.199996948242</ele>
        <time>2016-08-08T19:11:06.000Z</time>
      </trkpt>
      <trkpt lat="48.83365" lon="2.32233">
        <ele>71</ele>
        <time>2016-08-08T19:11:09.000Z</time>
      </trkpt>
      <trkpt lat="48.83374" lon="2.32202">
        <ele>71</ele>
        <time>2016-08-08T19:11:13.000Z</time>
      </trkpt>
      <trkpt lat="48.83383" lon="2.32177">
        <ele>71</ele>
        <time>2016-08-08T19:11:17.000Z</time>
      </trkpt>
      <trkpt lat="48.83386" lon="2.32165">
        <ele>71</ele>
        <time>2016-08-08T19:11:21.000Z</time>
      </trkpt>
      <trkpt lat="48.83395" lon="2.32166">
        <ele>71</ele>
        <time>2016-08-08T19:11:48.000Z</time>
      </trkpt>
      <trkpt lat="48.83413" lon="2.3217">
        <ele>71</ele>
        <time>2016-08-08T19:11:57.000Z</time>
      </trkpt>
      <trkpt lat="48.83415" lon="2.32168">
        <ele>71</ele>
        <time>2016-08-08T19:11:58.000Z</time>
      </trkpt>
      <trkpt lat="48.83426" lon="2.32142">
        <ele>70.800003051758</ele>
        <time>2016-08-08T19:12:10.000Z</time>
      </trkpt>
      <trkpt lat="48.83436" lon="2.32118">
        <ele>69.599998474121</ele>
        <time>2016-08-08T19:12:16.000Z</time>
      </trkpt>
      <trkpt lat="48.83435" lon="2.32112">
        <ele>69.400001525879</ele>
        <time>2016-08-08T19:12:18.000Z</time>
      </trkpt>
      <trkpt lat="48.83427" lon="2.32101">
        <ele>69.400001525879</ele>
        <time>2016-08-08T19:12:22.000Z</time>
      </trkpt>
      <trkpt lat="48.83411" lon="2.32088">
        <ele>69.599998474121</ele>
        <time>2016-08-08T19:12:27.000Z</time>
      </trkpt>
      <trkpt lat="48.83394" lon="2.3207">
        <ele>69.599998474121</ele>
        <time>2016-08-08T19:12:32.000Z</time>
      </trkpt>
      <trkpt lat="48.83376" lon="2.32052">
        <ele>69.599998474121</ele>
        <time>2016-08-08T19:12:37.000Z</time>
      </trkpt>
      <trkpt lat="48.83368" lon="2.32028">
        <ele>69</ele>
        <time>2016-08-08T19:12:41.000Z</time>
      </trkpt>
      <trkpt lat="48.8336" lon="2.31997">
        <ele>68</ele>
        <time>2016-08-08T19:12:46.000Z</time>
      </trkpt>
      <trkpt lat="48.83352" lon="2.31974">
        <ele>68.199996948242</ele>
        <time>2016-08-08T19:12:53.000Z</time>
      </trkpt>
      <trkpt lat="48.83337" lon="2.31954">
        <ele>68.599998474121</ele>
        <time>2016-08-08T19:13:03.000Z</time>
      </trkpt>
      <trkpt lat="48.83331" lon="2.31935">
        <ele>68.800003051758</ele>
        <time>2016-08-08T19:13:08.000Z</time>
      </trkpt>
      <trkpt lat="48.83339" lon="2.31907">
        <ele>68.800003051758</ele>
        <time>2016-08-08T19:13:14.000Z</time>
      </trkpt>
      <trkpt lat="48.83347" lon="2.31881">
        <ele>69.400001525879</ele>
        <time>2016-08-08T19:13:18.000Z</time>
      </trkpt>
      <trkpt lat="48.8336" lon="2.31862">
        <ele>69.800003051758</ele>
        <time>2016-08-08T19:13:22.000Z</time>
      </trkpt>
      <trkpt lat="48.83377" lon="2.31847">
        <ele>70.199996948242</ele>
        <time>2016-08-08T19:13:26.000Z</time>
      </trkpt>
      <trkpt lat="48.83391" lon="2.3183">
        <ele>70.199996948242</ele>
        <time>2016-08-08T19:13:30.000Z</time>
      </trkpt>
      <trkpt lat="48.83398" lon="2.3181">
        <ele>69.800003051758</ele>
        <time>2016-08-08T19:13:36.000Z</time>
      </trkpt>
      <trkpt lat="48.83412" lon="2.31795">
        <ele>69.199996948242</ele>
        <time>2016-08-08T19:14:03.000Z</time>
      </trkpt>
      <trkpt lat="48.83428" lon="2.31777">
        <ele>68.599998474121</ele>
        <time>2016-08-08T19:14:09.000Z</time>
      </trkpt>
      <trkpt lat="48.83443" lon="2.31758">
        <ele>68.199996948242</ele>
        <time>2016-08-08T19:14:14.000Z</time>
      </trkpt>
      <trkpt lat="48.83454" lon="2.31734">
        <ele>68.400001525879</ele>
        <time>2016-08-08T19:14:18.000Z</time>
      </trkpt>
      <trkpt lat="48.83467" lon="2.31712">
        <ele>68.800003051758</ele>
        <time>2016-08-08T19:14:24.000Z</time>
      </trkpt>
      <trkpt lat="48.83474" lon="2.31693">
        <ele>68.800003051758</ele>
        <time>2016-08-08T19:14:30.000Z</time>
      </trkpt>
      <trkpt lat="48.83487" lon="2.31673">
        <ele>68</ele>
        <time>2016-08-08T19:14:37.000Z</time>
      </trkpt>
      <trkpt lat="48.835" lon="2.31653">
        <ele>67.400001525879</ele>
        <time>2016-08-08T19:14:41.000Z</time>
      </trkpt>
      <trkpt lat="48.83514" lon="2.31627">
        <ele>67.400001525879</ele>
        <time>2016-08-08T19:14:46.000Z</time>
      </trkpt>
      <trkpt lat="48.83528" lon="2.31601">
        <ele>67.599998474121</ele>
        <time>2016-08-08T19:14:51.000Z</time>
      </trkpt>
      <trkpt lat="48.83544" lon="2.31579">
        <ele>66.400001525879</ele>
        <time>2016-08-08T19:14:56.000Z</time>
      </trkpt>
      <trkpt lat="48.83555" lon="2.31556">
        <ele>65</ele>
        <time>2016-08-08T19:15:02.000Z</time>
      </trkpt>
      <trkpt lat="48.83557" lon="2.31552">
        <ele>64.800003051758</ele>
        <time>2016-08-08T19:15:05.000Z</time>
      </trkpt>
      <trkpt lat="48.83546" lon="2.31523">
        <ele>65</ele>
        <time>2016-08-08T19:15:32.000Z</time>
      </trkpt>
      <trkpt lat="48.83532" lon="2.31499">
        <ele>65.800003051758</ele>
        <time>2016-08-08T19:15:38.000Z</time>
      </trkpt>
      <trkpt lat="48.83515" lon="2.3148">
        <ele>66.400001525879</ele>
        <time>2016-08-08T19:15:42.000Z</time>
      </trkpt>
      <trkpt lat="48.83501" lon="2.31459">
        <ele>67</ele>
        <time>2016-08-08T19:15:46.000Z</time>
      </trkpt>
      <trkpt lat="48.83488" lon="2.31437">
        <ele>67.599998474121</ele>
        <time>2016-08-08T19:15:51.000Z</time>
      </trkpt>
      <trkpt lat="48.83479" lon="2.31412">
        <ele>68</ele>
        <time>2016-08-08T19:15:56.000Z</time>
      </trkpt>
      <trkpt lat="48.83454" lon="2.31394">
        <ele>69</ele>
        <time>2016-08-08T19:16:00.000Z</time>
      </trkpt>
      <trkpt lat="48.83446" lon="2.3137">
        <ele>69.199996948242</ele>
        <time>2016-08-08T19:16:06.000Z</time>
      </trkpt>
      <trkpt lat="48.83448" lon="2.31361">
        <ele>69</ele>
        <time>2016-08-08T19:16:08.000Z</time>
      </trkpt>
      <trkpt lat="48.83457" lon="2.31344">
        <ele>68.199996948242</ele>
        <time>2016-08-08T19:16:12.000Z</time>
      </trkpt>
      <trkpt lat="48.83471" lon="2.31323">
        <ele>66.800003051758</ele>
        <time>2016-08-08T19:16:17.000Z</time>
      </trkpt>
      <trkpt lat="48.83483" lon="2.31302">
        <ele>65</ele>
        <time>2016-08-08T19:16:22.000Z</time>
      </trkpt>
      <trkpt lat="48.83493" lon="2.31284">
        <ele>63.799999237061</ele>
        <time>2016-08-08T19:16:30.000Z</time>
      </trkpt>
      <trkpt lat="48.83523" lon="2.31252">
        <ele>61.200000762939</ele>
        <time>2016-08-08T19:16:37.000Z</time>
      </trkpt>
      <trkpt lat="48.83534" lon="2.3122">
        <ele>60.799999237061</ele>
        <time>2016-08-08T19:16:41.000Z</time>
      </trkpt>
      <trkpt lat="48.83541" lon="2.31192">
        <ele>60.599998474121</ele>
        <time>2016-08-08T19:16:45.000Z</time>
      </trkpt>
      <trkpt lat="48.83551" lon="2.31165">
        <ele>60.599998474121</ele>
        <time>2016-08-08T19:16:50.000Z</time>
      </trkpt>
      <trkpt lat="48.83564" lon="2.31141">
        <ele>61.400001525879</ele>
        <time>2016-08-08T19:16:56.000Z</time>
      </trkpt>
      <trkpt lat="48.83568" lon="2.31132">
        <ele>61.599998474121</ele>
        <time>2016-08-08T19:16:58.000Z</time>
      </trkpt>
      <trkpt lat="48.83576" lon="2.31112">
        <ele>62.200000762939</ele>
        <time>2016-08-08T19:17:02.000Z</time>
      </trkpt>
      <trkpt lat="48.83587" lon="2.31083">
        <ele>63.200000762939</ele>
        <time>2016-08-08T19:17:07.000Z</time>
      </trkpt>
      <trkpt lat="48.8359" lon="2.31077">
        <ele>63.200000762939</ele>
        <time>2016-08-08T19:17:08.000Z</time>
      </trkpt>
      <trkpt lat="48.83604" lon="2.31054">
        <ele>63.599998474121</ele>
        <time>2016-08-08T19:17:12.000Z</time>
      </trkpt>
      <trkpt lat="48.83612" lon="2.31044">
        <ele>63.599998474121</ele>
        <time>2016-08-08T19:17:14.000Z</time>
      </trkpt>
      <trkpt lat="48.83626" lon="2.31026">
        <ele>63.200000762939</ele>
        <time>2016-08-08T19:17:18.000Z</time>
      </trkpt>
      <trkpt lat="48.8364" lon="2.30999">
        <ele>63.599998474121</ele>
        <time>2016-08-08T19:17:23.000Z</time>
      </trkpt>
      <trkpt lat="48.83653" lon="2.30977">
        <ele>63.200000762939</ele>
        <time>2016-08-08T19:17:27.000Z</time>
      </trkpt>
      <trkpt lat="48.83666" lon="2.30953">
        <ele>63</ele>
        <time>2016-08-08T19:17:31.000Z</time>
      </trkpt>
      <trkpt lat="48.83682" lon="2.30932">
        <ele>63</ele>
        <time>2016-08-08T19:17:35.000Z</time>
      </trkpt>
      <trkpt lat="48.83698" lon="2.30907">
        <ele>62.400001525879</ele>
        <time>2016-08-08T19:17:39.000Z</time>
      </trkpt>
      <trkpt lat="48.83711" lon="2.30892">
        <ele>61.400001525879</ele>
        <time>2016-08-08T19:17:42.000Z</time>
      </trkpt>
      <trkpt lat="48.83727" lon="2.30866">
        <ele>60.200000762939</ele>
        <time>2016-08-08T19:17:46.000Z</time>
      </trkpt>
      <trkpt lat="48.8374" lon="2.30835">
        <ele>60.799999237061</ele>
        <time>2016-08-08T19:17:50.000Z</time>
      </trkpt>
      <trkpt lat="48.83748" lon="2.30812">
        <ele>60.200000762939</ele>
        <time>2016-08-08T19:17:53.000Z</time>
      </trkpt>
      <trkpt lat="48.83758" lon="2.30785">
        <ele>59.599998474121</ele>
        <time>2016-08-08T19:17:57.000Z</time>
      </trkpt>
      <trkpt lat="48.8376" lon="2.3078">
        <ele>59.400001525879</ele>
        <time>2016-08-08T19:17:58.000Z</time>
      </trkpt>
      <trkpt lat="48.83777" lon="2.30759">
        <ele>59.200000762939</ele>
        <time>2016-08-08T19:18:03.000Z</time>
      </trkpt>
      <trkpt lat="48.83793" lon="2.3074">
        <ele>59.200000762939</ele>
        <time>2016-08-08T19:18:07.000Z</time>
      </trkpt>
      <trkpt lat="48.83813" lon="2.30723">
        <ele>59.200000762939</ele>
        <time>2016-08-08T19:18:11.000Z</time>
      </trkpt>
      <trkpt lat="48.83832" lon="2.30708">
        <ele>58.400001525879</ele>
        <time>2016-08-08T19:18:15.000Z</time>
      </trkpt>
      <trkpt lat="48.83851" lon="2.30694">
        <ele>56.599998474121</ele>
        <time>2016-08-08T19:18:20.000Z</time>
      </trkpt>
      <trkpt lat="48.83862" lon="2.30669">
        <ele>54.200000762939</ele>
        <time>2016-08-08T19:18:25.000Z</time>
      </trkpt>
      <trkpt lat="48.83873" lon="2.30658">
        <ele>53.400001525879</ele>
        <time>2016-08-08T19:18:28.000Z</time>
      </trkpt>
      <trkpt lat="48.83889" lon="2.30644">
        <ele>52.599998474121</ele>
        <time>2016-08-08T19:18:32.000Z</time>
      </trkpt>
      <trkpt lat="48.83901" lon="2.30635">
        <ele>52</ele>
        <time>2016-08-08T19:18:35.000Z</time>
      </trkpt>
      <trkpt lat="48.8391" lon="2.30625">
        <ele>52.200000762939</ele>
        <time>2016-08-08T19:18:38.000Z</time>
      </trkpt>
      <trkpt lat="48.83915" lon="2.30619">
        <ele>52.599998474121</ele>
        <time>2016-08-08T19:18:40.000Z</time>
      </trkpt>
      <trkpt lat="48.83925" lon="2.30609">
        <ele>53.200000762939</ele>
        <time>2016-08-08T19:18:44.000Z</time>
      </trkpt>
      <trkpt lat="48.83944" lon="2.30604">
        <ele>54</ele>
        <time>2016-08-08T19:18:51.000Z</time>
      </trkpt>
      <trkpt lat="48.83948" lon="2.30605">
        <ele>54.200000762939</ele>
        <time>2016-08-08T19:18:52.000Z</time>
      </trkpt>
      <trkpt lat="48.83957" lon="2.30591">
        <ele>55</ele>
        <time>2016-08-08T19:18:56.000Z</time>
      </trkpt>
      <trkpt lat="48.83972" lon="2.30571">
        <ele>55.599998474121</ele>
        <time>2016-08-08T19:19:04.000Z</time>
      </trkpt>
      <trkpt lat="48.83986" lon="2.30553">
        <ele>56.200000762939</ele>
        <time>2016-08-08T19:19:10.000Z</time>
      </trkpt>
      <trkpt lat="48.83997" lon="2.3054">
        <ele>55.799999237061</ele>
        <time>2016-08-08T19:19:15.000Z</time>
      </trkpt>
      <trkpt lat="48.84014" lon="2.30528">
        <ele>54.599998474121</ele>
        <time>2016-08-08T19:19:20.000Z</time>
      </trkpt>
      <trkpt lat="48.84034" lon="2.30518">
        <ele>53</ele>
        <time>2016-08-08T19:19:26.000Z</time>
      </trkpt>
      <trkpt lat="48.84048" lon="2.30499">
        <ele>51.599998474121</ele>
        <time>2016-08-08T19:19:31.000Z</time>
      </trkpt>
      <trkpt lat="48.84044" lon="2.30471">
        <ele>51.799999237061</ele>
        <time>2016-08-08T19:19:36.000Z</time>
      </trkpt>
      <trkpt lat="48.84038" lon="2.30445">
        <ele>52</ele>
        <time>2016-08-08T19:19:46.000Z</time>
      </trkpt>
      <trkpt lat="48.8405" lon="2.3043">
        <ele>51.400001525879</ele>
        <time>2016-08-08T19:20:24.000Z</time>
      </trkpt>
      <trkpt lat="48.84069" lon="2.30417">
        <ele>50.200000762939</ele>
        <time>2016-08-08T19:20:29.000Z</time>
      </trkpt>
      <trkpt lat="48.84089" lon="2.30405">
        <ele>49</ele>
        <time>2016-08-08T19:20:33.000Z</time>
      </trkpt>
      <trkpt lat="48.84108" lon="2.30391">
        <ele>48.200000762939</ele>
        <time>2016-08-08T19:20:37.000Z</time>
      </trkpt>
      <trkpt lat="48.84126" lon="2.30376">
        <ele>47.400001525879</ele>
        <time>2016-08-08T19:20:41.000Z</time>
      </trkpt>
      <trkpt lat="48.84146" lon="2.30361">
        <ele>46.599998474121</ele>
        <time>2016-08-08T19:20:45.000Z</time>
      </trkpt>
      <trkpt lat="48.84163" lon="2.30347">
        <ele>46</ele>
        <time>2016-08-08T19:20:49.000Z</time>
      </trkpt>
      <trkpt lat="48.84179" lon="2.30333">
        <ele>45.400001525879</ele>
        <time>2016-08-08T19:20:54.000Z</time>
      </trkpt>
      <trkpt lat="48.84173" lon="2.30304">
        <ele>46.400001525879</ele>
        <time>2016-08-08T19:21:00.000Z</time>
      </trkpt>
      <trkpt lat="48.84163" lon="2.30275">
        <ele>47.599998474121</ele>
        <time>2016-08-08T19:21:05.000Z</time>
      </trkpt>
      <trkpt lat="48.84153" lon="2.30248">
        <ele>48.799999237061</ele>
        <time>2016-08-08T19:21:09.000Z</time>
      </trkpt>
      <trkpt lat="48.84146" lon="2.30215">
        <ele>49</ele>
        <time>2016-08-08T19:21:13.000Z</time>
      </trkpt>
      <trkpt lat="48.84138" lon="2.30187">
        <ele>49.400001525879</ele>
        <time>2016-08-08T19:21:16.000Z</time>
      </trkpt>
      <trkpt lat="48.8413" lon="2.30161">
        <ele>50</ele>
        <time>2016-08-08T19:21:19.000Z</time>
      </trkpt>
      <trkpt lat="48.84123" lon="2.30131">
        <ele>49.599998474121</ele>
        <time>2016-08-08T19:21:23.000Z</time>
      </trkpt>
      <trkpt lat="48.84113" lon="2.30106">
        <ele>49.400001525879</ele>
        <time>2016-08-08T19:21:27.000Z</time>
      </trkpt>
      <trkpt lat="48.84102" lon="2.30082">
        <ele>49.200000762939</ele>
        <time>2016-08-08T19:21:32.000Z</time>
      </trkpt>
      <trkpt lat="48.84093" lon="2.30057">
        <ele>49.400001525879</ele>
        <time>2016-08-08T19:21:37.000Z</time>
      </trkpt>
      <trkpt lat="48.8409" lon="2.30049">
        <ele>49.400001525879</ele>
        <time>2016-08-08T19:21:39.000Z</time>
      </trkpt>
      <trkpt lat="48.8409" lon="2.30033">
        <ele>49</ele>
        <time>2016-08-08T19:21:43.000Z</time>
      </trkpt>
      <trkpt lat="48.84094" lon="2.30025">
        <ele>48.400001525879</ele>
        <time>2016-08-08T19:21:47.000Z</time>
      </trkpt>
      <trkpt lat="48.84112" lon="2.30011">
        <ele>47.200000762939</ele>
        <time>2016-08-08T19:21:54.000Z</time>
      </trkpt>
      <trkpt lat="48.84124" lon="2.29989">
        <ele>46.400001525879</ele>
        <time>2016-08-08T19:22:02.000Z</time>
      </trkpt>
      <trkpt lat="48.84121" lon="2.29982">
        <ele>46.400001525879</ele>
        <time>2016-08-08T19:22:09.000Z</time>
      </trkpt>
      <trkpt lat="48.84119" lon="2.29979">
        <ele>46.200000762939</ele>
        <time>2016-08-08T19:23:25.000Z</time>
      </trkpt>
      <trkpt lat="48.84132" lon="2.29968">
        <ele>45.599998474121</ele>
        <time>2016-08-08T19:23:47.000Z</time>
      </trkpt>
      <trkpt lat="48.84136" lon="2.29966">
        <ele>45.599998474121</ele>
        <time>2016-08-08T19:23:49.000Z</time>
      </trkpt>
      <trkpt lat="48.84153" lon="2.29953">
        <ele>44.799999237061</ele>
        <time>2016-08-08T19:23:55.000Z</time>
      </trkpt>
      <trkpt lat="48.84165" lon="2.29931">
        <ele>44</ele>
        <time>2016-08-08T19:24:04.000Z</time>
      </trkpt>
      <trkpt lat="48.84166" lon="2.29927">
        <ele>43.799999237061</ele>
        <time>2016-08-08T19:24:07.000Z</time>
      </trkpt>
      <trkpt lat="48.84169" lon="2.29924">
        <ele>43.799999237061</ele>
        <time>2016-08-08T19:24:10.000Z</time>
      </trkpt>
      <trkpt lat="48.84184" lon="2.29913">
        <ele>43.200000762939</ele>
        <time>2016-08-08T19:24:17.000Z</time>
      </trkpt>
      <trkpt lat="48.84205" lon="2.29908">
        <ele>43.599998474121</ele>
        <time>2016-08-08T19:24:24.000Z</time>
      </trkpt>
      <trkpt lat="48.84225" lon="2.29909">
        <ele>44.400001525879</ele>
        <time>2016-08-08T19:24:30.000Z</time>
      </trkpt>
      <trkpt lat="48.84243" lon="2.29906">
        <ele>45</ele>
        <time>2016-08-08T19:24:35.000Z</time>
      </trkpt>
      <trkpt lat="48.84265" lon="2.29902">
        <ele>45.400001525879</ele>
        <time>2016-08-08T19:24:40.000Z</time>
      </trkpt>
      <trkpt lat="48.84285" lon="2.29894">
        <ele>44</ele>
        <time>2016-08-08T19:24:44.000Z</time>
      </trkpt>
      <trkpt lat="48.84303" lon="2.29887">
        <ele>43</ele>
        <time>2016-08-08T19:24:48.000Z</time>
      </trkpt>
      <trkpt lat="48.84322" lon="2.29878">
        <ele>41.799999237061</ele>
        <time>2016-08-08T19:24:52.000Z</time>
      </trkpt>
      <trkpt lat="48.84345" lon="2.2987">
        <ele>41.799999237061</ele>
        <time>2016-08-08T19:24:57.000Z</time>
      </trkpt>
      <trkpt lat="48.84352" lon="2.29864">
        <ele>41.599998474121</ele>
        <time>2016-08-08T19:24:59.000Z</time>
      </trkpt>
      <trkpt lat="48.84358" lon="2.29859">
        <ele>41.400001525879</ele>
        <time>2016-08-08T19:25:01.000Z</time>
      </trkpt>
      <trkpt lat="48.84361" lon="2.29844">
        <ele>40.799999237061</ele>
        <time>2016-08-08T19:25:06.000Z</time>
      </trkpt>
      <trkpt lat="48.8436" lon="2.2984">
        <ele>40.599998474121</ele>
        <time>2016-08-08T19:25:07.000Z</time>
      </trkpt>
      <trkpt lat="48.8436" lon="2.2981">
        <ele>39.799999237061</ele>
        <time>2016-08-08T19:25:13.000Z</time>
      </trkpt>
      <trkpt lat="48.84365" lon="2.29802">
        <ele>39.799999237061</ele>
        <time>2016-08-08T19:25:15.000Z</time>
      </trkpt>
      <trkpt lat="48.84385" lon="2.29796">
        <ele>40.400001525879</ele>
        <time>2016-08-08T19:25:21.000Z</time>
      </trkpt>
      <trkpt lat="48.84389" lon="2.29796">
        <ele>40.400001525879</ele>
        <time>2016-08-08T19:25:22.000Z</time>
      </trkpt>
      <trkpt lat="48.84411" lon="2.2979">
        <ele>40.599998474121</ele>
        <time>2016-08-08T19:25:26.000Z</time>
      </trkpt>
      <trkpt lat="48.84432" lon="2.29794">
        <ele>40.799999237061</ele>
        <time>2016-08-08T19:25:30.000Z</time>
      </trkpt>
      <trkpt lat="48.84453" lon="2.29798">
        <ele>41</ele>
        <time>2016-08-08T19:25:34.000Z</time>
      </trkpt>
      <trkpt lat="48.84467" lon="2.29793">
        <ele>41</ele>
        <time>2016-08-08T19:25:37.000Z</time>
      </trkpt>
      <trkpt lat="48.84485" lon="2.29786">
        <ele>41.200000762939</ele>
        <time>2016-08-08T19:25:40.000Z</time>
      </trkpt>
      <trkpt lat="48.84505" lon="2.2978">
        <ele>42.200000762939</ele>
        <time>2016-08-08T19:25:45.000Z</time>
      </trkpt>
      <trkpt lat="48.84513" lon="2.29775">
        <ele>42.599998474121</ele>
        <time>2016-08-08T19:25:47.000Z</time>
      </trkpt>
      <trkpt lat="48.84526" lon="2.29756">
        <ele>43</ele>
        <time>2016-08-08T19:25:58.000Z</time>
      </trkpt>
      <trkpt lat="48.84527" lon="2.29753">
        <ele>43</ele>
        <time>2016-08-08T19:25:59.000Z</time>
      </trkpt>
      <trkpt lat="48.8454" lon="2.29732">
        <ele>42.200000762939</ele>
        <time>2016-08-08T19:26:05.000Z</time>
      </trkpt>
      <trkpt lat="48.84553" lon="2.29707">
        <ele>41.200000762939</ele>
        <time>2016-08-08T19:26:10.000Z</time>
      </trkpt>
      <trkpt lat="48.84564" lon="2.29684">
        <ele>40.799999237061</ele>
        <time>2016-08-08T19:26:14.000Z</time>
      </trkpt>
      <trkpt lat="48.84574" lon="2.29661">
        <ele>40.599998474121</ele>
        <time>2016-08-08T19:26:18.000Z</time>
      </trkpt>
      <trkpt lat="48.8458" lon="2.29635">
        <ele>40.400001525879</ele>
        <time>2016-08-08T19:26:22.000Z</time>
      </trkpt>
      <trkpt lat="48.84589" lon="2.29606">
        <ele>40.200000762939</ele>
        <time>2016-08-08T19:26:27.000Z</time>
      </trkpt>
      <trkpt lat="48.84602" lon="2.29578">
        <ele>40</ele>
        <time>2016-08-08T19:26:32.000Z</time>
      </trkpt>
      <trkpt lat="48.8461" lon="2.29554">
        <ele>39.599998474121</ele>
        <time>2016-08-08T19:26:36.000Z</time>
      </trkpt>
      <trkpt lat="48.84613" lon="2.29549">
        <ele>39.599998474121</ele>
        <time>2016-08-08T19:26:37.000Z</time>
      </trkpt>
      <trkpt lat="48.84621" lon="2.29521">
        <ele>39.200000762939</ele>
        <time>2016-08-08T19:26:42.000Z</time>
      </trkpt>
      <trkpt lat="48.84632" lon="2.29495">
        <ele>39.200000762939</ele>
        <time>2016-08-08T19:26:48.000Z</time>
      </trkpt>
      <trkpt lat="48.84642" lon="2.29468">
        <ele>39</ele>
        <time>2016-08-08T19:26:53.000Z</time>
      </trkpt>
      <trkpt lat="48.84645" lon="2.29463">
        <ele>39</ele>
        <time>2016-08-08T19:26:54.000Z</time>
      </trkpt>
      <trkpt lat="48.84655" lon="2.29439">
        <ele>39.799999237061</ele>
        <time>2016-08-08T19:26:58.000Z</time>
      </trkpt>
      <trkpt lat="48.84668" lon="2.29414">
        <ele>41</ele>
        <time>2016-08-08T19:27:03.000Z</time>
      </trkpt>
      <trkpt lat="48.84675" lon="2.29398">
        <ele>41.799999237061</ele>
        <time>2016-08-08T19:27:06.000Z</time>
      </trkpt>
      <trkpt lat="48.84685" lon="2.29371">
        <ele>42</ele>
        <time>2016-08-08T19:27:11.000Z</time>
      </trkpt>
      <trkpt lat="48.84688" lon="2.29367">
        <ele>42</ele>
        <time>2016-08-08T19:27:12.000Z</time>
      </trkpt>
      <trkpt lat="48.84693" lon="2.29361">
        <ele>42.200000762939</ele>
        <time>2016-08-08T19:27:14.000Z</time>
      </trkpt>
      <trkpt lat="48.84699" lon="2.29335">
        <ele>42.400001525879</ele>
        <time>2016-08-08T19:27:19.000Z</time>
      </trkpt>
      <trkpt lat="48.84699" lon="2.2933">
        <ele>42.200000762939</ele>
        <time>2016-08-08T19:27:20.000Z</time>
      </trkpt>
      <trkpt lat="48.847" lon="2.29313">
        <ele>42.200000762939</ele>
        <time>2016-08-08T19:27:23.000Z</time>
      </trkpt>
      <trkpt lat="48.84708" lon="2.29285">
        <ele>42.200000762939</ele>
        <time>2016-08-08T19:27:29.000Z</time>
      </trkpt>
      <trkpt lat="48.84721" lon="2.29261">
        <ele>41.799999237061</ele>
        <time>2016-08-08T19:27:35.000Z</time>
      </trkpt>
      <trkpt lat="48.84731" lon="2.29234">
        <ele>41.200000762939</ele>
        <time>2016-08-08T19:27:40.000Z</time>
      </trkpt>
      <trkpt lat="48.84739" lon="2.29209">
        <ele>41.200000762939</ele>
        <time>2016-08-08T19:27:44.000Z</time>
      </trkpt>
      <trkpt lat="48.84749" lon="2.29183">
        <ele>39.799999237061</ele>
        <time>2016-08-08T19:27:48.000Z</time>
      </trkpt>
      <trkpt lat="48.84762" lon="2.29157">
        <ele>38.599998474121</ele>
        <time>2016-08-08T19:27:52.000Z</time>
      </trkpt>
      <trkpt lat="48.84775" lon="2.2913">
        <ele>38.400001525879</ele>
        <time>2016-08-08T19:27:56.000Z</time>
      </trkpt>
      <trkpt lat="48.84785" lon="2.291">
        <ele>38.599998474121</ele>
        <time>2016-08-08T19:28:00.000Z</time>
      </trkpt>
      <trkpt lat="48.84796" lon="2.29073">
        <ele>39.200000762939</ele>
        <time>2016-08-08T19:28:04.000Z</time>
      </trkpt>
      <trkpt lat="48.84807" lon="2.29047">
        <ele>40.200000762939</ele>
        <time>2016-08-08T19:28:08.000Z</time>
      </trkpt>
      <trkpt lat="48.84812" lon="2.29033">
        <ele>40.599998474121</ele>
        <time>2016-08-08T19:28:10.000Z</time>
      </trkpt>
      <trkpt lat="48.84818" lon="2.29013">
        <ele>41.400001525879</ele>
        <time>2016-08-08T19:28:13.000Z</time>
      </trkpt>
      <trkpt lat="48.84827" lon="2.28988">
        <ele>42.200000762939</ele>
        <time>2016-08-08T19:28:17.000Z</time>
      </trkpt>
      <trkpt lat="48.84829" lon="2.28982">
        <ele>42.400001525879</ele>
        <time>2016-08-08T19:28:18.000Z</time>
      </trkpt>
      <trkpt lat="48.84844" lon="2.28961">
        <ele>42.200000762939</ele>
        <time>2016-08-08T19:28:22.000Z</time>
      </trkpt>
      <trkpt lat="48.84856" lon="2.2894">
        <ele>42</ele>
        <time>2016-08-08T19:28:25.000Z</time>
      </trkpt>
      <trkpt lat="48.84865" lon="2.28913">
        <ele>41.400001525879</ele>
        <time>2016-08-08T19:28:28.000Z</time>
      </trkpt>
      <trkpt lat="48.84874" lon="2.28881">
        <ele>39.400001525879</ele>
        <time>2016-08-08T19:28:31.000Z</time>
      </trkpt>
      <trkpt lat="48.84886" lon="2.28853">
        <ele>37.799999237061</ele>
        <time>2016-08-08T19:28:34.000Z</time>
      </trkpt>
      <trkpt lat="48.84892" lon="2.28845">
        <ele>37.799999237061</ele>
        <time>2016-08-08T19:28:35.000Z</time>
      </trkpt>
      <trkpt lat="48.84904" lon="2.28817">
        <ele>37.599998474121</ele>
        <time>2016-08-08T19:28:38.000Z</time>
      </trkpt>
      <trkpt lat="48.84915" lon="2.2879">
        <ele>37.599998474121</ele>
        <time>2016-08-08T19:28:41.000Z</time>
      </trkpt>
      <trkpt lat="48.84922" lon="2.28771">
        <ele>38</ele>
        <time>2016-08-08T19:28:45.000Z</time>
      </trkpt>
      <trkpt lat="48.84933" lon="2.28742">
        <ele>39</ele>
        <time>2016-08-08T19:28:50.000Z</time>
      </trkpt>
      <trkpt lat="48.84944" lon="2.28715">
        <ele>38.799999237061</ele>
        <time>2016-08-08T19:28:54.000Z</time>
      </trkpt>
      <trkpt lat="48.84952" lon="2.28691">
        <ele>38.400001525879</ele>
        <time>2016-08-08T19:28:58.000Z</time>
      </trkpt>
      <trkpt lat="48.84971" lon="2.28671">
        <ele>38.400001525879</ele>
        <time>2016-08-08T19:29:03.000Z</time>
      </trkpt>
      <trkpt lat="48.84979" lon="2.2865">
        <ele>38.599998474121</ele>
        <time>2016-08-08T19:29:07.000Z</time>
      </trkpt>
      <trkpt lat="48.84982" lon="2.28641">
        <ele>38.400001525879</ele>
        <time>2016-08-08T19:29:11.000Z</time>
      </trkpt>
      <trkpt lat="48.84974" lon="2.2862">
        <ele>38.599998474121</ele>
        <time>2016-08-08T19:29:18.000Z</time>
      </trkpt>
      <trkpt lat="48.84973" lon="2.28617">
        <ele>38.599998474121</ele>
        <time>2016-08-08T19:29:20.000Z</time>
      </trkpt>
      <trkpt lat="48.84971" lon="2.28609">
        <ele>38.799999237061</ele>
        <time>2016-08-08T19:29:33.000Z</time>
      </trkpt>
      <trkpt lat="48.84986" lon="2.28589">
        <ele>40.200000762939</ele>
        <time>2016-08-08T19:29:44.000Z</time>
      </trkpt>
      <trkpt lat="48.85001" lon="2.28566">
        <ele>41.400001525879</ele>
        <time>2016-08-08T19:29:50.000Z</time>
      </trkpt>
      <trkpt lat="48.85013" lon="2.28526">
        <ele>43.400001525879</ele>
        <time>2016-08-08T19:29:55.000Z</time>
      </trkpt>
      <trkpt lat="48.85017" lon="2.28492">
        <ele>44.799999237061</ele>
        <time>2016-08-08T19:29:59.000Z</time>
      </trkpt>
      <trkpt lat="48.85021" lon="2.28462">
        <ele>44.599998474121</ele>
        <time>2016-08-08T19:30:03.000Z</time>
      </trkpt>
      <trkpt lat="48.85028" lon="2.28432">
        <ele>43.599998474121</ele>
        <time>2016-08-08T19:30:08.000Z</time>
      </trkpt>
      <trkpt lat="48.85046" lon="2.28408">
        <ele>41</ele>
        <time>2016-08-08T19:30:11.000Z</time>
      </trkpt>
      <trkpt lat="48.85074" lon="2.28407">
        <ele>37.599998474121</ele>
        <time>2016-08-08T19:30:16.000Z</time>
      </trkpt>
      <trkpt lat="48.85074" lon="2.28405">
        <ele>37.400001525879</ele>
        <time>2016-08-08T19:30:17.000Z</time>
      </trkpt>
      <trkpt lat="48.85075" lon="2.28401">
        <ele>37.200000762939</ele>
        <time>2016-08-08T19:30:19.000Z</time>
      </trkpt>
      <trkpt lat="48.85077" lon="2.28403">
        <ele>37</ele>
        <time>2016-08-08T19:30:38.000Z</time>
      </trkpt>
      <trkpt lat="48.85086" lon="2.2843">
        <ele>36.400001525879</ele>
        <time>2016-08-08T19:30:48.000Z</time>
      </trkpt>
      <trkpt lat="48.85102" lon="2.28448">
        <ele>34.599998474121</ele>
        <time>2016-08-08T19:30:53.000Z</time>
      </trkpt>
      <trkpt lat="48.85119" lon="2.28468">
        <ele>33.799999237061</ele>
        <time>2016-08-08T19:30:57.000Z</time>
      </trkpt>
      <trkpt lat="48.85134" lon="2.28486">
        <ele>33.599998474121</ele>
        <time>2016-08-08T19:31:02.000Z</time>
      </trkpt>
      <trkpt lat="48.85151" lon="2.28508">
        <ele>35.200000762939</ele>
        <time>2016-08-08T19:31:07.000Z</time>
      </trkpt>
      <trkpt lat="48.85166" lon="2.28526">
        <ele>38</ele>
        <time>2016-08-08T19:31:12.000Z</time>
      </trkpt>
      <trkpt lat="48.85182" lon="2.28544">
        <ele>40.599998474121</ele>
        <time>2016-08-08T19:31:17.000Z</time>
      </trkpt>
      <trkpt lat="48.85199" lon="2.28565">
        <ele>42.599998474121</ele>
        <time>2016-08-08T19:31:22.000Z</time>
      </trkpt>
      <trkpt lat="48.85213" lon="2.28585">
        <ele>43.400001525879</ele>
        <time>2016-08-08T19:31:26.000Z</time>
      </trkpt>
      <trkpt lat="48.85226" lon="2.28605">
        <ele>42.400001525879</ele>
        <time>2016-08-08T19:31:31.000Z</time>
      </trkpt>
      <trkpt lat="48.85232" lon="2.28614">
        <ele>42.200000762939</ele>
        <time>2016-08-08T19:31:34.000Z</time>
      </trkpt>
      <trkpt lat="48.85243" lon="2.28614">
        <ele>40.799999237061</ele>
        <time>2016-08-08T19:31:39.000Z</time>
      </trkpt>
      <trkpt lat="48.85262" lon="2.28624">
        <ele>38.799999237061</ele>
        <time>2016-08-08T19:31:45.000Z</time>
      </trkpt>
      <trkpt lat="48.85279" lon="2.28649">
        <ele>38.200000762939</ele>
        <time>2016-08-08T19:31:49.000Z</time>
      </trkpt>
      <trkpt lat="48.85294" lon="2.2867">
        <ele>38.400001525879</ele>
        <time>2016-08-08T19:31:52.000Z</time>
      </trkpt>
      <trkpt lat="48.85312" lon="2.28695">
        <ele>39</ele>
        <time>2016-08-08T19:31:55.000Z</time>
      </trkpt>
      <trkpt lat="48.85329" lon="2.28722">
        <ele>39.599998474121</ele>
        <time>2016-08-08T19:31:58.000Z</time>
      </trkpt>
      <trkpt lat="48.85347" lon="2.2875">
        <ele>39.799999237061</ele>
        <time>2016-08-08T19:32:01.000Z</time>
      </trkpt>
      <trkpt lat="48.85361" lon="2.28768">
        <ele>40.200000762939</ele>
        <time>2016-08-08T19:32:03.000Z</time>
      </trkpt>
      <trkpt lat="48.85381" lon="2.28795">
        <ele>40.599998474121</ele>
        <time>2016-08-08T19:32:06.000Z</time>
      </trkpt>
      <trkpt lat="48.85399" lon="2.28822">
        <ele>41</ele>
        <time>2016-08-08T19:32:09.000Z</time>
      </trkpt>
      <trkpt lat="48.85414" lon="2.28845">
        <ele>41.599998474121</ele>
        <time>2016-08-08T19:32:12.000Z</time>
      </trkpt>
      <trkpt lat="48.85428" lon="2.28863">
        <ele>42.200000762939</ele>
        <time>2016-08-08T19:32:15.000Z</time>
      </trkpt>
      <trkpt lat="48.8544" lon="2.28879">
        <ele>42.599998474121</ele>
        <time>2016-08-08T19:32:19.000Z</time>
      </trkpt>
      <trkpt lat="48.85454" lon="2.28898">
        <ele>42.599998474121</ele>
        <time>2016-08-08T19:32:27.000Z</time>
      </trkpt>
      <trkpt lat="48.85454" lon="2.28898">
        <ele>42.599998474121</ele>
        <time>2016-08-08T19:32:28.000Z</time>
      </trkpt>
      <trkpt lat="48.85468" lon="2.28883">
        <ele>41.200000762939</ele>
        <time>2016-08-08T19:32:44.000Z</time>
      </trkpt>
      <trkpt lat="48.85482" lon="2.28865">
        <ele>39.799999237061</ele>
        <time>2016-08-08T19:32:49.000Z</time>
      </trkpt>
      <trkpt lat="48.85496" lon="2.2885">
        <ele>38.400001525879</ele>
        <time>2016-08-08T19:32:53.000Z</time>
      </trkpt>
      <trkpt lat="48.85514" lon="2.28836">
        <ele>36.799999237061</ele>
        <time>2016-08-08T19:32:57.000Z</time>
      </trkpt>
      <trkpt lat="48.85532" lon="2.28819">
        <ele>35.200000762939</ele>
        <time>2016-08-08T19:33:01.000Z</time>
      </trkpt>
      <trkpt lat="48.85549" lon="2.28801">
        <ele>34</ele>
        <time>2016-08-08T19:33:05.000Z</time>
      </trkpt>
      <trkpt lat="48.85569" lon="2.28783">
        <ele>33</ele>
        <time>2016-08-08T19:33:09.000Z</time>
      </trkpt>
      <trkpt lat="48.85588" lon="2.28764">
        <ele>33</ele>
        <time>2016-08-08T19:33:13.000Z</time>
      </trkpt>
      <trkpt lat="48.85608" lon="2.28744">
        <ele>33</ele>
        <time>2016-08-08T19:33:17.000Z</time>
      </trkpt>
      <trkpt lat="48.85622" lon="2.28726">
        <ele>32.400001525879</ele>
        <time>2016-08-08T19:33:20.000Z</time>
      </trkpt>
      <trkpt lat="48.85638" lon="2.28707">
        <ele>31.799999237061</ele>
        <time>2016-08-08T19:33:24.000Z</time>
      </trkpt>
      <trkpt lat="48.85653" lon="2.28691">
        <ele>34</ele>
        <time>2016-08-08T19:33:28.000Z</time>
      </trkpt>
      <trkpt lat="48.85662" lon="2.28679">
        <ele>36.599998474121</ele>
        <time>2016-08-08T19:33:32.000Z</time>
      </trkpt>
      <trkpt lat="48.8567" lon="2.28671">
        <ele>38.599998474121</ele>
        <time>2016-08-08T19:33:36.000Z</time>
      </trkpt>
      <trkpt lat="48.85671" lon="2.28668">
        <ele>39.200000762939</ele>
        <time>2016-08-08T19:33:38.000Z</time>
      </trkpt>
      <trkpt lat="48.85675" lon="2.28661">
        <ele>40.400001525879</ele>
        <time>2016-08-08T19:33:46.000Z</time>
      </trkpt>
      <trkpt lat="48.8568" lon="2.28656">
        <ele>41.599998474121</ele>
        <time>2016-08-08T19:33:53.000Z</time>
      </trkpt>
      <trkpt lat="48.85695" lon="2.28638">
        <ele>44.799999237061</ele>
        <time>2016-08-08T19:34:17.000Z</time>
      </trkpt>
      <trkpt lat="48.8571" lon="2.28616">
        <ele>48.599998474121</ele>
        <time>2016-08-08T19:34:24.000Z</time>
      </trkpt>
      <trkpt lat="48.85722" lon="2.28594">
        <ele>50.200000762939</ele>
        <time>2016-08-08T19:34:33.000Z</time>
      </trkpt>
      <trkpt lat="48.85726" lon="2.28595">
        <ele>50.599998474121</ele>
        <time>2016-08-08T19:34:38.000Z</time>
      </trkpt>
      <trkpt lat="48.8573" lon="2.28598">
        <ele>50.799999237061</ele>
        <time>2016-08-08T19:34:42.000Z</time>
      </trkpt>
      <trkpt lat="48.85734" lon="2.28603">
        <ele>51.200000762939</ele>
        <time>2016-08-08T19:34:49.000Z</time>
      </trkpt>
      <trkpt lat="48.85739" lon="2.28598">
        <ele>51.400001525879</ele>
        <time>2016-08-08T19:35:03.000Z</time>
      </trkpt>
      <trkpt lat="48.85746" lon="2.28595">
        <ele>51.799999237061</ele>
        <time>2016-08-08T19:35:10.000Z</time>
      </trkpt>
      <trkpt lat="48.8575" lon="2.28594">
        <ele>52</ele>
        <time>2016-08-08T19:35:14.000Z</time>
      </trkpt>
      <trkpt lat="48.85764" lon="2.2858">
        <ele>52.400001525879</ele>
        <time>2016-08-08T19:35:29.000Z</time>
      </trkpt>
      <trkpt lat="48.85775" lon="2.28567">
        <ele>53.599998474121</ele>
        <time>2016-08-08T19:35:43.000Z</time>
      </trkpt>
      <trkpt lat="48.85774" lon="2.28562">
        <ele>53.400001525879</ele>
        <time>2016-08-08T19:35:47.000Z</time>
      </trkpt>
      <trkpt lat="48.85784" lon="2.28552">
        <ele>55</ele>
        <time>2016-08-08T19:36:54.000Z</time>
      </trkpt>
      <trkpt lat="48.85782" lon="2.28551">
        <ele>54.599998474121</ele>
        <time>2016-08-08T19:36:58.000Z</time>
      </trkpt>
      <trkpt lat="48.85772" lon="2.28547">
        <ele>53.400001525879</ele>
        <time>2016-08-08T19:38:02.000Z</time>
      </trkpt>
      <trkpt lat="48.85787" lon="2.28531">
        <ele>55.599998474121</ele>
        <time>2016-08-08T19:38:11.000Z</time>
      </trkpt>
      <trkpt lat="48.85789" lon="2.28528">
        <ele>56</ele>
        <time>2016-08-08T19:38:12.000Z</time>
      </trkpt>
      <trkpt lat="48.85808" lon="2.28514">
        <ele>58.400001525879</ele>
        <time>2016-08-08T19:38:19.000Z</time>
      </trkpt>
      <trkpt lat="48.85825" lon="2.28501">
        <ele>60.200000762939</ele>
        <time>2016-08-08T19:38:25.000Z</time>
      </trkpt>
      <trkpt lat="48.85842" lon="2.28488">
        <ele>63.200000762939</ele>
        <time>2016-08-08T19:38:34.000Z</time>
      </trkpt>
      <trkpt lat="48.85845" lon="2.28484">
        <ele>64</ele>
        <time>2016-08-08T19:38:37.000Z</time>
      </trkpt>
      <trkpt lat="48.85845" lon="2.28468">
        <ele>64.400001525879</ele>
        <time>2016-08-08T19:39:37.000Z</time>
      </trkpt>
      <trkpt lat="48.85851" lon="2.28463">
        <ele>65</ele>
        <time>2016-08-08T19:39:58.000Z</time>
      </trkpt>
      <trkpt lat="48.85861" lon="2.28454">
        <ele>66</ele>
        <time>2016-08-08T19:40:05.000Z</time>
      </trkpt>
      <trkpt lat="48.85868" lon="2.28428">
        <ele>67.599998474121</ele>
        <time>2016-08-08T19:40:11.000Z</time>
      </trkpt>
      <trkpt lat="48.85874" lon="2.28419">
        <ele>67.599998474121</ele>
        <time>2016-08-08T19:40:13.000Z</time>
      </trkpt>
      <trkpt lat="48.85888" lon="2.28396">
        <ele>69</ele>
        <time>2016-08-08T19:40:17.000Z</time>
      </trkpt>
      <trkpt lat="48.85899" lon="2.28377">
        <ele>70.400001525879</ele>
        <time>2016-08-08T19:40:20.000Z</time>
      </trkpt>
      <trkpt lat="48.85909" lon="2.28354">
        <ele>70</ele>
        <time>2016-08-08T19:40:23.000Z</time>
      </trkpt>
      <trkpt lat="48.85917" lon="2.28341">
        <ele>69.599998474121</ele>
        <time>2016-08-08T19:40:25.000Z</time>
      </trkpt>
      <trkpt lat="48.85927" lon="2.28322">
        <ele>69.199996948242</ele>
        <time>2016-08-08T19:40:28.000Z</time>
      </trkpt>
      <trkpt lat="48.85939" lon="2.28295">
        <ele>70.199996948242</ele>
        <time>2016-08-08T19:40:32.000Z</time>
      </trkpt>
      <trkpt lat="48.85953" lon="2.28267">
        <ele>71.400001525879</ele>
        <time>2016-08-08T19:40:36.000Z</time>
      </trkpt>
      <trkpt lat="48.85959" lon="2.28254">
        <ele>71.800003051758</ele>
        <time>2016-08-08T19:40:38.000Z</time>
      </trkpt>
      <trkpt lat="48.85973" lon="2.28229">
        <ele>71.800003051758</ele>
        <time>2016-08-08T19:40:42.000Z</time>
      </trkpt>
      <trkpt lat="48.85981" lon="2.28214">
        <ele>71.599998474121</ele>
        <time>2016-08-08T19:40:45.000Z</time>
      </trkpt>
      <trkpt lat="48.85997" lon="2.28192">
        <ele>72.400001525879</ele>
        <time>2016-08-08T19:40:50.000Z</time>
      </trkpt>
      <trkpt lat="48.86004" lon="2.28179">
        <ele>73</ele>
        <time>2016-08-08T19:40:53.000Z</time>
      </trkpt>
      <trkpt lat="48.86012" lon="2.28167">
        <ele>73.599998474121</ele>
        <time>2016-08-08T19:40:56.000Z</time>
      </trkpt>
      <trkpt lat="48.86022" lon="2.28153">
        <ele>74</ele>
        <time>2016-08-08T19:41:00.000Z</time>
      </trkpt>
      <trkpt lat="48.86027" lon="2.28143">
        <ele>74</ele>
        <time>2016-08-08T19:41:04.000Z</time>
      </trkpt>
      <trkpt lat="48.86025" lon="2.28126">
        <ele>74</ele>
        <time>2016-08-08T19:41:08.000Z</time>
      </trkpt>
      <trkpt lat="48.86025" lon="2.28123">
        <ele>74</ele>
        <time>2016-08-08T19:41:09.000Z</time>
      </trkpt>
      <trkpt lat="48.86036" lon="2.28102">
        <ele>73.800003051758</ele>
        <time>2016-08-08T19:41:42.000Z</time>
      </trkpt>
      <trkpt lat="48.8604" lon="2.28074">
        <ele>74.199996948242</ele>
        <time>2016-08-08T19:41:48.000Z</time>
      </trkpt>
      <trkpt lat="48.86055" lon="2.28053">
        <ele>74</ele>
        <time>2016-08-08T19:41:53.000Z</time>
      </trkpt>
      <trkpt lat="48.86067" lon="2.28027">
        <ele>73.800003051758</ele>
        <time>2016-08-08T19:41:58.000Z</time>
      </trkpt>
      <trkpt lat="48.8608" lon="2.28003">
        <ele>73.199996948242</ele>
        <time>2016-08-08T19:42:04.000Z</time>
      </trkpt>
      <trkpt lat="48.86095" lon="2.27986">
        <ele>72.599998474121</ele>
        <time>2016-08-08T19:42:11.000Z</time>
      </trkpt>
      <trkpt lat="48.86109" lon="2.27968">
        <ele>72.599998474121</ele>
        <time>2016-08-08T19:42:16.000Z</time>
      </trkpt>
      <trkpt lat="48.86124" lon="2.27952">
        <ele>72</ele>
        <time>2016-08-08T19:42:21.000Z</time>
      </trkpt>
      <trkpt lat="48.86137" lon="2.27932">
        <ele>71.400001525879</ele>
        <time>2016-08-08T19:42:26.000Z</time>
      </trkpt>
      <trkpt lat="48.86151" lon="2.27908">
        <ele>71</ele>
        <time>2016-08-08T19:42:31.000Z</time>
      </trkpt>
      <trkpt lat="48.86163" lon="2.2788">
        <ele>70.400001525879</ele>
        <time>2016-08-08T19:42:36.000Z</time>
      </trkpt>
      <trkpt lat="48.86176" lon="2.27859">
        <ele>69.400001525879</ele>
        <time>2016-08-08T19:42:40.000Z</time>
      </trkpt>
      <trkpt lat="48.86189" lon="2.27835">
        <ele>68.199996948242</ele>
        <time>2016-08-08T19:42:44.000Z</time>
      </trkpt>
      <trkpt lat="48.86206" lon="2.27815">
        <ele>66.599998474121</ele>
        <time>2016-08-08T19:42:48.000Z</time>
      </trkpt>
      <trkpt lat="48.86218" lon="2.27797">
        <ele>65.400001525879</ele>
        <time>2016-08-08T19:42:51.000Z</time>
      </trkpt>
      <trkpt lat="48.86232" lon="2.27768">
        <ele>64.599998474121</ele>
        <time>2016-08-08T19:42:55.000Z</time>
      </trkpt>
      <trkpt lat="48.86242" lon="2.27745">
        <ele>64.599998474121</ele>
        <time>2016-08-08T19:42:58.000Z</time>
      </trkpt>
      <trkpt lat="48.86253" lon="2.2772">
        <ele>64.599998474121</ele>
        <time>2016-08-08T19:43:01.000Z</time>
      </trkpt>
      <trkpt lat="48.86261" lon="2.27693">
        <ele>64.400001525879</ele>
        <time>2016-08-08T19:43:04.000Z</time>
      </trkpt>
      <trkpt lat="48.86273" lon="2.27663">
        <ele>64</ele>
        <time>2016-08-08T19:43:08.000Z</time>
      </trkpt>
      <trkpt lat="48.86275" lon="2.27655">
        <ele>64</ele>
        <time>2016-08-08T19:43:09.000Z</time>
      </trkpt>
      <trkpt lat="48.86284" lon="2.2764">
        <ele>64.400001525879</ele>
        <time>2016-08-08T19:43:13.000Z</time>
      </trkpt>
      <trkpt lat="48.86286" lon="2.27638">
        <ele>64.400001525879</ele>
        <time>2016-08-08T19:43:14.000Z</time>
      </trkpt>
      <trkpt lat="48.863" lon="2.27639">
        <ele>65</ele>
        <time>2016-08-08T19:43:20.000Z</time>
      </trkpt>
      <trkpt lat="48.86306" lon="2.27641">
        <ele>65.199996948242</ele>
        <time>2016-08-08T19:43:22.000Z</time>
      </trkpt>
      <trkpt lat="48.86324" lon="2.27648">
        <ele>65.800003051758</ele>
        <time>2016-08-08T19:43:27.000Z</time>
      </trkpt>
      <trkpt lat="48.86343" lon="2.27659">
        <ele>66.599998474121</ele>
        <time>2016-08-08T19:43:32.000Z</time>
      </trkpt>
      <trkpt lat="48.86361" lon="2.2767">
        <ele>66.800003051758</ele>
        <time>2016-08-08T19:43:36.000Z</time>
      </trkpt>
      <trkpt lat="48.86382" lon="2.27683">
        <ele>66.199996948242</ele>
        <time>2016-08-08T19:43:41.000Z</time>
      </trkpt>
      <trkpt lat="48.86385" lon="2.27695">
        <ele>66</ele>
        <time>2016-08-08T19:43:43.000Z</time>
      </trkpt>
      <trkpt lat="48.86396" lon="2.27714">
        <ele>65.599998474121</ele>
        <time>2016-08-08T19:43:47.000Z</time>
      </trkpt>
      <trkpt lat="48.864" lon="2.27699">
        <ele>65.599998474121</ele>
        <time>2016-08-08T19:43:58.000Z</time>
      </trkpt>
      <trkpt lat="48.864" lon="2.27685">
        <ele>65.599998474121</ele>
        <time>2016-08-08T19:44:04.000Z</time>
      </trkpt>
      <trkpt lat="48.86396" lon="2.27667">
        <ele>66</ele>
        <time>2016-08-08T19:44:17.000Z</time>
      </trkpt>
      <trkpt lat="48.86401" lon="2.27648">
        <ele>66</ele>
        <time>2016-08-08T19:44:54.000Z</time>
      </trkpt>
      <trkpt lat="48.86401" lon="2.27675">
        <ele>65.800003051758</ele>
        <time>2016-08-08T19:45:05.000Z</time>
      </trkpt>
      <trkpt lat="48.864" lon="2.27705">
        <ele>65.400001525879</ele>
        <time>2016-08-08T19:45:11.000Z</time>
      </trkpt>
      <trkpt lat="48.86405" lon="2.27731">
        <ele>65.199996948242</ele>
        <time>2016-08-08T19:45:17.000Z</time>
      </trkpt>
      <trkpt lat="48.86415" lon="2.27757">
        <ele>65.199996948242</ele>
        <time>2016-08-08T19:45:24.000Z</time>
      </trkpt>
      <trkpt lat="48.86429" lon="2.27775">
        <ele>65</ele>
        <time>2016-08-08T19:45:29.000Z</time>
      </trkpt>
      <trkpt lat="48.86448" lon="2.27791">
        <ele>65.400001525879</ele>
        <time>2016-08-08T19:45:34.000Z</time>
      </trkpt>
      <trkpt lat="48.86465" lon="2.27813">
        <ele>66.599998474121</ele>
        <time>2016-08-08T19:45:39.000Z</time>
      </trkpt>
      <trkpt lat="48.86484" lon="2.27834">
        <ele>67.400001525879</ele>
        <time>2016-08-08T19:45:43.000Z</time>
      </trkpt>
      <trkpt lat="48.86498" lon="2.27852">
        <ele>67.199996948242</ele>
        <time>2016-08-08T19:45:46.000Z</time>
      </trkpt>
      <trkpt lat="48.86513" lon="2.27872">
        <ele>67.199996948242</ele>
        <time>2016-08-08T19:45:49.000Z</time>
      </trkpt>
      <trkpt lat="48.8653" lon="2.27891">
        <ele>67.199996948242</ele>
        <time>2016-08-08T19:45:52.000Z</time>
      </trkpt>
      <trkpt lat="48.86546" lon="2.27909">
        <ele>67.199996948242</ele>
        <time>2016-08-08T19:45:55.000Z</time>
      </trkpt>
      <trkpt lat="48.86561" lon="2.27924">
        <ele>67.199996948242</ele>
        <time>2016-08-08T19:45:58.000Z</time>
      </trkpt>
      <trkpt lat="48.8658" lon="2.27945">
        <ele>67.199996948242</ele>
        <time>2016-08-08T19:46:02.000Z</time>
      </trkpt>
      <trkpt lat="48.86599" lon="2.27962">
        <ele>67.400001525879</ele>
        <time>2016-08-08T19:46:06.000Z</time>
      </trkpt>
      <trkpt lat="48.86616" lon="2.27974">
        <ele>67.199996948242</ele>
        <time>2016-08-08T19:46:10.000Z</time>
      </trkpt>
      <trkpt lat="48.86636" lon="2.27987">
        <ele>67.199996948242</ele>
        <time>2016-08-08T19:46:15.000Z</time>
      </trkpt>
      <trkpt lat="48.86644" lon="2.27992">
        <ele>67.199996948242</ele>
        <time>2016-08-08T19:46:17.000Z</time>
      </trkpt>
      <trkpt lat="48.86653" lon="2.28002">
        <ele>67.199996948242</ele>
        <time>2016-08-08T19:46:21.000Z</time>
      </trkpt>
      <trkpt lat="48.86654" lon="2.28003">
        <ele>67.400001525879</ele>
        <time>2016-08-08T19:46:23.000Z</time>
      </trkpt>
      <trkpt lat="48.86672" lon="2.28017">
        <ele>68</ele>
        <time>2016-08-08T19:46:37.000Z</time>
      </trkpt>
      <trkpt lat="48.86689" lon="2.28027">
        <ele>68.800003051758</ele>
        <time>2016-08-08T19:46:43.000Z</time>
      </trkpt>
      <trkpt lat="48.86706" lon="2.28044">
        <ele>69.199996948242</ele>
        <time>2016-08-08T19:46:49.000Z</time>
      </trkpt>
      <trkpt lat="48.86727" lon="2.28057">
        <ele>69.400001525879</ele>
        <time>2016-08-08T19:46:54.000Z</time>
      </trkpt>
      <trkpt lat="48.86743" lon="2.28072">
        <ele>69.800003051758</ele>
        <time>2016-08-08T19:46:59.000Z</time>
      </trkpt>
      <trkpt lat="48.86763" lon="2.28079">
        <ele>70</ele>
        <time>2016-08-08T19:47:04.000Z</time>
      </trkpt>
      <trkpt lat="48.86778" lon="2.281">
        <ele>69</ele>
        <time>2016-08-08T19:47:08.000Z</time>
      </trkpt>
      <trkpt lat="48.86793" lon="2.28116">
        <ele>68.199996948242</ele>
        <time>2016-08-08T19:47:14.000Z</time>
      </trkpt>
      <trkpt lat="48.86798" lon="2.28127">
        <ele>67.800003051758</ele>
        <time>2016-08-08T19:47:20.000Z</time>
      </trkpt>
      <trkpt lat="48.86818" lon="2.28141">
        <ele>67</ele>
        <time>2016-08-08T19:47:28.000Z</time>
      </trkpt>
      <trkpt lat="48.86838" lon="2.28149">
        <ele>66.599998474121</ele>
        <time>2016-08-08T19:47:33.000Z</time>
      </trkpt>
      <trkpt lat="48.86858" lon="2.28159">
        <ele>66</ele>
        <time>2016-08-08T19:47:37.000Z</time>
      </trkpt>
      <trkpt lat="48.86876" lon="2.28172">
        <ele>65.599998474121</ele>
        <time>2016-08-08T19:47:41.000Z</time>
      </trkpt>
      <trkpt lat="48.86895" lon="2.28184">
        <ele>65.400001525879</ele>
        <time>2016-08-08T19:47:45.000Z</time>
      </trkpt>
      <trkpt lat="48.86912" lon="2.282">
        <ele>65.400001525879</ele>
        <time>2016-08-08T19:47:49.000Z</time>
      </trkpt>
      <trkpt lat="48.86931" lon="2.28213">
        <ele>65.199996948242</ele>
        <time>2016-08-08T19:47:53.000Z</time>
      </trkpt>
      <trkpt lat="48.86951" lon="2.28223">
        <ele>65.199996948242</ele>
        <time>2016-08-08T19:47:57.000Z</time>
      </trkpt>
      <trkpt lat="48.86969" lon="2.28233">
        <ele>65.599998474121</ele>
        <time>2016-08-08T19:48:01.000Z</time>
      </trkpt>
      <trkpt lat="48.86987" lon="2.28245">
        <ele>66</ele>
        <time>2016-08-08T19:48:05.000Z</time>
      </trkpt>
      <trkpt lat="48.87005" lon="2.28253">
        <ele>66</ele>
        <time>2016-08-08T19:48:09.000Z</time>
      </trkpt>
      <trkpt lat="48.87022" lon="2.28256">
        <ele>66.199996948242</ele>
        <time>2016-08-08T19:48:13.000Z</time>
      </trkpt>
      <trkpt lat="48.87029" lon="2.28257">
        <ele>66.199996948242</ele>
        <time>2016-08-08T19:48:15.000Z</time>
      </trkpt>
      <trkpt lat="48.87039" lon="2.28267">
        <ele>66.400001525879</ele>
        <time>2016-08-08T19:48:20.000Z</time>
      </trkpt>
      <trkpt lat="48.87058" lon="2.2828">
        <ele>66.800003051758</ele>
        <time>2016-08-08T19:48:26.000Z</time>
      </trkpt>
      <trkpt lat="48.87077" lon="2.28291">
        <ele>67</ele>
        <time>2016-08-08T19:48:30.000Z</time>
      </trkpt>
      <trkpt lat="48.87094" lon="2.28303">
        <ele>67.199996948242</ele>
        <time>2016-08-08T19:48:34.000Z</time>
      </trkpt>
      <trkpt lat="48.87113" lon="2.2832">
        <ele>67.400001525879</ele>
        <time>2016-08-08T19:48:38.000Z</time>
      </trkpt>
      <trkpt lat="48.87129" lon="2.2834">
        <ele>67.199996948242</ele>
        <time>2016-08-08T19:48:42.000Z</time>
      </trkpt>
      <trkpt lat="48.87148" lon="2.2836">
        <ele>66.800003051758</ele>
        <time>2016-08-08T19:48:46.000Z</time>
      </trkpt>
      <trkpt lat="48.87167" lon="2.28376">
        <ele>66.199996948242</ele>
        <time>2016-08-08T19:48:50.000Z</time>
      </trkpt>
      <trkpt lat="48.87186" lon="2.28388">
        <ele>65.599998474121</ele>
        <time>2016-08-08T19:48:54.000Z</time>
      </trkpt>
      <trkpt lat="48.87206" lon="2.28399">
        <ele>62.200000762939</ele>
        <time>2016-08-08T19:48:58.000Z</time>
      </trkpt>
      <trkpt lat="48.87218" lon="2.28426">
        <ele>60.400001525879</ele>
        <time>2016-08-08T19:49:04.000Z</time>
      </trkpt>
      <trkpt lat="48.87219" lon="2.2843">
        <ele>60.400001525879</ele>
        <time>2016-08-08T19:49:05.000Z</time>
      </trkpt>
      <trkpt lat="48.87221" lon="2.28439">
        <ele>60.400001525879</ele>
        <time>2016-08-08T19:49:07.000Z</time>
      </trkpt>
      <trkpt lat="48.87225" lon="2.28453">
        <ele>60</ele>
        <time>2016-08-08T19:49:11.000Z</time>
      </trkpt>
      <trkpt lat="48.87226" lon="2.2848">
        <ele>59.200000762939</ele>
        <time>2016-08-08T19:49:47.000Z</time>
      </trkpt>
      <trkpt lat="48.87228" lon="2.2849">
        <ele>58.599998474121</ele>
        <time>2016-08-08T19:49:52.000Z</time>
      </trkpt>
      <trkpt lat="48.87229" lon="2.28519">
        <ele>60</ele>
        <time>2016-08-08T19:50:05.000Z</time>
      </trkpt>
      <trkpt lat="48.87229" lon="2.28538">
        <ele>61.200000762939</ele>
        <time>2016-08-08T19:50:11.000Z</time>
      </trkpt>
      <trkpt lat="48.87229" lon="2.28546">
        <ele>61</ele>
        <time>2016-08-08T19:50:16.000Z</time>
      </trkpt>
      <trkpt lat="48.87226" lon="2.28559">
        <ele>61</ele>
        <time>2016-08-08T19:51:06.000Z</time>
      </trkpt>
      <trkpt lat="48.8723" lon="2.28591">
        <ele>60.799999237061</ele>
        <time>2016-08-08T19:51:13.000Z</time>
      </trkpt>
      <trkpt lat="48.87232" lon="2.28616">
        <ele>61.400001525879</ele>
        <time>2016-08-08T19:51:17.000Z</time>
      </trkpt>
      <trkpt lat="48.87236" lon="2.28648">
        <ele>61.599998474121</ele>
        <time>2016-08-08T19:51:21.000Z</time>
      </trkpt>
      <trkpt lat="48.87241" lon="2.28682">
        <ele>62</ele>
        <time>2016-08-08T19:51:25.000Z</time>
      </trkpt>
      <trkpt lat="48.87243" lon="2.287">
        <ele>62.400001525879</ele>
        <time>2016-08-08T19:51:27.000Z</time>
      </trkpt>
      <trkpt lat="48.87245" lon="2.28728">
        <ele>63.400001525879</ele>
        <time>2016-08-08T19:51:30.000Z</time>
      </trkpt>
      <trkpt lat="48.87248" lon="2.28757">
        <ele>65</ele>
        <time>2016-08-08T19:51:33.000Z</time>
      </trkpt>
      <trkpt lat="48.87249" lon="2.28767">
        <ele>65.199996948242</ele>
        <time>2016-08-08T19:51:34.000Z</time>
      </trkpt>
      <trkpt lat="48.87252" lon="2.28796">
        <ele>66.400001525879</ele>
        <time>2016-08-08T19:51:37.000Z</time>
      </trkpt>
      <trkpt lat="48.87254" lon="2.28806">
        <ele>66.599998474121</ele>
        <time>2016-08-08T19:51:38.000Z</time>
      </trkpt>
      <trkpt lat="48.87259" lon="2.28836">
        <ele>67</ele>
        <time>2016-08-08T19:51:41.000Z</time>
      </trkpt>
      <trkpt lat="48.87262" lon="2.28865">
        <ele>67.199996948242</ele>
        <time>2016-08-08T19:51:44.000Z</time>
      </trkpt>
      <trkpt lat="48.87263" lon="2.28894">
        <ele>67.400001525879</ele>
        <time>2016-08-08T19:51:47.000Z</time>
      </trkpt>
      <trkpt lat="48.87265" lon="2.28904">
        <ele>67.400001525879</ele>
        <time>2016-08-08T19:51:48.000Z</time>
      </trkpt>
      <trkpt lat="48.87271" lon="2.28933">
        <ele>66.599998474121</ele>
        <time>2016-08-08T19:51:51.000Z</time>
      </trkpt>
      <trkpt lat="48.87272" lon="2.28943">
        <ele>66.400001525879</ele>
        <time>2016-08-08T19:51:52.000Z</time>
      </trkpt>
      <trkpt lat="48.87275" lon="2.2897">
        <ele>65.599998474121</ele>
        <time>2016-08-08T19:51:55.000Z</time>
      </trkpt>
      <trkpt lat="48.87279" lon="2.29005">
        <ele>65.400001525879</ele>
        <time>2016-08-08T19:51:59.000Z</time>
      </trkpt>
      <trkpt lat="48.87284" lon="2.29039">
        <ele>67.400001525879</ele>
        <time>2016-08-08T19:52:03.000Z</time>
      </trkpt>
      <trkpt lat="48.87287" lon="2.29057">
        <ele>68.400001525879</ele>
        <time>2016-08-08T19:52:05.000Z</time>
      </trkpt>
      <trkpt lat="48.87288" lon="2.29091">
        <ele>69.599998474121</ele>
        <time>2016-08-08T19:52:09.000Z</time>
      </trkpt>
      <trkpt lat="48.87292" lon="2.29119">
        <ele>70.800003051758</ele>
        <time>2016-08-08T19:52:13.000Z</time>
      </trkpt>
      <trkpt lat="48.87293" lon="2.29131">
        <ele>71.400001525879</ele>
        <time>2016-08-08T19:52:15.000Z</time>
      </trkpt>
      <trkpt lat="48.873" lon="2.29158">
        <ele>72.400001525879</ele>
        <time>2016-08-08T19:52:22.000Z</time>
      </trkpt>
      <trkpt lat="48.87315" lon="2.29176">
        <ele>71.199996948242</ele>
        <time>2016-08-08T19:52:26.000Z</time>
      </trkpt>
      <trkpt lat="48.8733" lon="2.29197">
        <ele>69.800003051758</ele>
        <time>2016-08-08T19:52:30.000Z</time>
      </trkpt>
      <trkpt lat="48.87342" lon="2.29219">
        <ele>68.599998474121</ele>
        <time>2016-08-08T19:52:35.000Z</time>
      </trkpt>
      <trkpt lat="48.87348" lon="2.29245">
        <ele>67.800003051758</ele>
        <time>2016-08-08T19:52:41.000Z</time>
      </trkpt>
      <trkpt lat="48.87348" lon="2.29262">
        <ele>67.400001525879</ele>
        <time>2016-08-08T19:52:47.000Z</time>
      </trkpt>
      <trkpt lat="48.87344" lon="2.2926">
        <ele>67.599998474121</ele>
        <time>2016-08-08T19:54:01.000Z</time>
      </trkpt>
      <trkpt lat="48.87347" lon="2.2926">
        <ele>67.400001525879</ele>
        <time>2016-08-08T19:54:06.000Z</time>
      </trkpt>
      <trkpt lat="48.87348" lon="2.29276">
        <ele>67</ele>
        <time>2016-08-08T19:54:22.000Z</time>
      </trkpt>
      <trkpt lat="48.8737" lon="2.29275">
        <ele>65.599998474121</ele>
        <time>2016-08-08T19:54:29.000Z</time>
      </trkpt>
      <trkpt lat="48.87391" lon="2.29273">
        <ele>64.800003051758</ele>
        <time>2016-08-08T19:54:36.000Z</time>
      </trkpt>
      <trkpt lat="48.87409" lon="2.29279">
        <ele>63.599998474121</ele>
        <time>2016-08-08T19:54:41.000Z</time>
      </trkpt>
      <trkpt lat="48.87427" lon="2.2929">
        <ele>62.599998474121</ele>
        <time>2016-08-08T19:54:47.000Z</time>
      </trkpt>
      <trkpt lat="48.87441" lon="2.29307">
        <ele>61.599998474121</ele>
        <time>2016-08-08T19:54:54.000Z</time>
      </trkpt>
      <trkpt lat="48.87459" lon="2.29316">
        <ele>63.200000762939</ele>
        <time>2016-08-08T19:55:00.000Z</time>
      </trkpt>
      <trkpt lat="48.87461" lon="2.29319">
        <ele>63.400001525879</ele>
        <time>2016-08-08T19:55:02.000Z</time>
      </trkpt>
      <trkpt lat="48.87465" lon="2.29326">
        <ele>63.599998474121</ele>
        <time>2016-08-08T19:55:46.000Z</time>
      </trkpt>
      <trkpt lat="48.87479" lon="2.29346">
        <ele>64</ele>
        <time>2016-08-08T19:55:52.000Z</time>
      </trkpt>
      <trkpt lat="48.87494" lon="2.29366">
        <ele>64.400001525879</ele>
        <time>2016-08-08T19:56:00.000Z</time>
      </trkpt>
      <trkpt lat="48.875" lon="2.29393">
        <ele>63.799999237061</ele>
        <time>2016-08-08T19:56:08.000Z</time>
      </trkpt>
      <trkpt lat="48.87509" lon="2.29419">
        <ele>63.599998474121</ele>
        <time>2016-08-08T19:56:17.000Z</time>
      </trkpt>
      <trkpt lat="48.87515" lon="2.29444">
        <ele>63.200000762939</ele>
        <time>2016-08-08T19:56:25.000Z</time>
      </trkpt>
      <trkpt lat="48.87522" lon="2.29471">
        <ele>62.799999237061</ele>
        <time>2016-08-08T19:56:34.000Z</time>
      </trkpt>
      <trkpt lat="48.87521" lon="2.29499">
        <ele>62</ele>
        <time>2016-08-08T19:56:41.000Z</time>
      </trkpt>
      <trkpt lat="48.87515" lon="2.29527">
        <ele>62.400001525879</ele>
        <time>2016-08-08T19:56:46.000Z</time>
      </trkpt>
      <trkpt lat="48.87508" lon="2.29555">
        <ele>62.799999237061</ele>
        <time>2016-08-08T19:56:51.000Z</time>
      </trkpt>
      <trkpt lat="48.87507" lon="2.29579">
        <ele>61.799999237061</ele>
        <time>2016-08-08T19:56:57.000Z</time>
      </trkpt>
      <trkpt lat="48.87509" lon="2.29583">
        <ele>62</ele>
        <time>2016-08-08T19:57:05.000Z</time>
      </trkpt>
      <trkpt lat="48.8751" lon="2.29592">
        <ele>62.400001525879</ele>
        <time>2016-08-08T19:57:17.000Z</time>
      </trkpt>
      <trkpt lat="48.8751" lon="2.29598">
        <ele>62.599998474121</ele>
        <time>2016-08-08T19:57:22.000Z</time>
      </trkpt>
      <trkpt lat="48.8751" lon="2.296">
        <ele>62.599998474121</ele>
        <time>2016-08-08T19:57:23.000Z</time>
      </trkpt>
      <trkpt lat="48.8751" lon="2.29614">
        <ele>63.200000762939</ele>
        <time>2016-08-08T19:57:35.000Z</time>
      </trkpt>
      <trkpt lat="48.87528" lon="2.29628">
        <ele>64.800003051758</ele>
        <time>2016-08-08T19:57:44.000Z</time>
      </trkpt>
      <trkpt lat="48.87548" lon="2.29638">
        <ele>65.599998474121</ele>
        <time>2016-08-08T19:57:50.000Z</time>
      </trkpt>
      <trkpt lat="48.87567" lon="2.29649">
        <ele>66.599998474121</ele>
        <time>2016-08-08T19:57:55.000Z</time>
      </trkpt>
      <trkpt lat="48.87574" lon="2.29654">
        <ele>66.800003051758</ele>
        <time>2016-08-08T19:57:57.000Z</time>
      </trkpt>
      <trkpt lat="48.87591" lon="2.29664">
        <ele>67.599998474121</ele>
        <time>2016-08-08T19:58:02.000Z</time>
      </trkpt>
      <trkpt lat="48.87611" lon="2.29675">
        <ele>67.199996948242</ele>
        <time>2016-08-08T19:58:08.000Z</time>
      </trkpt>
      <trkpt lat="48.87631" lon="2.29687">
        <ele>65.599998474121</ele>
        <time>2016-08-08T19:58:13.000Z</time>
      </trkpt>
      <trkpt lat="48.87652" lon="2.29699">
        <ele>63.599998474121</ele>
        <time>2016-08-08T19:58:18.000Z</time>
      </trkpt>
      <trkpt lat="48.87672" lon="2.29714">
        <ele>61.599998474121</ele>
        <time>2016-08-08T19:58:23.000Z</time>
      </trkpt>
      <trkpt lat="48.87691" lon="2.29725">
        <ele>59.799999237061</ele>
        <time>2016-08-08T19:58:27.000Z</time>
      </trkpt>
      <trkpt lat="48.87711" lon="2.29739">
        <ele>58</ele>
        <time>2016-08-08T19:58:32.000Z</time>
      </trkpt>
      <trkpt lat="48.87722" lon="2.29747">
        <ele>56.799999237061</ele>
        <time>2016-08-08T19:58:35.000Z</time>
      </trkpt>
      <trkpt lat="48.8774" lon="2.2976">
        <ele>54.799999237061</ele>
        <time>2016-08-08T19:58:39.000Z</time>
      </trkpt>
      <trkpt lat="48.87757" lon="2.29773">
        <ele>52.799999237061</ele>
        <time>2016-08-08T19:58:43.000Z</time>
      </trkpt>
      <trkpt lat="48.87773" lon="2.29787">
        <ele>51</ele>
        <time>2016-08-08T19:58:47.000Z</time>
      </trkpt>
      <trkpt lat="48.8778" lon="2.29809">
        <ele>50.599998474121</ele>
        <time>2016-08-08T19:58:52.000Z</time>
      </trkpt>
      <trkpt lat="48.87782" lon="2.2982">
        <ele>50.200000762939</ele>
        <time>2016-08-08T19:58:56.000Z</time>
      </trkpt>
      <trkpt lat="48.8779" lon="2.29834">
        <ele>50.200000762939</ele>
        <time>2016-08-08T19:59:05.000Z</time>
      </trkpt>
      <trkpt lat="48.87806" lon="2.29847">
        <ele>50.599998474121</ele>
        <time>2016-08-08T19:59:14.000Z</time>
      </trkpt>
      <trkpt lat="48.87823" lon="2.29853">
        <ele>50.799999237061</ele>
        <time>2016-08-08T19:59:22.000Z</time>
      </trkpt>
      <trkpt lat="48.87843" lon="2.29847">
        <ele>50.599998474121</ele>
        <time>2016-08-08T19:59:30.000Z</time>
      </trkpt>
      <trkpt lat="48.87862" lon="2.29852">
        <ele>50.599998474121</ele>
        <time>2016-08-08T19:59:36.000Z</time>
      </trkpt>
      <trkpt lat="48.87882" lon="2.29863">
        <ele>50.599998474121</ele>
        <time>2016-08-08T19:59:42.000Z</time>
      </trkpt>
      <trkpt lat="48.87904" lon="2.29874">
        <ele>50.599998474121</ele>
        <time>2016-08-08T19:59:47.000Z</time>
      </trkpt>
      <trkpt lat="48.87923" lon="2.29881">
        <ele>50.599998474121</ele>
        <time>2016-08-08T19:59:51.000Z</time>
      </trkpt>
      <trkpt lat="48.87944" lon="2.2989">
        <ele>50.799999237061</ele>
        <time>2016-08-08T19:59:55.000Z</time>
      </trkpt>
      <trkpt lat="48.87963" lon="2.299">
        <ele>50.799999237061</ele>
        <time>2016-08-08T19:59:59.000Z</time>
      </trkpt>
      <trkpt lat="48.8798" lon="2.29914">
        <ele>51</ele>
        <time>2016-08-08T20:00:04.000Z</time>
      </trkpt>
      <trkpt lat="48.87999" lon="2.29922">
        <ele>51.400001525879</ele>
        <time>2016-08-08T20:00:08.000Z</time>
      </trkpt>
      <trkpt lat="48.8802" lon="2.29934">
        <ele>51.799999237061</ele>
        <time>2016-08-08T20:00:12.000Z</time>
      </trkpt>
      <trkpt lat="48.88035" lon="2.29963">
        <ele>52.799999237061</ele>
        <time>2016-08-08T20:00:17.000Z</time>
      </trkpt>
      <trkpt lat="48.88054" lon="2.29982">
        <ele>53.400001525879</ele>
        <time>2016-08-08T20:00:21.000Z</time>
      </trkpt>
      <trkpt lat="48.88072" lon="2.29996">
        <ele>54</ele>
        <time>2016-08-08T20:00:25.000Z</time>
      </trkpt>
      <trkpt lat="48.88092" lon="2.30005">
        <ele>54.200000762939</ele>
        <time>2016-08-08T20:00:29.000Z</time>
      </trkpt>
      <trkpt lat="48.88096" lon="2.30009">
        <ele>54.200000762939</ele>
        <time>2016-08-08T20:00:30.000Z</time>
      </trkpt>
      <trkpt lat="48.88106" lon="2.30017">
        <ele>54.200000762939</ele>
        <time>2016-08-08T20:00:32.000Z</time>
      </trkpt>
      <trkpt lat="48.8812" lon="2.3004">
        <ele>54.200000762939</ele>
        <time>2016-08-08T20:00:37.000Z</time>
      </trkpt>
      <trkpt lat="48.88135" lon="2.30063">
        <ele>54.200000762939</ele>
        <time>2016-08-08T20:00:42.000Z</time>
      </trkpt>
      <trkpt lat="48.88137" lon="2.30069">
        <ele>54.200000762939</ele>
        <time>2016-08-08T20:00:43.000Z</time>
      </trkpt>
      <trkpt lat="48.88137" lon="2.30077">
        <ele>54.200000762939</ele>
        <time>2016-08-08T20:00:45.000Z</time>
      </trkpt>
      <trkpt lat="48.8814" lon="2.30108">
        <ele>55.200000762939</ele>
        <time>2016-08-08T20:00:50.000Z</time>
      </trkpt>
      <trkpt lat="48.88141" lon="2.30116">
        <ele>55.400001525879</ele>
        <time>2016-08-08T20:00:51.000Z</time>
      </trkpt>
      <trkpt lat="48.88148" lon="2.30148">
        <ele>55.400001525879</ele>
        <time>2016-08-08T20:00:56.000Z</time>
      </trkpt>
      <trkpt lat="48.88149" lon="2.30162">
        <ele>55.599998474121</ele>
        <time>2016-08-08T20:00:58.000Z</time>
      </trkpt>
      <trkpt lat="48.8815" lon="2.30185">
        <ele>55.599998474121</ele>
        <time>2016-08-08T20:01:01.000Z</time>
      </trkpt>
      <trkpt lat="48.88154" lon="2.30198">
        <ele>55.599998474121</ele>
        <time>2016-08-08T20:01:03.000Z</time>
      </trkpt>
      <trkpt lat="48.88162" lon="2.30223">
        <ele>55.599998474121</ele>
        <time>2016-08-08T20:01:07.000Z</time>
      </trkpt>
      <trkpt lat="48.8817" lon="2.30249">
        <ele>55.400001525879</ele>
        <time>2016-08-08T20:01:11.000Z</time>
      </trkpt>
      <trkpt lat="48.88177" lon="2.30269">
        <ele>55.599998474121</ele>
        <time>2016-08-08T20:01:14.000Z</time>
      </trkpt>
      <trkpt lat="48.88182" lon="2.30297">
        <ele>55.799999237061</ele>
        <time>2016-08-08T20:01:18.000Z</time>
      </trkpt>
      <trkpt lat="48.88187" lon="2.30327">
        <ele>55.799999237061</ele>
        <time>2016-08-08T20:01:22.000Z</time>
      </trkpt>
      <trkpt lat="48.88189" lon="2.30334">
        <ele>56</ele>
        <time>2016-08-08T20:01:23.000Z</time>
      </trkpt>
      <trkpt lat="48.88197" lon="2.30361">
        <ele>56</ele>
        <time>2016-08-08T20:01:27.000Z</time>
      </trkpt>
      <trkpt lat="48.88202" lon="2.30388">
        <ele>56</ele>
        <time>2016-08-08T20:01:31.000Z</time>
      </trkpt>
      <trkpt lat="48.88203" lon="2.30403">
        <ele>56</ele>
        <time>2016-08-08T20:01:33.000Z</time>
      </trkpt>
      <trkpt lat="48.88203" lon="2.30431">
        <ele>57</ele>
        <time>2016-08-08T20:01:37.000Z</time>
      </trkpt>
      <trkpt lat="48.88203" lon="2.30441">
        <ele>57</ele>
        <time>2016-08-08T20:01:39.000Z</time>
      </trkpt>
      <trkpt lat="48.88211" lon="2.30459">
        <ele>57</ele>
        <time>2016-08-08T20:01:44.000Z</time>
      </trkpt>
      <trkpt lat="48.88216" lon="2.30479">
        <ele>57</ele>
        <time>2016-08-08T20:01:47.000Z</time>
      </trkpt>
      <trkpt lat="48.88228" lon="2.30506">
        <ele>56.799999237061</ele>
        <time>2016-08-08T20:01:51.000Z</time>
      </trkpt>
      <trkpt lat="48.88238" lon="2.30536">
        <ele>56.599998474121</ele>
        <time>2016-08-08T20:01:55.000Z</time>
      </trkpt>
      <trkpt lat="48.88242" lon="2.30543">
        <ele>56.400001525879</ele>
        <time>2016-08-08T20:01:56.000Z</time>
      </trkpt>
      <trkpt lat="48.88254" lon="2.30567">
        <ele>56</ele>
        <time>2016-08-08T20:01:59.000Z</time>
      </trkpt>
      <trkpt lat="48.88264" lon="2.30596">
        <ele>55.200000762939</ele>
        <time>2016-08-08T20:02:02.000Z</time>
      </trkpt>
      <trkpt lat="48.88277" lon="2.30623">
        <ele>54</ele>
        <time>2016-08-08T20:02:05.000Z</time>
      </trkpt>
      <trkpt lat="48.88289" lon="2.30652">
        <ele>53</ele>
        <time>2016-08-08T20:02:08.000Z</time>
      </trkpt>
      <trkpt lat="48.88299" lon="2.30659">
        <ele>52.799999237061</ele>
        <time>2016-08-08T20:02:09.000Z</time>
      </trkpt>
      <trkpt lat="48.88314" lon="2.3068">
        <ele>52.799999237061</ele>
        <time>2016-08-08T20:02:12.000Z</time>
      </trkpt>
      <trkpt lat="48.88324" lon="2.30697">
        <ele>52.799999237061</ele>
        <time>2016-08-08T20:02:15.000Z</time>
      </trkpt>
      <trkpt lat="48.88334" lon="2.30722">
        <ele>52.799999237061</ele>
        <time>2016-08-08T20:02:21.000Z</time>
      </trkpt>
      <trkpt lat="48.8834" lon="2.30736">
        <ele>53</ele>
        <time>2016-08-08T20:02:25.000Z</time>
      </trkpt>
      <trkpt lat="48.88355" lon="2.30759">
        <ele>53.599998474121</ele>
        <time>2016-08-08T20:02:31.000Z</time>
      </trkpt>
      <trkpt lat="48.88372" lon="2.30783">
        <ele>54.400001525879</ele>
        <time>2016-08-08T20:02:36.000Z</time>
      </trkpt>
      <trkpt lat="48.88384" lon="2.30804">
        <ele>55</ele>
        <time>2016-08-08T20:02:40.000Z</time>
      </trkpt>
      <trkpt lat="48.88394" lon="2.30826">
        <ele>56</ele>
        <time>2016-08-08T20:02:44.000Z</time>
      </trkpt>
      <trkpt lat="48.88395" lon="2.30834">
        <ele>56.200000762939</ele>
        <time>2016-08-08T20:02:45.000Z</time>
      </trkpt>
      <trkpt lat="48.88398" lon="2.30853">
        <ele>56.200000762939</ele>
        <time>2016-08-08T20:02:48.000Z</time>
      </trkpt>
      <trkpt lat="48.88402" lon="2.30864">
        <ele>56.400001525879</ele>
        <time>2016-08-08T20:02:52.000Z</time>
      </trkpt>
      <trkpt lat="48.88403" lon="2.30867">
        <ele>56.400001525879</ele>
        <time>2016-08-08T20:02:53.000Z</time>
      </trkpt>
      <trkpt lat="48.88416" lon="2.30891">
        <ele>56.200000762939</ele>
        <time>2016-08-08T20:03:00.000Z</time>
      </trkpt>
      <trkpt lat="48.88419" lon="2.30895">
        <ele>56.200000762939</ele>
        <time>2016-08-08T20:03:01.000Z</time>
      </trkpt>
      <trkpt lat="48.88434" lon="2.30918">
        <ele>56</ele>
        <time>2016-08-08T20:03:07.000Z</time>
      </trkpt>
      <trkpt lat="48.88449" lon="2.30939">
        <ele>55.599998474121</ele>
        <time>2016-08-08T20:03:12.000Z</time>
      </trkpt>
      <trkpt lat="48.88458" lon="2.30965">
        <ele>55.200000762939</ele>
        <time>2016-08-08T20:03:17.000Z</time>
      </trkpt>
      <trkpt lat="48.88468" lon="2.30993">
        <ele>54.799999237061</ele>
        <time>2016-08-08T20:03:22.000Z</time>
      </trkpt>
      <trkpt lat="48.8848" lon="2.31014">
        <ele>54.799999237061</ele>
        <time>2016-08-08T20:03:26.000Z</time>
      </trkpt>
      <trkpt lat="48.88493" lon="2.31035">
        <ele>54.799999237061</ele>
        <time>2016-08-08T20:03:30.000Z</time>
      </trkpt>
      <trkpt lat="48.88505" lon="2.31056">
        <ele>54.799999237061</ele>
        <time>2016-08-08T20:03:34.000Z</time>
      </trkpt>
      <trkpt lat="48.88509" lon="2.31071">
        <ele>54.799999237061</ele>
        <time>2016-08-08T20:03:37.000Z</time>
      </trkpt>
      <trkpt lat="48.8852" lon="2.31086">
        <ele>55.200000762939</ele>
        <time>2016-08-08T20:03:41.000Z</time>
      </trkpt>
      <trkpt lat="48.88535" lon="2.31104">
        <ele>55.400001525879</ele>
        <time>2016-08-08T20:03:45.000Z</time>
      </trkpt>
      <trkpt lat="48.8855" lon="2.31124">
        <ele>55.400001525879</ele>
        <time>2016-08-08T20:03:49.000Z</time>
      </trkpt>
      <trkpt lat="48.88566" lon="2.3114">
        <ele>55.400001525879</ele>
        <time>2016-08-08T20:03:53.000Z</time>
      </trkpt>
      <trkpt lat="48.88585" lon="2.31158">
        <ele>55.400001525879</ele>
        <time>2016-08-08T20:03:57.000Z</time>
      </trkpt>
      <trkpt lat="48.88587" lon="2.31167">
        <ele>55.599998474121</ele>
        <time>2016-08-08T20:03:58.000Z</time>
      </trkpt>
      <trkpt lat="48.88602" lon="2.31195">
        <ele>55.400001525879</ele>
        <time>2016-08-08T20:04:02.000Z</time>
      </trkpt>
      <trkpt lat="48.88616" lon="2.31223">
        <ele>55.200000762939</ele>
        <time>2016-08-08T20:04:06.000Z</time>
      </trkpt>
      <trkpt lat="48.88633" lon="2.31247">
        <ele>54.400001525879</ele>
        <time>2016-08-08T20:04:10.000Z</time>
      </trkpt>
      <trkpt lat="48.88644" lon="2.3127">
        <ele>54.200000762939</ele>
        <time>2016-08-08T20:04:13.000Z</time>
      </trkpt>
      <trkpt lat="48.88657" lon="2.31289">
        <ele>54</ele>
        <time>2016-08-08T20:04:16.000Z</time>
      </trkpt>
      <trkpt lat="48.88665" lon="2.31304">
        <ele>53.799999237061</ele>
        <time>2016-08-08T20:04:19.000Z</time>
      </trkpt>
      <trkpt lat="48.88673" lon="2.31313">
        <ele>53.599998474121</ele>
        <time>2016-08-08T20:04:22.000Z</time>
      </trkpt>
      <trkpt lat="48.88686" lon="2.31324">
        <ele>53</ele>
        <time>2016-08-08T20:04:27.000Z</time>
      </trkpt>
      <trkpt lat="48.887" lon="2.3134">
        <ele>52.200000762939</ele>
        <time>2016-08-08T20:04:33.000Z</time>
      </trkpt>
      <trkpt lat="48.8871" lon="2.31352">
        <ele>51.599998474121</ele>
        <time>2016-08-08T20:04:38.000Z</time>
      </trkpt>
      <trkpt lat="48.88715" lon="2.31356">
        <ele>51.200000762939</ele>
        <time>2016-08-08T20:04:40.000Z</time>
      </trkpt>
      <trkpt lat="48.88718" lon="2.3136">
        <ele>51</ele>
        <time>2016-08-08T20:04:42.000Z</time>
      </trkpt>
      <trkpt lat="48.88721" lon="2.31365">
        <ele>50.799999237061</ele>
        <time>2016-08-08T20:04:44.000Z</time>
      </trkpt>
      <trkpt lat="48.88729" lon="2.31387">
        <ele>50.599998474121</ele>
        <time>2016-08-08T20:04:50.000Z</time>
      </trkpt>
      <trkpt lat="48.88733" lon="2.31404">
        <ele>50.599998474121</ele>
        <time>2016-08-08T20:04:56.000Z</time>
      </trkpt>
      <trkpt lat="48.8873" lon="2.31409">
        <ele>51</ele>
        <time>2016-08-08T20:05:05.000Z</time>
      </trkpt>
      <trkpt lat="48.88729" lon="2.31419">
        <ele>51.200000762939</ele>
        <time>2016-08-08T20:06:09.000Z</time>
      </trkpt>
      <trkpt lat="48.88735" lon="2.31432">
        <ele>50.400001525879</ele>
        <time>2016-08-08T20:06:17.000Z</time>
      </trkpt>
      <trkpt lat="48.88751" lon="2.31446">
        <ele>48.799999237061</ele>
        <time>2016-08-08T20:06:23.000Z</time>
      </trkpt>
      <trkpt lat="48.88765" lon="2.31466">
        <ele>47.200000762939</ele>
        <time>2016-08-08T20:06:29.000Z</time>
      </trkpt>
      <trkpt lat="48.88778" lon="2.31486">
        <ele>45.799999237061</ele>
        <time>2016-08-08T20:06:34.000Z</time>
      </trkpt>
      <trkpt lat="48.88791" lon="2.31505">
        <ele>45.599998474121</ele>
        <time>2016-08-08T20:06:39.000Z</time>
      </trkpt>
      <trkpt lat="48.88808" lon="2.31523">
        <ele>46</ele>
        <time>2016-08-08T20:06:44.000Z</time>
      </trkpt>
      <trkpt lat="48.88824" lon="2.31538">
        <ele>46</ele>
        <time>2016-08-08T20:06:48.000Z</time>
      </trkpt>
      <trkpt lat="48.8884" lon="2.31555">
        <ele>46.200000762939</ele>
        <time>2016-08-08T20:06:52.000Z</time>
      </trkpt>
      <trkpt lat="48.88854" lon="2.31572">
        <ele>46.599998474121</ele>
        <time>2016-08-08T20:06:57.000Z</time>
      </trkpt>
      <trkpt lat="48.88852" lon="2.31576">
        <ele>47</ele>
        <time>2016-08-08T20:06:58.000Z</time>
      </trkpt>
      <trkpt lat="48.88838" lon="2.31599">
        <ele>47.599998474121</ele>
        <time>2016-08-08T20:07:03.000Z</time>
      </trkpt>
      <trkpt lat="48.88825" lon="2.31626">
        <ele>49</ele>
        <time>2016-08-08T20:07:07.000Z</time>
      </trkpt>
      <trkpt lat="48.88809" lon="2.31652">
        <ele>50.599998474121</ele>
        <time>2016-08-08T20:07:11.000Z</time>
      </trkpt>
      <trkpt lat="48.88797" lon="2.31673">
        <ele>51.599998474121</ele>
        <time>2016-08-08T20:07:15.000Z</time>
      </trkpt>
      <trkpt lat="48.88784" lon="2.31696">
        <ele>52.400001525879</ele>
        <time>2016-08-08T20:07:28.000Z</time>
      </trkpt>
      <trkpt lat="48.88772" lon="2.31718">
        <ele>53.599998474121</ele>
        <time>2016-08-08T20:07:36.000Z</time>
      </trkpt>
      <trkpt lat="48.88757" lon="2.31737">
        <ele>54.599998474121</ele>
        <time>2016-08-08T20:07:42.000Z</time>
      </trkpt>
      <trkpt lat="48.88742" lon="2.31757">
        <ele>55.200000762939</ele>
        <time>2016-08-08T20:07:48.000Z</time>
      </trkpt>
      <trkpt lat="48.88741" lon="2.31763">
        <ele>55.200000762939</ele>
        <time>2016-08-08T20:07:53.000Z</time>
      </trkpt>
      <trkpt lat="48.88728" lon="2.31757">
        <ele>55.200000762939</ele>
        <time>2016-08-08T20:08:07.000Z</time>
      </trkpt>
      <trkpt lat="48.88711" lon="2.31738">
        <ele>54.599998474121</ele>
        <time>2016-08-08T20:08:13.000Z</time>
      </trkpt>
      <trkpt lat="48.88695" lon="2.31718">
        <ele>53.599998474121</ele>
        <time>2016-08-08T20:08:19.000Z</time>
      </trkpt>
      <trkpt lat="48.88678" lon="2.31701">
        <ele>53.400001525879</ele>
        <time>2016-08-08T20:08:25.000Z</time>
      </trkpt>
      <trkpt lat="48.8866" lon="2.31714">
        <ele>54.799999237061</ele>
        <time>2016-08-08T20:08:29.000Z</time>
      </trkpt>
      <trkpt lat="48.88653" lon="2.31722">
        <ele>55</ele>
        <time>2016-08-08T20:08:31.000Z</time>
      </trkpt>
      <trkpt lat="48.88639" lon="2.3174">
        <ele>55</ele>
        <time>2016-08-08T20:08:35.000Z</time>
      </trkpt>
      <trkpt lat="48.88623" lon="2.31757">
        <ele>55.200000762939</ele>
        <time>2016-08-08T20:08:40.000Z</time>
      </trkpt>
      <trkpt lat="48.88619" lon="2.31773">
        <ele>55.799999237061</ele>
        <time>2016-08-08T20:08:44.000Z</time>
      </trkpt>
      <trkpt lat="48.88604" lon="2.31792">
        <ele>57.200000762939</ele>
        <time>2016-08-08T20:08:50.000Z</time>
      </trkpt>
      <trkpt lat="48.88588" lon="2.31809">
        <ele>58</ele>
        <time>2016-08-08T20:08:54.000Z</time>
      </trkpt>
      <trkpt lat="48.88568" lon="2.31823">
        <ele>56.400001525879</ele>
        <time>2016-08-08T20:08:59.000Z</time>
      </trkpt>
      <trkpt lat="48.88552" lon="2.31836">
        <ele>55.200000762939</ele>
        <time>2016-08-08T20:09:03.000Z</time>
      </trkpt>
      <trkpt lat="48.88535" lon="2.31855">
        <ele>55</ele>
        <time>2016-08-08T20:09:08.000Z</time>
      </trkpt>
      <trkpt lat="48.88518" lon="2.31873">
        <ele>55.799999237061</ele>
        <time>2016-08-08T20:09:13.000Z</time>
      </trkpt>
      <trkpt lat="48.88501" lon="2.31886">
        <ele>57.200000762939</ele>
        <time>2016-08-08T20:09:17.000Z</time>
      </trkpt>
      <trkpt lat="48.88483" lon="2.31901">
        <ele>57.400001525879</ele>
        <time>2016-08-08T20:09:22.000Z</time>
      </trkpt>
      <trkpt lat="48.88466" lon="2.31913">
        <ele>57.400001525879</ele>
        <time>2016-08-08T20:09:27.000Z</time>
      </trkpt>
      <trkpt lat="48.88464" lon="2.31917">
        <ele>57.400001525879</ele>
        <time>2016-08-08T20:09:28.000Z</time>
      </trkpt>
      <trkpt lat="48.88454" lon="2.31931">
        <ele>57.400001525879</ele>
        <time>2016-08-08T20:09:32.000Z</time>
      </trkpt>
      <trkpt lat="48.88458" lon="2.31958">
        <ele>57.400001525879</ele>
        <time>2016-08-08T20:09:37.000Z</time>
      </trkpt>
      <trkpt lat="48.8846" lon="2.31963">
        <ele>57.400001525879</ele>
        <time>2016-08-08T20:09:38.000Z</time>
      </trkpt>
      <trkpt lat="48.88467" lon="2.31993">
        <ele>57.599998474121</ele>
        <time>2016-08-08T20:09:43.000Z</time>
      </trkpt>
      <trkpt lat="48.88477" lon="2.32019">
        <ele>58.200000762939</ele>
        <time>2016-08-08T20:09:48.000Z</time>
      </trkpt>
      <trkpt lat="48.88489" lon="2.32042">
        <ele>58.799999237061</ele>
        <time>2016-08-08T20:09:53.000Z</time>
      </trkpt>
      <trkpt lat="48.88504" lon="2.32061">
        <ele>59.200000762939</ele>
        <time>2016-08-08T20:09:59.000Z</time>
      </trkpt>
      <trkpt lat="48.88505" lon="2.32068">
        <ele>59.599998474121</ele>
        <time>2016-08-08T20:10:02.000Z</time>
      </trkpt>
      <trkpt lat="48.88491" lon="2.32091">
        <ele>60.400001525879</ele>
        <time>2016-08-08T20:10:08.000Z</time>
      </trkpt>
      <trkpt lat="48.88476" lon="2.32106">
        <ele>60.599998474121</ele>
        <time>2016-08-08T20:10:13.000Z</time>
      </trkpt>
      <trkpt lat="48.88461" lon="2.32123">
        <ele>61.599998474121</ele>
        <time>2016-08-08T20:10:17.000Z</time>
      </trkpt>
      <trkpt lat="48.88447" lon="2.3214">
        <ele>62.799999237061</ele>
        <time>2016-08-08T20:10:24.000Z</time>
      </trkpt>
      <trkpt lat="48.88438" lon="2.32165">
        <ele>64</ele>
        <time>2016-08-08T20:10:34.000Z</time>
      </trkpt>
      <trkpt lat="48.88426" lon="2.32189">
        <ele>63</ele>
        <time>2016-08-08T20:10:44.000Z</time>
      </trkpt>
      <trkpt lat="48.88425" lon="2.32193">
        <ele>62.799999237061</ele>
        <time>2016-08-08T20:10:46.000Z</time>
      </trkpt>
      <trkpt lat="48.88423" lon="2.32199">
        <ele>62.599998474121</ele>
        <time>2016-08-08T20:10:50.000Z</time>
      </trkpt>
      <trkpt lat="48.88423" lon="2.322">
        <ele>62.599998474121</ele>
        <time>2016-08-08T20:10:51.000Z</time>
      </trkpt>
      <trkpt lat="48.8843" lon="2.32206">
        <ele>62.599998474121</ele>
        <time>2016-08-08T20:12:14.000Z</time>
      </trkpt>
      <trkpt lat="48.8844" lon="2.32182">
        <ele>63.599998474121</ele>
        <time>2016-08-08T20:12:45.000Z</time>
      </trkpt>
      <trkpt lat="48.88458" lon="2.32164">
        <ele>63.200000762939</ele>
        <time>2016-08-08T20:12:51.000Z</time>
      </trkpt>
      <trkpt lat="48.88473" lon="2.32143">
        <ele>61.799999237061</ele>
        <time>2016-08-08T20:12:56.000Z</time>
      </trkpt>
      <trkpt lat="48.88485" lon="2.32122">
        <ele>60.400001525879</ele>
        <time>2016-08-08T20:13:01.000Z</time>
      </trkpt>
      <trkpt lat="48.88498" lon="2.32097">
        <ele>60.200000762939</ele>
        <time>2016-08-08T20:13:06.000Z</time>
      </trkpt>
      <trkpt lat="48.88519" lon="2.32093">
        <ele>60</ele>
        <time>2016-08-08T20:13:12.000Z</time>
      </trkpt>
      <trkpt lat="48.88535" lon="2.32105">
        <ele>60.200000762939</ele>
        <time>2016-08-08T20:13:16.000Z</time>
      </trkpt>
      <trkpt lat="48.88554" lon="2.32118">
        <ele>60.400001525879</ele>
        <time>2016-08-08T20:13:21.000Z</time>
      </trkpt>
      <trkpt lat="48.88574" lon="2.32133">
        <ele>60.599998474121</ele>
        <time>2016-08-08T20:13:26.000Z</time>
      </trkpt>
      <trkpt lat="48.88589" lon="2.32162">
        <ele>60.799999237061</ele>
        <time>2016-08-08T20:13:33.000Z</time>
      </trkpt>
      <trkpt lat="48.88608" lon="2.32173">
        <ele>61.200000762939</ele>
        <time>2016-08-08T20:13:38.000Z</time>
      </trkpt>
      <trkpt lat="48.88624" lon="2.32188">
        <ele>61.400001525879</ele>
        <time>2016-08-08T20:13:43.000Z</time>
      </trkpt>
      <trkpt lat="48.88641" lon="2.32206">
        <ele>61.599998474121</ele>
        <time>2016-08-08T20:13:48.000Z</time>
      </trkpt>
      <trkpt lat="48.88656" lon="2.32227">
        <ele>62</ele>
        <time>2016-08-08T20:13:54.000Z</time>
      </trkpt>
      <trkpt lat="48.88675" lon="2.32244">
        <ele>62</ele>
        <time>2016-08-08T20:13:59.000Z</time>
      </trkpt>
      <trkpt lat="48.88695" lon="2.3226">
        <ele>62.400001525879</ele>
        <time>2016-08-08T20:14:04.000Z</time>
      </trkpt>
      <trkpt lat="48.88711" lon="2.32282">
        <ele>63.599998474121</ele>
        <time>2016-08-08T20:14:10.000Z</time>
      </trkpt>
      <trkpt lat="48.88712" lon="2.32287">
        <ele>63.799999237061</ele>
        <time>2016-08-08T20:14:11.000Z</time>
      </trkpt>
      <trkpt lat="48.88718" lon="2.32295">
        <ele>64.199996948242</ele>
        <time>2016-08-08T20:14:13.000Z</time>
      </trkpt>
      <trkpt lat="48.88734" lon="2.32311">
        <ele>65.199996948242</ele>
        <time>2016-08-08T20:14:18.000Z</time>
      </trkpt>
      <trkpt lat="48.88746" lon="2.32336">
        <ele>66</ele>
        <time>2016-08-08T20:14:23.000Z</time>
      </trkpt>
      <trkpt lat="48.88758" lon="2.32361">
        <ele>66.800003051758</ele>
        <time>2016-08-08T20:14:29.000Z</time>
      </trkpt>
      <trkpt lat="48.88774" lon="2.32379">
        <ele>67.599998474121</ele>
        <time>2016-08-08T20:14:35.000Z</time>
      </trkpt>
      <trkpt lat="48.88789" lon="2.32395">
        <ele>67.199996948242</ele>
        <time>2016-08-08T20:14:41.000Z</time>
      </trkpt>
      <trkpt lat="48.88801" lon="2.32415">
        <ele>67</ele>
        <time>2016-08-08T20:14:48.000Z</time>
      </trkpt>
      <trkpt lat="48.88798" lon="2.32442">
        <ele>67.800003051758</ele>
        <time>2016-08-08T20:14:56.000Z</time>
      </trkpt>
      <trkpt lat="48.88797" lon="2.32449">
        <ele>67.800003051758</ele>
        <time>2016-08-08T20:15:01.000Z</time>
      </trkpt>
      <trkpt lat="48.88815" lon="2.32433">
        <ele>67</ele>
        <time>2016-08-08T20:15:08.000Z</time>
      </trkpt>
      <trkpt lat="48.88832" lon="2.32425">
        <ele>66.199996948242</ele>
        <time>2016-08-08T20:15:14.000Z</time>
      </trkpt>
      <trkpt lat="48.88836" lon="2.32428">
        <ele>66.199996948242</ele>
        <time>2016-08-08T20:15:16.000Z</time>
      </trkpt>
      <trkpt lat="48.88855" lon="2.32442">
        <ele>65.800003051758</ele>
        <time>2016-08-08T20:15:21.000Z</time>
      </trkpt>
      <trkpt lat="48.88861" lon="2.32446">
        <ele>65.599998474121</ele>
        <time>2016-08-08T20:15:23.000Z</time>
      </trkpt>
      <trkpt lat="48.88879" lon="2.32447">
        <ele>64.800003051758</ele>
        <time>2016-08-08T20:15:30.000Z</time>
      </trkpt>
      <trkpt lat="48.88892" lon="2.32421">
        <ele>64.400001525879</ele>
        <time>2016-08-08T20:15:35.000Z</time>
      </trkpt>
      <trkpt lat="48.889" lon="2.32395">
        <ele>63.799999237061</ele>
        <time>2016-08-08T20:15:40.000Z</time>
      </trkpt>
      <trkpt lat="48.88903" lon="2.3239">
        <ele>63.599998474121</ele>
        <time>2016-08-08T20:15:42.000Z</time>
      </trkpt>
      <trkpt lat="48.88912" lon="2.3239">
        <ele>63.400001525879</ele>
        <time>2016-08-08T20:15:46.000Z</time>
      </trkpt>
      <trkpt lat="48.88929" lon="2.32398">
        <ele>63.599998474121</ele>
        <time>2016-08-08T20:15:51.000Z</time>
      </trkpt>
      <trkpt lat="48.88946" lon="2.32411">
        <ele>63.799999237061</ele>
        <time>2016-08-08T20:15:56.000Z</time>
      </trkpt>
      <trkpt lat="48.88963" lon="2.32423">
        <ele>63</ele>
        <time>2016-08-08T20:16:01.000Z</time>
      </trkpt>
      <trkpt lat="48.88981" lon="2.32434">
        <ele>62.200000762939</ele>
        <time>2016-08-08T20:16:06.000Z</time>
      </trkpt>
      <trkpt lat="48.89" lon="2.32448">
        <ele>61.400001525879</ele>
        <time>2016-08-08T20:16:12.000Z</time>
      </trkpt>
      <trkpt lat="48.89016" lon="2.32461">
        <ele>60.599998474121</ele>
        <time>2016-08-08T20:16:17.000Z</time>
      </trkpt>
      <trkpt lat="48.89024" lon="2.3249">
        <ele>60</ele>
        <time>2016-08-08T20:16:23.000Z</time>
      </trkpt>
      <trkpt lat="48.89024" lon="2.32497">
        <ele>60</ele>
        <time>2016-08-08T20:16:25.000Z</time>
      </trkpt>
      <trkpt lat="48.89013" lon="2.32524">
        <ele>60</ele>
        <time>2016-08-08T20:16:31.000Z</time>
      </trkpt>
      <trkpt lat="48.89011" lon="2.3253">
        <ele>60</ele>
        <time>2016-08-08T20:16:32.000Z</time>
      </trkpt>
      <trkpt lat="48.89" lon="2.32557">
        <ele>60.200000762939</ele>
        <time>2016-08-08T20:16:37.000Z</time>
      </trkpt>
      <trkpt lat="48.88992" lon="2.32582">
        <ele>59.799999237061</ele>
        <time>2016-08-08T20:16:41.000Z</time>
      </trkpt>
      <trkpt lat="48.88982" lon="2.32609">
        <ele>61</ele>
        <time>2016-08-08T20:16:47.000Z</time>
      </trkpt>
      <trkpt lat="48.8898" lon="2.32636">
        <ele>61.799999237061</ele>
        <time>2016-08-08T20:16:57.000Z</time>
      </trkpt>
      <trkpt lat="48.8899" lon="2.32646">
        <ele>62</ele>
        <time>2016-08-08T20:17:02.000Z</time>
      </trkpt>
      <trkpt lat="48.8901" lon="2.32653">
        <ele>62</ele>
        <time>2016-08-08T20:17:08.000Z</time>
      </trkpt>
      <trkpt lat="48.89029" lon="2.32659">
        <ele>61.599998474121</ele>
        <time>2016-08-08T20:17:13.000Z</time>
      </trkpt>
      <trkpt lat="48.89049" lon="2.32668">
        <ele>60.799999237061</ele>
        <time>2016-08-08T20:17:19.000Z</time>
      </trkpt>
      <trkpt lat="48.89067" lon="2.32676">
        <ele>60.200000762939</ele>
        <time>2016-08-08T20:17:24.000Z</time>
      </trkpt>
      <trkpt lat="48.89087" lon="2.32679">
        <ele>59.400001525879</ele>
        <time>2016-08-08T20:17:30.000Z</time>
      </trkpt>
      <trkpt lat="48.89107" lon="2.32683">
        <ele>58.400001525879</ele>
        <time>2016-08-08T20:17:35.000Z</time>
      </trkpt>
      <trkpt lat="48.89126" lon="2.32683">
        <ele>57.599998474121</ele>
        <time>2016-08-08T20:17:40.000Z</time>
      </trkpt>
      <trkpt lat="48.89147" lon="2.32684">
        <ele>56.799999237061</ele>
        <time>2016-08-08T20:17:46.000Z</time>
      </trkpt>
      <trkpt lat="48.89164" lon="2.32701">
        <ele>56.400001525879</ele>
        <time>2016-08-08T20:17:54.000Z</time>
      </trkpt>
      <trkpt lat="48.89183" lon="2.32706">
        <ele>55.799999237061</ele>
        <time>2016-08-08T20:17:59.000Z</time>
      </trkpt>
      <trkpt lat="48.89202" lon="2.32709">
        <ele>55.400001525879</ele>
        <time>2016-08-08T20:18:04.000Z</time>
      </trkpt>
      <trkpt lat="48.89221" lon="2.32713">
        <ele>55.200000762939</ele>
        <time>2016-08-08T20:18:08.000Z</time>
      </trkpt>
      <trkpt lat="48.89242" lon="2.32714">
        <ele>55</ele>
        <time>2016-08-08T20:18:13.000Z</time>
      </trkpt>
      <trkpt lat="48.89261" lon="2.32718">
        <ele>54.400001525879</ele>
        <time>2016-08-08T20:18:18.000Z</time>
      </trkpt>
      <trkpt lat="48.89282" lon="2.32729">
        <ele>54.200000762939</ele>
        <time>2016-08-08T20:18:24.000Z</time>
      </trkpt>
      <trkpt lat="48.89298" lon="2.32746">
        <ele>54.400001525879</ele>
        <time>2016-08-08T20:18:28.000Z</time>
      </trkpt>
      <trkpt lat="48.89305" lon="2.32768">
        <ele>54.200000762939</ele>
        <time>2016-08-08T20:18:32.000Z</time>
      </trkpt>
      <trkpt lat="48.89312" lon="2.32796">
        <ele>54.599998474121</ele>
        <time>2016-08-08T20:18:37.000Z</time>
      </trkpt>
      <trkpt lat="48.89313" lon="2.32801">
        <ele>54.799999237061</ele>
        <time>2016-08-08T20:18:38.000Z</time>
      </trkpt>
      <trkpt lat="48.89316" lon="2.32829">
        <ele>55.799999237061</ele>
        <time>2016-08-08T20:18:43.000Z</time>
      </trkpt>
      <trkpt lat="48.89316" lon="2.32834">
        <ele>56.200000762939</ele>
        <time>2016-08-08T20:18:44.000Z</time>
      </trkpt>
      <trkpt lat="48.89321" lon="2.32863">
        <ele>57.200000762939</ele>
        <time>2016-08-08T20:18:49.000Z</time>
      </trkpt>
      <trkpt lat="48.89327" lon="2.32892">
        <ele>57.799999237061</ele>
        <time>2016-08-08T20:18:53.000Z</time>
      </trkpt>
      <trkpt lat="48.89337" lon="2.32916">
        <ele>57.400001525879</ele>
        <time>2016-08-08T20:18:56.000Z</time>
      </trkpt>
      <trkpt lat="48.89342" lon="2.3294">
        <ele>57.599998474121</ele>
        <time>2016-08-08T20:18:59.000Z</time>
      </trkpt>
      <trkpt lat="48.89352" lon="2.32967">
        <ele>57.799999237061</ele>
        <time>2016-08-08T20:19:03.000Z</time>
      </trkpt>
      <trkpt lat="48.89354" lon="2.32973">
        <ele>57.799999237061</ele>
        <time>2016-08-08T20:19:04.000Z</time>
      </trkpt>
      <trkpt lat="48.89361" lon="2.33002">
        <ele>57.799999237061</ele>
        <time>2016-08-08T20:19:09.000Z</time>
      </trkpt>
      <trkpt lat="48.89365" lon="2.33033">
        <ele>57</ele>
        <time>2016-08-08T20:19:14.000Z</time>
      </trkpt>
      <trkpt lat="48.89372" lon="2.3306">
        <ele>56.400001525879</ele>
        <time>2016-08-08T20:19:18.000Z</time>
      </trkpt>
      <trkpt lat="48.89373" lon="2.33067">
        <ele>56.200000762939</ele>
        <time>2016-08-08T20:19:19.000Z</time>
      </trkpt>
      <trkpt lat="48.89381" lon="2.33092">
        <ele>56.200000762939</ele>
        <time>2016-08-08T20:19:23.000Z</time>
      </trkpt>
      <trkpt lat="48.89383" lon="2.33104">
        <ele>56.799999237061</ele>
        <time>2016-08-08T20:19:25.000Z</time>
      </trkpt>
      <trkpt lat="48.89385" lon="2.33122">
        <ele>57.599998474121</ele>
        <time>2016-08-08T20:19:28.000Z</time>
      </trkpt>
      <trkpt lat="48.89389" lon="2.33156">
        <ele>58.799999237061</ele>
        <time>2016-08-08T20:19:33.000Z</time>
      </trkpt>
      <trkpt lat="48.89398" lon="2.3318">
        <ele>60</ele>
        <time>2016-08-08T20:19:37.000Z</time>
      </trkpt>
      <trkpt lat="48.89406" lon="2.33211">
        <ele>61.799999237061</ele>
        <time>2016-08-08T20:19:42.000Z</time>
      </trkpt>
      <trkpt lat="48.89406" lon="2.3323">
        <ele>63.400001525879</ele>
        <time>2016-08-08T20:19:45.000Z</time>
      </trkpt>
      <trkpt lat="48.89408" lon="2.33249">
        <ele>64.800003051758</ele>
        <time>2016-08-08T20:19:49.000Z</time>
      </trkpt>
      <trkpt lat="48.89403" lon="2.3327">
        <ele>66.599998474121</ele>
        <time>2016-08-08T20:19:55.000Z</time>
      </trkpt>
      <trkpt lat="48.89404" lon="2.33273">
        <ele>66.800003051758</ele>
        <time>2016-08-08T20:19:56.000Z</time>
      </trkpt>
      <trkpt lat="48.89409" lon="2.33292">
        <ele>68</ele>
        <time>2016-08-08T20:20:22.000Z</time>
      </trkpt>
      <trkpt lat="48.89407" lon="2.33327">
        <ele>69.400001525879</ele>
        <time>2016-08-08T20:20:28.000Z</time>
      </trkpt>
      <trkpt lat="48.89401" lon="2.33354">
        <ele>69.199996948242</ele>
        <time>2016-08-08T20:20:32.000Z</time>
      </trkpt>
      <trkpt lat="48.89393" lon="2.33385">
        <ele>69</ele>
        <time>2016-08-08T20:20:36.000Z</time>
      </trkpt>
      <trkpt lat="48.89385" lon="2.33419">
        <ele>69</ele>
        <time>2016-08-08T20:20:40.000Z</time>
      </trkpt>
      <trkpt lat="48.89382" lon="2.33426">
        <ele>68.800003051758</ele>
        <time>2016-08-08T20:20:41.000Z</time>
      </trkpt>
      <trkpt lat="48.89373" lon="2.33455">
        <ele>69.400001525879</ele>
        <time>2016-08-08T20:20:45.000Z</time>
      </trkpt>
      <trkpt lat="48.89364" lon="2.33482">
        <ele>70.400001525879</ele>
        <time>2016-08-08T20:20:49.000Z</time>
      </trkpt>
      <trkpt lat="48.89354" lon="2.33508">
        <ele>71</ele>
        <time>2016-08-08T20:20:53.000Z</time>
      </trkpt>
      <trkpt lat="48.89354" lon="2.33515">
        <ele>71</ele>
        <time>2016-08-08T20:20:54.000Z</time>
      </trkpt>
      <trkpt lat="48.89347" lon="2.33542">
        <ele>71.199996948242</ele>
        <time>2016-08-08T20:20:58.000Z</time>
      </trkpt>
      <trkpt lat="48.89339" lon="2.33569">
        <ele>71.400001525879</ele>
        <time>2016-08-08T20:21:02.000Z</time>
      </trkpt>
      <trkpt lat="48.89332" lon="2.336">
        <ele>71.199996948242</ele>
        <time>2016-08-08T20:21:07.000Z</time>
      </trkpt>
      <trkpt lat="48.89337" lon="2.33612">
        <ele>70.800003051758</ele>
        <time>2016-08-08T20:21:09.000Z</time>
      </trkpt>
      <trkpt lat="48.89336" lon="2.33638">
        <ele>70.199996948242</ele>
        <time>2016-08-08T20:21:14.000Z</time>
      </trkpt>
      <trkpt lat="48.89339" lon="2.33672">
        <ele>69.400001525879</ele>
        <time>2016-08-08T20:21:19.000Z</time>
      </trkpt>
      <trkpt lat="48.89337" lon="2.33705">
        <ele>68</ele>
        <time>2016-08-08T20:21:23.000Z</time>
      </trkpt>
      <trkpt lat="48.89332" lon="2.3374">
        <ele>66.400001525879</ele>
        <time>2016-08-08T20:21:27.000Z</time>
      </trkpt>
      <trkpt lat="48.8933" lon="2.33757">
        <ele>66</ele>
        <time>2016-08-08T20:21:29.000Z</time>
      </trkpt>
      <trkpt lat="48.89329" lon="2.33793">
        <ele>66</ele>
        <time>2016-08-08T20:21:33.000Z</time>
      </trkpt>
      <trkpt lat="48.89325" lon="2.3382">
        <ele>64.599998474121</ele>
        <time>2016-08-08T20:21:36.000Z</time>
      </trkpt>
      <trkpt lat="48.89322" lon="2.3385">
        <ele>64</ele>
        <time>2016-08-08T20:21:39.000Z</time>
      </trkpt>
      <trkpt lat="48.89319" lon="2.33878">
        <ele>64.199996948242</ele>
        <time>2016-08-08T20:21:42.000Z</time>
      </trkpt>
      <trkpt lat="48.89317" lon="2.33908">
        <ele>64.599998474121</ele>
        <time>2016-08-08T20:21:45.000Z</time>
      </trkpt>
      <trkpt lat="48.89311" lon="2.33937">
        <ele>65</ele>
        <time>2016-08-08T20:21:48.000Z</time>
      </trkpt>
      <trkpt lat="48.89307" lon="2.33967">
        <ele>66.599998474121</ele>
        <time>2016-08-08T20:21:51.000Z</time>
      </trkpt>
      <trkpt lat="48.89304" lon="2.33987">
        <ele>68.400001525879</ele>
        <time>2016-08-08T20:21:53.000Z</time>
      </trkpt>
      <trkpt lat="48.89293" lon="2.34011">
        <ele>69.599998474121</ele>
        <time>2016-08-08T20:21:57.000Z</time>
      </trkpt>
      <trkpt lat="48.89292" lon="2.34014">
        <ele>69.800003051758</ele>
        <time>2016-08-08T20:21:58.000Z</time>
      </trkpt>
      <trkpt lat="48.89288" lon="2.3402">
        <ele>70</ele>
        <time>2016-08-08T20:22:00.000Z</time>
      </trkpt>
      <trkpt lat="48.89304" lon="2.3403">
        <ele>69.599998474121</ele>
        <time>2016-08-08T20:22:11.000Z</time>
      </trkpt>
      <trkpt lat="48.89304" lon="2.3403">
        <ele>69.599998474121</ele>
        <time>2016-08-08T20:22:12.000Z</time>
      </trkpt>
      <trkpt lat="48.89301" lon="2.34053">
        <ele>70</ele>
        <time>2016-08-08T20:22:26.000Z</time>
      </trkpt>
      <trkpt lat="48.89293" lon="2.34083">
        <ele>70.599998474121</ele>
        <time>2016-08-08T20:22:30.000Z</time>
      </trkpt>
      <trkpt lat="48.89284" lon="2.3411">
        <ele>70.599998474121</ele>
        <time>2016-08-08T20:22:33.000Z</time>
      </trkpt>
      <trkpt lat="48.89277" lon="2.34135">
        <ele>70.800003051758</ele>
        <time>2016-08-08T20:22:36.000Z</time>
      </trkpt>
      <trkpt lat="48.89268" lon="2.34165">
        <ele>71.199996948242</ele>
        <time>2016-08-08T20:22:40.000Z</time>
      </trkpt>
      <trkpt lat="48.89265" lon="2.34177">
        <ele>71.400001525879</ele>
        <time>2016-08-08T20:22:42.000Z</time>
      </trkpt>
      <trkpt lat="48.89264" lon="2.34207">
        <ele>71.599998474121</ele>
        <time>2016-08-08T20:22:46.000Z</time>
      </trkpt>
      <trkpt lat="48.8926" lon="2.34222">
        <ele>71.800003051758</ele>
        <time>2016-08-08T20:22:48.000Z</time>
      </trkpt>
      <trkpt lat="48.89256" lon="2.34237">
        <ele>72</ele>
        <time>2016-08-08T20:22:50.000Z</time>
      </trkpt>
      <trkpt lat="48.89248" lon="2.3427">
        <ele>72.599998474121</ele>
        <time>2016-08-08T20:22:54.000Z</time>
      </trkpt>
      <trkpt lat="48.89243" lon="2.34304">
        <ele>72.800003051758</ele>
        <time>2016-08-08T20:22:58.000Z</time>
      </trkpt>
      <trkpt lat="48.89237" lon="2.34335">
        <ele>72.400001525879</ele>
        <time>2016-08-08T20:23:02.000Z</time>
      </trkpt>
      <trkpt lat="48.89234" lon="2.34364">
        <ele>70.800003051758</ele>
        <time>2016-08-08T20:23:06.000Z</time>
      </trkpt>
      <trkpt lat="48.89228" lon="2.34391">
        <ele>69.599998474121</ele>
        <time>2016-08-08T20:23:10.000Z</time>
      </trkpt>
      <trkpt lat="48.89225" lon="2.34402">
        <ele>69</ele>
        <time>2016-08-08T20:23:12.000Z</time>
      </trkpt>
      <trkpt lat="48.89233" lon="2.34424">
        <ele>68</ele>
        <time>2016-08-08T20:23:17.000Z</time>
      </trkpt>
      <trkpt lat="48.89232" lon="2.34432">
        <ele>68</ele>
        <time>2016-08-08T20:23:19.000Z</time>
      </trkpt>
      <trkpt lat="48.8923" lon="2.34443">
        <ele>68</ele>
        <time>2016-08-08T20:23:22.000Z</time>
      </trkpt>
      <trkpt lat="48.8923" lon="2.34462">
        <ele>68</ele>
        <time>2016-08-08T20:23:27.000Z</time>
      </trkpt>
      <trkpt lat="48.8924" lon="2.34473">
        <ele>67.599998474121</ele>
        <time>2016-08-08T20:23:40.000Z</time>
      </trkpt>
      <trkpt lat="48.89245" lon="2.34476">
        <ele>67.400001525879</ele>
        <time>2016-08-08T20:23:48.000Z</time>
      </trkpt>
      <trkpt lat="48.89247" lon="2.34479">
        <ele>67.199996948242</ele>
        <time>2016-08-08T20:24:11.000Z</time>
      </trkpt>
      <trkpt lat="48.89255" lon="2.34473">
        <ele>66.800003051758</ele>
        <time>2016-08-08T20:24:29.000Z</time>
      </trkpt>
      <trkpt lat="48.89265" lon="2.34482">
        <ele>66.400001525879</ele>
        <time>2016-08-08T20:25:59.000Z</time>
      </trkpt>
      <trkpt lat="48.89249" lon="2.34493">
        <ele>67.199996948242</ele>
        <time>2016-08-08T20:26:11.000Z</time>
      </trkpt>
      <trkpt lat="48.89231" lon="2.34484">
        <ele>68</ele>
        <time>2016-08-08T20:26:17.000Z</time>
      </trkpt>
      <trkpt lat="48.89212" lon="2.34477">
        <ele>69</ele>
        <time>2016-08-08T20:26:22.000Z</time>
      </trkpt>
      <trkpt lat="48.89191" lon="2.34477">
        <ele>70</ele>
        <time>2016-08-08T20:26:28.000Z</time>
      </trkpt>
      <trkpt lat="48.89172" lon="2.34484">
        <ele>72.599998474121</ele>
        <time>2016-08-08T20:26:32.000Z</time>
      </trkpt>
      <trkpt lat="48.89152" lon="2.34487">
        <ele>74.599998474121</ele>
        <time>2016-08-08T20:26:37.000Z</time>
      </trkpt>
      <trkpt lat="48.89131" lon="2.34498">
        <ele>76.400001525879</ele>
        <time>2016-08-08T20:26:42.000Z</time>
      </trkpt>
      <trkpt lat="48.89114" lon="2.34511">
        <ele>78</ele>
        <time>2016-08-08T20:26:46.000Z</time>
      </trkpt>
      <trkpt lat="48.89097" lon="2.3453">
        <ele>78.599998474121</ele>
        <time>2016-08-08T20:26:50.000Z</time>
      </trkpt>
      <trkpt lat="48.89078" lon="2.3454">
        <ele>79.400001525879</ele>
        <time>2016-08-08T20:26:54.000Z</time>
      </trkpt>
      <trkpt lat="48.89058" lon="2.34551">
        <ele>79.800003051758</ele>
        <time>2016-08-08T20:26:59.000Z</time>
      </trkpt>
      <trkpt lat="48.89037" lon="2.34561">
        <ele>79.800003051758</ele>
        <time>2016-08-08T20:27:04.000Z</time>
      </trkpt>
      <trkpt lat="48.8903" lon="2.34565">
        <ele>79.800003051758</ele>
        <time>2016-08-08T20:27:06.000Z</time>
      </trkpt>
      <trkpt lat="48.89012" lon="2.34585">
        <ele>80</ele>
        <time>2016-08-08T20:27:11.000Z</time>
      </trkpt>
      <trkpt lat="48.88992" lon="2.346">
        <ele>81.599998474121</ele>
        <time>2016-08-08T20:27:16.000Z</time>
      </trkpt>
      <trkpt lat="48.88972" lon="2.34614">
        <ele>83</ele>
        <time>2016-08-08T20:27:21.000Z</time>
      </trkpt>
      <trkpt lat="48.88968" lon="2.34616">
        <ele>83.199996948242</ele>
        <time>2016-08-08T20:27:22.000Z</time>
      </trkpt>
      <trkpt lat="48.88964" lon="2.3462">
        <ele>83.400001525879</ele>
        <time>2016-08-08T20:27:24.000Z</time>
      </trkpt>
      <trkpt lat="48.88947" lon="2.34633">
        <ele>84.199996948242</ele>
        <time>2016-08-08T20:27:29.000Z</time>
      </trkpt>
      <trkpt lat="48.88931" lon="2.34638">
        <ele>85</ele>
        <time>2016-08-08T20:27:33.000Z</time>
      </trkpt>
      <trkpt lat="48.88913" lon="2.34645">
        <ele>85.800003051758</ele>
        <time>2016-08-08T20:27:39.000Z</time>
      </trkpt>
      <trkpt lat="48.88903" lon="2.3465">
        <ele>86.199996948242</ele>
        <time>2016-08-08T20:27:46.000Z</time>
      </trkpt>
      <trkpt lat="48.88898" lon="2.3465">
        <ele>86.800003051758</ele>
        <time>2016-08-08T20:27:54.000Z</time>
      </trkpt>
      <trkpt lat="48.88885" lon="2.34664">
        <ele>87</ele>
        <time>2016-08-08T20:28:16.000Z</time>
      </trkpt>
      <trkpt lat="48.88864" lon="2.34677">
        <ele>87.800003051758</ele>
        <time>2016-08-08T20:28:22.000Z</time>
      </trkpt>
      <trkpt lat="48.88859" lon="2.34681">
        <ele>87.599998474121</ele>
        <time>2016-08-08T20:28:23.000Z</time>
      </trkpt>
      <trkpt lat="48.88839" lon="2.34696">
        <ele>87</ele>
        <time>2016-08-08T20:28:26.000Z</time>
      </trkpt>
      <trkpt lat="48.8882" lon="2.34707">
        <ele>86.800003051758</ele>
        <time>2016-08-08T20:28:29.000Z</time>
      </trkpt>
      <trkpt lat="48.88802" lon="2.34719">
        <ele>87.599998474121</ele>
        <time>2016-08-08T20:28:32.000Z</time>
      </trkpt>
      <trkpt lat="48.88783" lon="2.34731">
        <ele>88.599998474121</ele>
        <time>2016-08-08T20:28:36.000Z</time>
      </trkpt>
      <trkpt lat="48.88762" lon="2.34737">
        <ele>88.800003051758</ele>
        <time>2016-08-08T20:28:40.000Z</time>
      </trkpt>
      <trkpt lat="48.88744" lon="2.34747">
        <ele>88</ele>
        <time>2016-08-08T20:28:44.000Z</time>
      </trkpt>
      <trkpt lat="48.8873" lon="2.34745">
        <ele>87.400001525879</ele>
        <time>2016-08-08T20:28:48.000Z</time>
      </trkpt>
      <trkpt lat="48.88727" lon="2.34741">
        <ele>87.400001525879</ele>
        <time>2016-08-08T20:28:51.000Z</time>
      </trkpt>
      <trkpt lat="48.88723" lon="2.3474">
        <ele>87.199996948242</ele>
        <time>2016-08-08T20:28:55.000Z</time>
      </trkpt>
      <trkpt lat="48.88703" lon="2.34751">
        <ele>86.199996948242</ele>
        <time>2016-08-08T20:29:11.000Z</time>
      </trkpt>
      <trkpt lat="48.88697" lon="2.34763">
        <ele>85.400001525879</ele>
        <time>2016-08-08T20:29:14.000Z</time>
      </trkpt>
      <trkpt lat="48.88687" lon="2.34756">
        <ele>85.400001525879</ele>
        <time>2016-08-08T20:29:38.000Z</time>
      </trkpt>
      <trkpt lat="48.88683" lon="2.34749">
        <ele>85.599998474121</ele>
        <time>2016-08-08T20:29:48.000Z</time>
      </trkpt>
      <trkpt lat="48.88665" lon="2.34746">
        <ele>85</ele>
        <time>2016-08-08T20:30:04.000Z</time>
      </trkpt>
      <trkpt lat="48.88663" lon="2.34747">
        <ele>85</ele>
        <time>2016-08-08T20:30:06.000Z</time>
      </trkpt>
      <trkpt lat="48.8866" lon="2.34751">
        <ele>84.800003051758</ele>
        <time>2016-08-08T20:30:11.000Z</time>
      </trkpt>
      <trkpt lat="48.88656" lon="2.34753">
        <ele>84.599998474121</ele>
        <time>2016-08-08T20:30:14.000Z</time>
      </trkpt>
      <trkpt lat="48.8865" lon="2.34758">
        <ele>84</ele>
        <time>2016-08-08T20:30:20.000Z</time>
      </trkpt>
      <trkpt lat="48.88638" lon="2.34759">
        <ele>83.599998474121</ele>
        <time>2016-08-08T20:30:32.000Z</time>
      </trkpt>
      <trkpt lat="48.88619" lon="2.34746">
        <ele>83.400001525879</ele>
        <time>2016-08-08T20:30:42.000Z</time>
      </trkpt>
      <trkpt lat="48.886" lon="2.34737">
        <ele>82.800003051758</ele>
        <time>2016-08-08T20:30:47.000Z</time>
      </trkpt>
      <trkpt lat="48.88579" lon="2.34732">
        <ele>81.800003051758</ele>
        <time>2016-08-08T20:30:53.000Z</time>
      </trkpt>
      <trkpt lat="48.88558" lon="2.34734">
        <ele>80.400001525879</ele>
        <time>2016-08-08T20:30:57.000Z</time>
      </trkpt>
      <trkpt lat="48.88539" lon="2.34733">
        <ele>79.199996948242</ele>
        <time>2016-08-08T20:31:01.000Z</time>
      </trkpt>
      <trkpt lat="48.88517" lon="2.34733">
        <ele>78.199996948242</ele>
        <time>2016-08-08T20:31:05.000Z</time>
      </trkpt>
      <trkpt lat="48.88493" lon="2.34728">
        <ele>77.599998474121</ele>
        <time>2016-08-08T20:31:09.000Z</time>
      </trkpt>
      <trkpt lat="48.88471" lon="2.34724">
        <ele>76.599998474121</ele>
        <time>2016-08-08T20:31:13.000Z</time>
      </trkpt>
      <trkpt lat="48.88462" lon="2.34723">
        <ele>76.199996948242</ele>
        <time>2016-08-08T20:31:15.000Z</time>
      </trkpt>
      <trkpt lat="48.88451" lon="2.3472">
        <ele>75.800003051758</ele>
        <time>2016-08-08T20:31:17.000Z</time>
      </trkpt>
      <trkpt lat="48.88431" lon="2.34713">
        <ele>75.199996948242</ele>
        <time>2016-08-08T20:31:21.000Z</time>
      </trkpt>
      <trkpt lat="48.88411" lon="2.34703">
        <ele>74.400001525879</ele>
        <time>2016-08-08T20:31:25.000Z</time>
      </trkpt>
      <trkpt lat="48.88397" lon="2.34698">
        <ele>73.800003051758</ele>
        <time>2016-08-08T20:31:28.000Z</time>
      </trkpt>
      <trkpt lat="48.88378" lon="2.34693">
        <ele>73.199996948242</ele>
        <time>2016-08-08T20:31:34.000Z</time>
      </trkpt>
      <trkpt lat="48.88374" lon="2.34695">
        <ele>73</ele>
        <time>2016-08-08T20:31:37.000Z</time>
      </trkpt>
      <trkpt lat="48.8836" lon="2.34689">
        <ele>72.800003051758</ele>
        <time>2016-08-08T20:32:03.000Z</time>
      </trkpt>
      <trkpt lat="48.8835" lon="2.34676">
        <ele>73</ele>
        <time>2016-08-08T20:32:10.000Z</time>
      </trkpt>
      <trkpt lat="48.88344" lon="2.34676">
        <ele>73.400001525879</ele>
        <time>2016-08-08T20:32:15.000Z</time>
      </trkpt>
      <trkpt lat="48.88328" lon="2.34666">
        <ele>74</ele>
        <time>2016-08-08T20:32:21.000Z</time>
      </trkpt>
      <trkpt lat="48.88317" lon="2.34649">
        <ele>74.599998474121</ele>
        <time>2016-08-08T20:32:25.000Z</time>
      </trkpt>
      <trkpt lat="48.88302" lon="2.34634">
        <ele>75.400001525879</ele>
        <time>2016-08-08T20:32:30.000Z</time>
      </trkpt>
      <trkpt lat="48.88285" lon="2.34614">
        <ele>76.199996948242</ele>
        <time>2016-08-08T20:32:35.000Z</time>
      </trkpt>
      <trkpt lat="48.88269" lon="2.34598">
        <ele>76.599998474121</ele>
        <time>2016-08-08T20:32:39.000Z</time>
      </trkpt>
      <trkpt lat="48.88254" lon="2.34576">
        <ele>76.400001525879</ele>
        <time>2016-08-08T20:32:44.000Z</time>
      </trkpt>
      <trkpt lat="48.88237" lon="2.34556">
        <ele>75.800003051758</ele>
        <time>2016-08-08T20:32:50.000Z</time>
      </trkpt>
      <trkpt lat="48.88219" lon="2.34539">
        <ele>75.199996948242</ele>
        <time>2016-08-08T20:32:55.000Z</time>
      </trkpt>
      <trkpt lat="48.88203" lon="2.34527">
        <ele>74.599998474121</ele>
        <time>2016-08-08T20:32:59.000Z</time>
      </trkpt>
      <trkpt lat="48.88186" lon="2.34509">
        <ele>74</ele>
        <time>2016-08-08T20:33:05.000Z</time>
      </trkpt>
      <trkpt lat="48.88179" lon="2.34502">
        <ele>73.800003051758</ele>
        <time>2016-08-08T20:33:08.000Z</time>
      </trkpt>
      <trkpt lat="48.88171" lon="2.34476">
        <ele>73.599998474121</ele>
        <time>2016-08-08T20:33:17.000Z</time>
      </trkpt>
      <trkpt lat="48.88165" lon="2.34467">
        <ele>73.400001525879</ele>
        <time>2016-08-08T20:33:23.000Z</time>
      </trkpt>
      <trkpt lat="48.88148" lon="2.34472">
        <ele>73.400001525879</ele>
        <time>2016-08-08T20:33:50.000Z</time>
      </trkpt>
      <trkpt lat="48.88147" lon="2.3448">
        <ele>73.199996948242</ele>
        <time>2016-08-08T20:33:57.000Z</time>
      </trkpt>
      <trkpt lat="48.88148" lon="2.34464">
        <ele>73.400001525879</ele>
        <time>2016-08-08T20:34:36.000Z</time>
      </trkpt>
      <trkpt lat="48.88138" lon="2.34442">
        <ele>73.199996948242</ele>
        <time>2016-08-08T20:34:46.000Z</time>
      </trkpt>
      <trkpt lat="48.88117" lon="2.34433">
        <ele>73</ele>
        <time>2016-08-08T20:34:56.000Z</time>
      </trkpt>
      <trkpt lat="48.88099" lon="2.34429">
        <ele>72.400001525879</ele>
        <time>2016-08-08T20:35:01.000Z</time>
      </trkpt>
      <trkpt lat="48.88076" lon="2.34417">
        <ele>71.599998474121</ele>
        <time>2016-08-08T20:35:06.000Z</time>
      </trkpt>
      <trkpt lat="48.8806" lon="2.34405">
        <ele>70.599998474121</ele>
        <time>2016-08-08T20:35:09.000Z</time>
      </trkpt>
      <trkpt lat="48.88041" lon="2.34394">
        <ele>69.599998474121</ele>
        <time>2016-08-08T20:35:15.000Z</time>
      </trkpt>
      <trkpt lat="48.88023" lon="2.3439">
        <ele>68.800003051758</ele>
        <time>2016-08-08T20:35:19.000Z</time>
      </trkpt>
      <trkpt lat="48.88005" lon="2.34384">
        <ele>67.800003051758</ele>
        <time>2016-08-08T20:35:23.000Z</time>
      </trkpt>
      <trkpt lat="48.87984" lon="2.34375">
        <ele>66.599998474121</ele>
        <time>2016-08-08T20:35:27.000Z</time>
      </trkpt>
      <trkpt lat="48.87966" lon="2.34368">
        <ele>65.400001525879</ele>
        <time>2016-08-08T20:35:30.000Z</time>
      </trkpt>
      <trkpt lat="48.87946" lon="2.34356">
        <ele>64.199996948242</ele>
        <time>2016-08-08T20:35:34.000Z</time>
      </trkpt>
      <trkpt lat="48.87929" lon="2.34342">
        <ele>63.400001525879</ele>
        <time>2016-08-08T20:35:39.000Z</time>
      </trkpt>
      <trkpt lat="48.8791" lon="2.34326">
        <ele>62.799999237061</ele>
        <time>2016-08-08T20:35:44.000Z</time>
      </trkpt>
      <trkpt lat="48.87892" lon="2.34314">
        <ele>61.799999237061</ele>
        <time>2016-08-08T20:35:48.000Z</time>
      </trkpt>
      <trkpt lat="48.87874" lon="2.34303">
        <ele>61</ele>
        <time>2016-08-08T20:35:52.000Z</time>
      </trkpt>
      <trkpt lat="48.87854" lon="2.34291">
        <ele>60</ele>
        <time>2016-08-08T20:35:56.000Z</time>
      </trkpt>
      <trkpt lat="48.87846" lon="2.34279">
        <ele>59.200000762939</ele>
        <time>2016-08-08T20:35:59.000Z</time>
      </trkpt>
      <trkpt lat="48.87831" lon="2.34264">
        <ele>58.200000762939</ele>
        <time>2016-08-08T20:36:03.000Z</time>
      </trkpt>
      <trkpt lat="48.8781" lon="2.34254">
        <ele>57</ele>
        <time>2016-08-08T20:36:08.000Z</time>
      </trkpt>
      <trkpt lat="48.87788" lon="2.34248">
        <ele>55.799999237061</ele>
        <time>2016-08-08T20:36:12.000Z</time>
      </trkpt>
      <trkpt lat="48.8777" lon="2.34242">
        <ele>54.799999237061</ele>
        <time>2016-08-08T20:36:16.000Z</time>
      </trkpt>
      <trkpt lat="48.87759" lon="2.34232">
        <ele>54.400001525879</ele>
        <time>2016-08-08T20:36:19.000Z</time>
      </trkpt>
      <trkpt lat="48.87752" lon="2.34223">
        <ele>54.200000762939</ele>
        <time>2016-08-08T20:36:22.000Z</time>
      </trkpt>
      <trkpt lat="48.87736" lon="2.34215">
        <ele>53.599998474121</ele>
        <time>2016-08-08T20:36:28.000Z</time>
      </trkpt>
      <trkpt lat="48.87734" lon="2.34212">
        <ele>53.599998474121</ele>
        <time>2016-08-08T20:36:29.000Z</time>
      </trkpt>
      <trkpt lat="48.87718" lon="2.34209">
        <ele>53</ele>
        <time>2016-08-08T20:36:35.000Z</time>
      </trkpt>
      <trkpt lat="48.87706" lon="2.34219">
        <ele>52.599998474121</ele>
        <time>2016-08-08T20:36:45.000Z</time>
      </trkpt>
      <trkpt lat="48.87698" lon="2.34227">
        <ele>52.200000762939</ele>
        <time>2016-08-08T20:36:54.000Z</time>
      </trkpt>
      <trkpt lat="48.87696" lon="2.34229">
        <ele>52.200000762939</ele>
        <time>2016-08-08T20:37:41.000Z</time>
      </trkpt>
      <trkpt lat="48.87685" lon="2.34203">
        <ele>51.799999237061</ele>
        <time>2016-08-08T20:37:49.000Z</time>
      </trkpt>
      <trkpt lat="48.87674" lon="2.34181">
        <ele>51.400001525879</ele>
        <time>2016-08-08T20:37:54.000Z</time>
      </trkpt>
      <trkpt lat="48.87663" lon="2.34153">
        <ele>51</ele>
        <time>2016-08-08T20:37:59.000Z</time>
      </trkpt>
      <trkpt lat="48.87655" lon="2.34123">
        <ele>50.599998474121</ele>
        <time>2016-08-08T20:38:04.000Z</time>
      </trkpt>
      <trkpt lat="48.87641" lon="2.34098">
        <ele>49.799999237061</ele>
        <time>2016-08-08T20:38:09.000Z</time>
      </trkpt>
      <trkpt lat="48.87623" lon="2.34078">
        <ele>49.200000762939</ele>
        <time>2016-08-08T20:38:14.000Z</time>
      </trkpt>
      <trkpt lat="48.87608" lon="2.34056">
        <ele>48.400001525879</ele>
        <time>2016-08-08T20:38:19.000Z</time>
      </trkpt>
      <trkpt lat="48.87605" lon="2.34041">
        <ele>48</ele>
        <time>2016-08-08T20:38:23.000Z</time>
      </trkpt>
      <trkpt lat="48.87603" lon="2.3402">
        <ele>47.599998474121</ele>
        <time>2016-08-08T20:38:28.000Z</time>
      </trkpt>
      <trkpt lat="48.87591" lon="2.33998">
        <ele>47</ele>
        <time>2016-08-08T20:38:35.000Z</time>
      </trkpt>
      <trkpt lat="48.87588" lon="2.33987">
        <ele>46.799999237061</ele>
        <time>2016-08-08T20:38:39.000Z</time>
      </trkpt>
      <trkpt lat="48.87586" lon="2.33984">
        <ele>46.599998474121</ele>
        <time>2016-08-08T20:38:42.000Z</time>
      </trkpt>
      <trkpt lat="48.8758" lon="2.33985">
        <ele>46.799999237061</ele>
        <time>2016-08-08T20:38:46.000Z</time>
      </trkpt>
      <trkpt lat="48.8756" lon="2.33975">
        <ele>46.400001525879</ele>
        <time>2016-08-08T20:38:55.000Z</time>
      </trkpt>
      <trkpt lat="48.87542" lon="2.33956">
        <ele>46</ele>
        <time>2016-08-08T20:39:02.000Z</time>
      </trkpt>
      <trkpt lat="48.87523" lon="2.33946">
        <ele>45.799999237061</ele>
        <time>2016-08-08T20:39:06.000Z</time>
      </trkpt>
      <trkpt lat="48.87499" lon="2.33937">
        <ele>46.200000762939</ele>
        <time>2016-08-08T20:39:11.000Z</time>
      </trkpt>
      <trkpt lat="48.87487" lon="2.33931">
        <ele>46.200000762939</ele>
        <time>2016-08-08T20:39:14.000Z</time>
      </trkpt>
      <trkpt lat="48.87478" lon="2.33926">
        <ele>46.400001525879</ele>
        <time>2016-08-08T20:39:18.000Z</time>
      </trkpt>
      <trkpt lat="48.87461" lon="2.33922">
        <ele>46.599998474121</ele>
        <time>2016-08-08T20:39:22.000Z</time>
      </trkpt>
      <trkpt lat="48.87443" lon="2.33912">
        <ele>46.799999237061</ele>
        <time>2016-08-08T20:39:27.000Z</time>
      </trkpt>
      <trkpt lat="48.87424" lon="2.33908">
        <ele>47.200000762939</ele>
        <time>2016-08-08T20:39:34.000Z</time>
      </trkpt>
      <trkpt lat="48.87404" lon="2.33905">
        <ele>47.400001525879</ele>
        <time>2016-08-08T20:39:39.000Z</time>
      </trkpt>
      <trkpt lat="48.87386" lon="2.339">
        <ele>47.599998474121</ele>
        <time>2016-08-08T20:39:43.000Z</time>
      </trkpt>
      <trkpt lat="48.87366" lon="2.3389">
        <ele>47.799999237061</ele>
        <time>2016-08-08T20:39:48.000Z</time>
      </trkpt>
      <trkpt lat="48.87348" lon="2.33878">
        <ele>48.400001525879</ele>
        <time>2016-08-08T20:39:53.000Z</time>
      </trkpt>
      <trkpt lat="48.87328" lon="2.33873">
        <ele>49</ele>
        <time>2016-08-08T20:39:58.000Z</time>
      </trkpt>
      <trkpt lat="48.87309" lon="2.33863">
        <ele>49.799999237061</ele>
        <time>2016-08-08T20:40:03.000Z</time>
      </trkpt>
      <trkpt lat="48.87291" lon="2.33854">
        <ele>50.400001525879</ele>
        <time>2016-08-08T20:40:07.000Z</time>
      </trkpt>
      <trkpt lat="48.87273" lon="2.3385">
        <ele>51</ele>
        <time>2016-08-08T20:40:12.000Z</time>
      </trkpt>
      <trkpt lat="48.87253" lon="2.33843">
        <ele>50.799999237061</ele>
        <time>2016-08-08T20:40:18.000Z</time>
      </trkpt>
      <trkpt lat="48.87234" lon="2.33837">
        <ele>50.599998474121</ele>
        <time>2016-08-08T20:40:22.000Z</time>
      </trkpt>
      <trkpt lat="48.87216" lon="2.33831">
        <ele>50.400001525879</ele>
        <time>2016-08-08T20:40:28.000Z</time>
      </trkpt>
      <trkpt lat="48.87197" lon="2.3382">
        <ele>50</ele>
        <time>2016-08-08T20:40:33.000Z</time>
      </trkpt>
      <trkpt lat="48.8719" lon="2.33823">
        <ele>50</ele>
        <time>2016-08-08T20:40:34.000Z</time>
      </trkpt>
      <trkpt lat="48.87171" lon="2.33828">
        <ele>49.799999237061</ele>
        <time>2016-08-08T20:40:38.000Z</time>
      </trkpt>
      <trkpt lat="48.87162" lon="2.33848">
        <ele>49.599998474121</ele>
        <time>2016-08-08T20:40:48.000Z</time>
      </trkpt>
      <trkpt lat="48.87168" lon="2.33875">
        <ele>49.799999237061</ele>
        <time>2016-08-08T20:40:53.000Z</time>
      </trkpt>
      <trkpt lat="48.87169" lon="2.33906">
        <ele>49.400001525879</ele>
        <time>2016-08-08T20:40:58.000Z</time>
      </trkpt>
      <trkpt lat="48.87176" lon="2.33933">
        <ele>49</ele>
        <time>2016-08-08T20:41:03.000Z</time>
      </trkpt>
      <trkpt lat="48.87185" lon="2.33961">
        <ele>48.599998474121</ele>
        <time>2016-08-08T20:41:09.000Z</time>
      </trkpt>
      <trkpt lat="48.87191" lon="2.33988">
        <ele>48.200000762939</ele>
        <time>2016-08-08T20:41:15.000Z</time>
      </trkpt>
      <trkpt lat="48.87191" lon="2.34002">
        <ele>48.200000762939</ele>
        <time>2016-08-08T20:41:19.000Z</time>
      </trkpt>
      <trkpt lat="48.87178" lon="2.34005">
        <ele>48.200000762939</ele>
        <time>2016-08-08T20:41:23.000Z</time>
      </trkpt>
      <trkpt lat="48.87157" lon="2.33992">
        <ele>48</ele>
        <time>2016-08-08T20:41:28.000Z</time>
      </trkpt>
      <trkpt lat="48.87136" lon="2.33979">
        <ele>47.799999237061</ele>
        <time>2016-08-08T20:41:32.000Z</time>
      </trkpt>
      <trkpt lat="48.87116" lon="2.3397">
        <ele>47.599998474121</ele>
        <time>2016-08-08T20:41:35.000Z</time>
      </trkpt>
      <trkpt lat="48.8709" lon="2.33962">
        <ele>48.200000762939</ele>
        <time>2016-08-08T20:41:38.000Z</time>
      </trkpt>
      <trkpt lat="48.87066" lon="2.33955">
        <ele>49</ele>
        <time>2016-08-08T20:41:41.000Z</time>
      </trkpt>
      <trkpt lat="48.87045" lon="2.33945">
        <ele>49.400001525879</ele>
        <time>2016-08-08T20:41:44.000Z</time>
      </trkpt>
      <trkpt lat="48.87024" lon="2.33934">
        <ele>49.799999237061</ele>
        <time>2016-08-08T20:41:47.000Z</time>
      </trkpt>
      <trkpt lat="48.87002" lon="2.33921">
        <ele>49.599998474121</ele>
        <time>2016-08-08T20:41:50.000Z</time>
      </trkpt>
      <trkpt lat="48.8698" lon="2.33914">
        <ele>49.400001525879</ele>
        <time>2016-08-08T20:41:53.000Z</time>
      </trkpt>
      <trkpt lat="48.8696" lon="2.33908">
        <ele>49.400001525879</ele>
        <time>2016-08-08T20:41:56.000Z</time>
      </trkpt>
      <trkpt lat="48.86957" lon="2.33904">
        <ele>49.400001525879</ele>
        <time>2016-08-08T20:41:57.000Z</time>
      </trkpt>
      <trkpt lat="48.86938" lon="2.3389">
        <ele>49.400001525879</ele>
        <time>2016-08-08T20:42:01.000Z</time>
      </trkpt>
      <trkpt lat="48.86925" lon="2.33879">
        <ele>49.599998474121</ele>
        <time>2016-08-08T20:42:06.000Z</time>
      </trkpt>
      <trkpt lat="48.86917" lon="2.33871">
        <ele>49.799999237061</ele>
        <time>2016-08-08T20:42:09.000Z</time>
      </trkpt>
      <trkpt lat="48.86894" lon="2.33864">
        <ele>50.200000762939</ele>
        <time>2016-08-08T20:42:15.000Z</time>
      </trkpt>
      <trkpt lat="48.86874" lon="2.3386">
        <ele>50.200000762939</ele>
        <time>2016-08-08T20:42:19.000Z</time>
      </trkpt>
      <trkpt lat="48.8687" lon="2.33858">
        <ele>50.400001525879</ele>
        <time>2016-08-08T20:42:20.000Z</time>
      </trkpt>
      <trkpt lat="48.8685" lon="2.33848">
        <ele>50.400001525879</ele>
        <time>2016-08-08T20:42:25.000Z</time>
      </trkpt>
      <trkpt lat="48.86829" lon="2.33836">
        <ele>50.200000762939</ele>
        <time>2016-08-08T20:42:29.000Z</time>
      </trkpt>
      <trkpt lat="48.86812" lon="2.33824">
        <ele>50</ele>
        <time>2016-08-08T20:42:33.000Z</time>
      </trkpt>
      <trkpt lat="48.86795" lon="2.33812">
        <ele>50</ele>
        <time>2016-08-08T20:42:37.000Z</time>
      </trkpt>
      <trkpt lat="48.86782" lon="2.33806">
        <ele>49.799999237061</ele>
        <time>2016-08-08T20:42:40.000Z</time>
      </trkpt>
      <trkpt lat="48.86764" lon="2.33799">
        <ele>49.799999237061</ele>
        <time>2016-08-08T20:42:44.000Z</time>
      </trkpt>
      <trkpt lat="48.86748" lon="2.33788">
        <ele>50</ele>
        <time>2016-08-08T20:42:48.000Z</time>
      </trkpt>
      <trkpt lat="48.8673" lon="2.33781">
        <ele>50.200000762939</ele>
        <time>2016-08-08T20:42:52.000Z</time>
      </trkpt>
      <trkpt lat="48.86719" lon="2.33775">
        <ele>50.400001525879</ele>
        <time>2016-08-08T20:42:54.000Z</time>
      </trkpt>
      <trkpt lat="48.86696" lon="2.33767">
        <ele>50.599998474121</ele>
        <time>2016-08-08T20:42:58.000Z</time>
      </trkpt>
      <trkpt lat="48.86675" lon="2.3375">
        <ele>50</ele>
        <time>2016-08-08T20:43:02.000Z</time>
      </trkpt>
      <trkpt lat="48.86657" lon="2.33737">
        <ele>49.599998474121</ele>
        <time>2016-08-08T20:43:06.000Z</time>
      </trkpt>
      <trkpt lat="48.86639" lon="2.33728">
        <ele>48.799999237061</ele>
        <time>2016-08-08T20:43:10.000Z</time>
      </trkpt>
      <trkpt lat="48.8662" lon="2.33716">
        <ele>48.400001525879</ele>
        <time>2016-08-08T20:43:14.000Z</time>
      </trkpt>
      <trkpt lat="48.86602" lon="2.33707">
        <ele>47.799999237061</ele>
        <time>2016-08-08T20:43:17.000Z</time>
      </trkpt>
      <trkpt lat="48.86584" lon="2.33698">
        <ele>47.799999237061</ele>
        <time>2016-08-08T20:43:21.000Z</time>
      </trkpt>
      <trkpt lat="48.86561" lon="2.33688">
        <ele>47.799999237061</ele>
        <time>2016-08-08T20:43:26.000Z</time>
      </trkpt>
      <trkpt lat="48.86543" lon="2.3368">
        <ele>47.799999237061</ele>
        <time>2016-08-08T20:43:30.000Z</time>
      </trkpt>
      <trkpt lat="48.86525" lon="2.33663">
        <ele>48</ele>
        <time>2016-08-08T20:43:36.000Z</time>
      </trkpt>
      <trkpt lat="48.86506" lon="2.33652">
        <ele>47.599998474121</ele>
        <time>2016-08-08T20:43:41.000Z</time>
      </trkpt>
      <trkpt lat="48.86485" lon="2.33646">
        <ele>47</ele>
        <time>2016-08-08T20:43:47.000Z</time>
      </trkpt>
      <trkpt lat="48.86467" lon="2.33636">
        <ele>46.599998474121</ele>
        <time>2016-08-08T20:43:54.000Z</time>
      </trkpt>
      <trkpt lat="48.86466" lon="2.33635">
        <ele>46.599998474121</ele>
        <time>2016-08-08T20:43:55.000Z</time>
      </trkpt>
      <trkpt lat="48.8646" lon="2.3363">
        <ele>46.599998474121</ele>
        <time>2016-08-08T20:44:01.000Z</time>
      </trkpt>
      <trkpt lat="48.8646" lon="2.33636">
        <ele>46.400001525879</ele>
        <time>2016-08-08T20:44:14.000Z</time>
      </trkpt>
      <trkpt lat="48.86444" lon="2.33631">
        <ele>46</ele>
        <time>2016-08-08T20:44:28.000Z</time>
      </trkpt>
      <trkpt lat="48.86425" lon="2.33619">
        <ele>46</ele>
        <time>2016-08-08T20:44:35.000Z</time>
      </trkpt>
      <trkpt lat="48.86407" lon="2.3361">
        <ele>46.400001525879</ele>
        <time>2016-08-08T20:44:40.000Z</time>
      </trkpt>
      <trkpt lat="48.86387" lon="2.33608">
        <ele>46.400001525879</ele>
        <time>2016-08-08T20:44:45.000Z</time>
      </trkpt>
      <trkpt lat="48.8637" lon="2.33598">
        <ele>46.599998474121</ele>
        <time>2016-08-08T20:44:54.000Z</time>
      </trkpt>
      <trkpt lat="48.86363" lon="2.33595">
        <ele>46.599998474121</ele>
        <time>2016-08-08T20:44:58.000Z</time>
      </trkpt>
      <trkpt lat="48.86336" lon="2.3359">
        <ele>47</ele>
        <time>2016-08-08T20:45:05.000Z</time>
      </trkpt>
      <trkpt lat="48.86322" lon="2.33611">
        <ele>46.400001525879</ele>
        <time>2016-08-08T20:45:12.000Z</time>
      </trkpt>
      <trkpt lat="48.8632" lon="2.33623">
        <ele>46</ele>
        <time>2016-08-08T20:45:18.000Z</time>
      </trkpt>
      <trkpt lat="48.86312" lon="2.33649">
        <ele>45.799999237061</ele>
        <time>2016-08-08T20:45:42.000Z</time>
      </trkpt>
      <trkpt lat="48.86299" lon="2.33673">
        <ele>46</ele>
        <time>2016-08-08T20:45:48.000Z</time>
      </trkpt>
      <trkpt lat="48.86288" lon="2.33696">
        <ele>46</ele>
        <time>2016-08-08T20:45:54.000Z</time>
      </trkpt>
      <trkpt lat="48.86274" lon="2.33718">
        <ele>46.400001525879</ele>
        <time>2016-08-08T20:46:00.000Z</time>
      </trkpt>
      <trkpt lat="48.86261" lon="2.33739">
        <ele>46.599998474121</ele>
        <time>2016-08-08T20:46:05.000Z</time>
      </trkpt>
      <trkpt lat="48.86249" lon="2.33764">
        <ele>46</ele>
        <time>2016-08-08T20:46:10.000Z</time>
      </trkpt>
      <trkpt lat="48.86242" lon="2.33795">
        <ele>45.799999237061</ele>
        <time>2016-08-08T20:46:15.000Z</time>
      </trkpt>
      <trkpt lat="48.86231" lon="2.33823">
        <ele>44.400001525879</ele>
        <time>2016-08-08T20:46:19.000Z</time>
      </trkpt>
      <trkpt lat="48.8622" lon="2.3385">
        <ele>44.400001525879</ele>
        <time>2016-08-08T20:46:23.000Z</time>
      </trkpt>
      <trkpt lat="48.86219" lon="2.33864">
        <ele>44.799999237061</ele>
        <time>2016-08-08T20:46:25.000Z</time>
      </trkpt>
      <trkpt lat="48.86214" lon="2.33877">
        <ele>45</ele>
        <time>2016-08-08T20:46:27.000Z</time>
      </trkpt>
      <trkpt lat="48.86207" lon="2.33905">
        <ele>45.400001525879</ele>
        <time>2016-08-08T20:46:31.000Z</time>
      </trkpt>
      <trkpt lat="48.862" lon="2.33918">
        <ele>45.400001525879</ele>
        <time>2016-08-08T20:46:33.000Z</time>
      </trkpt>
      <trkpt lat="48.86195" lon="2.33932">
        <ele>46</ele>
        <time>2016-08-08T20:46:35.000Z</time>
      </trkpt>
      <trkpt lat="48.8619" lon="2.33953">
        <ele>46.799999237061</ele>
        <time>2016-08-08T20:46:38.000Z</time>
      </trkpt>
      <trkpt lat="48.86183" lon="2.33967">
        <ele>48</ele>
        <time>2016-08-08T20:46:40.000Z</time>
      </trkpt>
      <trkpt lat="48.86172" lon="2.33997">
        <ele>48.599998474121</ele>
        <time>2016-08-08T20:46:44.000Z</time>
      </trkpt>
      <trkpt lat="48.86164" lon="2.34024">
        <ele>48.400001525879</ele>
        <time>2016-08-08T20:46:48.000Z</time>
      </trkpt>
      <trkpt lat="48.86164" lon="2.34061">
        <ele>48.400001525879</ele>
        <time>2016-08-08T20:46:53.000Z</time>
      </trkpt>
      <trkpt lat="48.86159" lon="2.34093">
        <ele>48</ele>
        <time>2016-08-08T20:46:58.000Z</time>
      </trkpt>
      <trkpt lat="48.86153" lon="2.3411">
        <ele>48</ele>
        <time>2016-08-08T20:47:03.000Z</time>
      </trkpt>
      <trkpt lat="48.86152" lon="2.34113">
        <ele>48</ele>
        <time>2016-08-08T20:47:04.000Z</time>
      </trkpt>
      <trkpt lat="48.86157" lon="2.34129">
        <ele>48.400001525879</ele>
        <time>2016-08-08T20:47:08.000Z</time>
      </trkpt>
      <trkpt lat="48.86155" lon="2.3414">
        <ele>48.599998474121</ele>
        <time>2016-08-08T20:47:11.000Z</time>
      </trkpt>
      <trkpt lat="48.86156" lon="2.3415">
        <ele>48.799999237061</ele>
        <time>2016-08-08T20:47:13.000Z</time>
      </trkpt>
      <trkpt lat="48.86154" lon="2.34179">
        <ele>49.200000762939</ele>
        <time>2016-08-08T20:47:21.000Z</time>
      </trkpt>
      <trkpt lat="48.8615" lon="2.34206">
        <ele>49</ele>
        <time>2016-08-08T20:47:26.000Z</time>
      </trkpt>
      <trkpt lat="48.86141" lon="2.34232">
        <ele>49.200000762939</ele>
        <time>2016-08-08T20:47:30.000Z</time>
      </trkpt>
      <trkpt lat="48.86136" lon="2.34263">
        <ele>49.200000762939</ele>
        <time>2016-08-08T20:47:34.000Z</time>
      </trkpt>
      <trkpt lat="48.86129" lon="2.34292">
        <ele>49.599998474121</ele>
        <time>2016-08-08T20:47:38.000Z</time>
      </trkpt>
      <trkpt lat="48.86121" lon="2.34322">
        <ele>50.400001525879</ele>
        <time>2016-08-08T20:47:43.000Z</time>
      </trkpt>
      <trkpt lat="48.86111" lon="2.34348">
        <ele>50.400001525879</ele>
        <time>2016-08-08T20:47:47.000Z</time>
      </trkpt>
      <trkpt lat="48.86101" lon="2.34378">
        <ele>50.599998474121</ele>
        <time>2016-08-08T20:47:51.000Z</time>
      </trkpt>
      <trkpt lat="48.86093" lon="2.34407">
        <ele>50.599998474121</ele>
        <time>2016-08-08T20:47:55.000Z</time>
      </trkpt>
      <trkpt lat="48.86085" lon="2.3444">
        <ele>51.400001525879</ele>
        <time>2016-08-08T20:47:59.000Z</time>
      </trkpt>
      <trkpt lat="48.86079" lon="2.34473">
        <ele>52</ele>
        <time>2016-08-08T20:48:03.000Z</time>
      </trkpt>
      <trkpt lat="48.86087" lon="2.34505">
        <ele>51.400001525879</ele>
        <time>2016-08-08T20:48:07.000Z</time>
      </trkpt>
      <trkpt lat="48.86085" lon="2.34526">
        <ele>51.200000762939</ele>
        <time>2016-08-08T20:48:10.000Z</time>
      </trkpt>
      <trkpt lat="48.86078" lon="2.34556">
        <ele>50.799999237061</ele>
        <time>2016-08-08T20:48:14.000Z</time>
      </trkpt>
      <trkpt lat="48.86067" lon="2.34578">
        <ele>49.599998474121</ele>
        <time>2016-08-08T20:48:17.000Z</time>
      </trkpt>
      <trkpt lat="48.86054" lon="2.34603">
        <ele>47.599998474121</ele>
        <time>2016-08-08T20:48:21.000Z</time>
      </trkpt>
      <trkpt lat="48.86039" lon="2.34623">
        <ele>46.799999237061</ele>
        <time>2016-08-08T20:48:25.000Z</time>
      </trkpt>
      <trkpt lat="48.8603" lon="2.3463">
        <ele>47</ele>
        <time>2016-08-08T20:48:27.000Z</time>
      </trkpt>
      <trkpt lat="48.86013" lon="2.34642">
        <ele>47</ele>
        <time>2016-08-08T20:48:31.000Z</time>
      </trkpt>
      <trkpt lat="48.86005" lon="2.34651">
        <ele>46.799999237061</ele>
        <time>2016-08-08T20:48:35.000Z</time>
      </trkpt>
      <trkpt lat="48.85988" lon="2.34667">
        <ele>46.400001525879</ele>
        <time>2016-08-08T20:48:40.000Z</time>
      </trkpt>
      <trkpt lat="48.85971" lon="2.3468">
        <ele>46.400001525879</ele>
        <time>2016-08-08T20:48:45.000Z</time>
      </trkpt>
      <trkpt lat="48.85966" lon="2.34689">
        <ele>46.400001525879</ele>
        <time>2016-08-08T20:48:47.000Z</time>
      </trkpt>
      <trkpt lat="48.85966" lon="2.34705">
        <ele>45.799999237061</ele>
        <time>2016-08-08T20:48:51.000Z</time>
      </trkpt>
      <trkpt lat="48.85965" lon="2.34721">
        <ele>45.200000762939</ele>
        <time>2016-08-08T20:49:00.000Z</time>
      </trkpt>
      <trkpt lat="48.85967" lon="2.34721">
        <ele>45.200000762939</ele>
        <time>2016-08-08T20:49:01.000Z</time>
      </trkpt>
      <trkpt lat="48.85972" lon="2.34722">
        <ele>45.400001525879</ele>
        <time>2016-08-08T20:49:11.000Z</time>
      </trkpt>
    </trkseg>
  </trk>
</gpx>